[[{"header":{"parameterUnit":"m.s-1","parameterCategory":1,"la1":30.6,"la2":29.2853,"lo1":-89.7004,"lo2":-87.6739,"dy":0.0162,"dx":0.0183,"nx":112,"ny":82,"refTime":"2026-04-12T00:00:00:Z","depth":0,"parameterNumber":2,"parameterNumberName":"U-component_of_WINDS"},"data":[0.0,0.0,0.0,0.0,0.0,0.0,0.0,0.0,0.0,0.0,0.0,0.0,0.0,0.0,0.0,0.0,0.0,0.0,0.0,0.0,0.0,0.0,0.0,0.0,0.0,0.0,0.0,0.0,0.0,0.0,0.0,0.0,0.0,0.0,0.0,0.0,0.0,0.0,0.0,0.0,0.0,0.0,0.0,0.0,0.0,0.0,0.0,0.0,0.0,0.0,0.0,0.0,0.0,0.0,0.0,0.0,0.0,0.0,0.0,0.0,0.0,0.0,0.0,0.0,0.0,0.0,0.0,0.0,0.0,0.0,0.0,0.0,0.0,0.0,0.0,0.0,0.0,0.0,0.0,0.0,0.0,0.0,0.0,0.0,0.0,0.0,0.0,0.0,0.0,0.0,0.0,-1.9907,-2.108,-2.043,-1.7368,-1.6356,-1.4428,-1.106,0.0,0.0,0.0,0.0,0.0,0.0,0.0,0.0,0.0,0.0,0.0,0.0,0.0,0.0,0.0,0.0,0.0,0.0,0.0,0.0,0.0,0.0,0.0,0.0,0.0,0.0,0.0,0.0,0.0,0.0,0.0,0.0,0.0,0.0,0.0,0.0,0.0,0.0,0.0,0.0,0.0,0.0,0.0,0.0,0.0,0.0,0.0,0.0,0.0,0.0,0.0,0.0,0.0,0.0,0.0,0.0,0.0,0.0,0.0,0.0,0.0,0.0,0.0,0.0,0.0,0.0,0.0,0.0,0.0,0.0,0.0,0.0,0.0,0.0,0.0,0.0,0.0,0.0,0.0,0.0,0.0,0.0,0.0,0.0,0.0,0.0,0.0,0.0,0.0,0.0,0.0,0.0,0.0,0.0,0.0,0.0,0.0,0.0,0.0,0.0,0.0,0.0,0.0,0.0,-1.7284,-2.0362,-2.1287,-2.0563,-1.7766,-1.6225,-1.4405,-1.2015,0.0,0.0,0.0,0.0,0.0,0.0,0.0,0.0,0.0,0.0,0.0,0.0,0.0,0.0,0.0,0.0,0.0,0.0,0.0,0.0,0.0,0.0,0.0,0.0,0.0,0.0,0.0,0.0,0.0,0.0,0.0,0.0,0.0,0.0,0.0,0.0,0.0,0.0,0.0,0.0,0.0,0.0,0.0,0.0,0.0,0.0,0.0,0.0,0.0,0.0,0.0,0.0,0.0,0.0,0.0,0.0,0.0,0.0,0.0,0.0,0.0,0.0,0.0,0.0,0.0,0.0,0.0,0.0,0.0,0.0,0.0,0.0,0.0,0.0,0.0,0.0,0.0,0.0,0.0,0.0,0.0,0.0,0.0,0.0,0.0,0.0,0.0,0.0,0.0,0.0,0.0,0.0,0.0,0.0,0.0,0.0,0.0,0.0,0.0,0.0,0.0,0.0,0.0,-1.7395,-1.9301,-2.1093,-2.1545,-2.0591,-1.7829,-1.5865,-1.3946,-1.2001,-0.9199,0.0,0.0,0.0,0.0,0.0,0.0,0.0,0.0,0.0,0.0,0.0,0.0,0.0,0.0,0.0,0.0,0.0,0.0,0.0,0.0,0.0,0.0,0.0,0.0,0.0,0.0,0.0,0.0,0.0,0.0,0.0,0.0,0.0,0.0,0.0,0.0,0.0,0.0,0.0,0.0,0.0,0.0,0.0,0.0,0.0,0.0,0.0,0.0,0.0,0.0,0.0,0.0,0.0,0.0,0.0,0.0,0.0,0.0,0.0,0.0,0.0,0.0,0.0,0.0,0.0,0.0,0.0,0.0,0.0,0.0,0.0,0.0,0.0,0.0,0.0,0.0,0.0,0.0,0.0,0.0,0.0,0.0,0.0,0.0,0.0,0.0,0.0,0.0,0.0,0.0,0.0,0.0,0.0,0.0,0.0,0.0,0.0,0.0,0.0,0.0,0.0,0.0,-1.9783,-2.0971,-2.1611,-2.1568,-2.0417,-1.7829,-1.55,-1.3491,-1.1825,-0.8197,0.0,0.0,0.0,0.0,0.0,0.0,0.0,0.0,0.0,0.0,0.0,0.0,0.0,0.0,0.0,0.0,0.0,0.0,0.0,0.0,0.0,0.0,0.0,0.0,0.0,0.0,0.0,0.0,0.0,0.0,0.0,0.0,0.0,0.0,0.0,0.0,0.0,0.0,0.0,0.0,0.0,0.0,0.0,0.0,0.0,0.0,0.0,0.0,0.0,0.0,0.0,0.0,0.0,0.0,0.0,0.0,0.0,0.0,0.0,0.0,0.0,0.0,0.0,0.0,0.0,0.0,0.0,0.0,0.0,0.0,0.0,0.0,0.0,0.0,0.0,0.0,0.0,0.0,0.0,0.0,0.0,0.0,0.0,0.0,0.0,0.0,0.0,0.0,0.0,0.0,0.0,0.0,0.0,0.0,0.0,0.0,0.0,0.0,0.0,0.0,0.0,0.0,-2.0007,-2.0962,-2.1643,-2.121,-1.9965,-1.7797,-1.533,-1.3284,-1.1781,-0.7729,0.0,0.0,0.0,0.0,0.0,0.0,0.0,0.0,0.0,0.0,0.0,0.0,0.0,0.0,0.0,0.0,0.0,0.0,0.0,0.0,0.0,0.0,0.0,0.0,0.0,0.0,0.0,0.0,0.0,0.0,0.0,0.0,0.0,0.0,0.0,0.0,0.0,0.0,0.0,0.0,0.0,0.0,0.0,0.0,0.0,0.0,0.0,0.0,0.0,0.0,0.0,0.0,0.0,0.0,0.0,0.0,0.0,0.0,0.0,0.0,0.0,0.0,0.0,0.0,0.0,0.0,0.0,0.0,0.0,0.0,0.0,0.0,0.0,0.0,0.0,0.0,0.0,0.0,0.0,0.0,0.0,0.0,0.0,0.0,0.0,0.0,0.0,0.0,0.0,0.0,0.0,0.0,0.0,0.0,0.0,0.0,0.0,0.0,0.0,0.0,0.0,0.0,-1.967,-2.0479,0.0,-2.1161,-1.9915,-1.7797,-1.5484,-1.3459,-1.1798,0.0,0.0,0.0,0.0,0.0,0.0,0.0,0.0,0.0,0.0,0.0,0.0,0.0,0.0,0.0,0.0,0.0,0.0,0.0,0.0,0.0,0.0,0.0,0.0,0.0,0.0,0.0,0.0,0.0,0.0,0.0,0.0,0.0,0.0,0.0,0.0,0.0,0.0,0.0,0.0,0.0,0.0,0.0,0.0,0.0,0.0,0.0,0.0,0.0,0.0,0.0,0.0,0.0,0.0,0.0,0.0,0.0,0.0,0.0,0.0,0.0,0.0,0.0,0.0,0.0,0.0,0.0,0.0,0.0,0.0,0.0,0.0,0.0,0.0,0.0,0.0,0.0,0.0,0.0,0.0,0.0,0.0,0.0,0.0,0.0,0.0,0.0,0.0,0.0,0.0,0.0,0.0,0.0,0.0,0.0,0.0,0.0,0.0,0.0,0.0,0.0,0.0,-1.887,-1.9563,-2.0238,0.0,-2.0966,-1.9709,-1.777,-1.5479,-1.342,-1.1653,0.0,0.0,0.0,0.0,0.0,0.0,0.0,0.0,0.0,0.0,0.0,0.0,0.0,0.0,0.0,0.0,0.0,0.0,0.0,0.0,0.0,0.0,0.0,0.0,0.0,0.0,0.0,0.0,0.0,0.0,0.0,0.0,0.0,0.0,0.0,0.0,0.0,0.0,0.0,0.0,0.0,0.0,0.0,0.0,0.0,0.0,0.0,0.0,0.0,0.0,0.0,0.0,0.0,0.0,0.0,0.0,0.0,0.0,0.0,0.0,0.0,0.0,0.0,0.0,0.0,0.0,0.0,0.0,0.0,0.0,0.0,0.0,0.0,0.0,0.0,0.0,0.0,0.0,0.0,0.0,0.0,0.0,0.0,0.0,0.0,0.0,0.0,0.0,0.0,0.0,0.0,0.0,0.0,0.0,0.0,0.0,0.0,0.0,0.0,0.0,0.0,0.0,-1.9313,-1.9774,-2.0301,-2.1549,-2.057,-1.919,-1.7743,-1.5335,-1.312,0.0,0.0,0.0,0.0,0.0,0.0,0.0,0.0,0.0,0.0,0.0,0.0,0.0,0.0,0.0,0.0,0.0,0.0,0.0,0.0,0.0,0.0,0.0,0.0,0.0,0.0,0.0,0.0,0.0,0.0,0.0,0.0,0.0,0.0,0.0,0.0,0.0,0.0,0.0,0.0,0.0,0.0,0.0,0.0,0.0,0.0,0.0,0.0,0.0,0.0,0.0,0.0,0.0,0.0,0.0,0.0,0.0,0.0,0.0,0.0,0.0,0.0,0.0,0.0,0.0,0.0,0.0,0.0,0.0,0.0,0.0,0.0,0.0,0.0,0.0,0.0,0.0,0.0,0.0,0.0,0.0,0.0,0.0,0.0,0.0,0.0,0.0,0.0,0.0,0.0,0.0,0.0,0.0,0.0,0.0,0.0,0.0,0.0,0.0,0.0,0.0,0.0,0.0,-1.9373,-2.0165,-2.0813,-2.1627,-2.057,-1.919,-1.7743,-1.5942,-1.3831,-1.1351,0.0,0.0,0.0,0.0,0.0,0.0,0.0,0.0,0.0,0.0,0.0,0.0,0.0,0.0,0.0,0.0,0.0,0.0,0.0,0.0,0.0,0.0,0.0,0.0,0.0,0.0,0.0,0.0,0.0,0.0,0.0,0.0,0.0,0.0,0.0,0.0,0.0,0.0,0.0,0.0,0.0,0.0,0.0,0.0,0.0,0.0,0.0,0.0,0.0,0.0,0.0,0.0,0.0,0.0,0.0,0.0,0.0,0.0,0.0,0.0,0.0,0.0,0.0,0.0,0.0,0.0,0.0,0.0,0.0,0.0,0.0,0.0,0.0,0.0,0.0,0.0,0.0,0.0,0.0,0.0,0.0,0.0,0.0,0.0,0.0,0.0,0.0,0.0,0.0,0.0,0.0,0.0,0.0,0.0,0.0,0.0,0.0,0.0,0.0,0.0,0.0,0.0,-1.9403,-2.0336,-2.1029,-2.1627,-2.057,-1.9319,-1.8151,-1.6361,-1.4409,-1.2369,0.0,0.0,0.0,0.0,0.0,0.0,0.0,0.0,0.0,0.0,0.0,0.0,0.0,0.0,0.0,0.0,0.0,0.0,0.0,0.0,0.0,0.0,0.0,0.0,0.0,0.0,0.0,0.0,0.0,0.0,0.0,0.0,0.0,0.0,0.0,0.0,0.0,0.0,0.0,0.0,0.0,0.0,0.0,0.0,0.0,0.0,0.0,0.0,0.0,0.0,0.0,0.0,0.0,0.0,0.0,0.0,0.0,0.0,0.0,0.0,0.0,0.0,0.0,0.0,0.0,0.0,0.0,0.0,0.0,0.0,0.0,0.0,0.0,0.0,0.0,0.0,0.0,0.0,0.0,0.0,0.0,0.0,0.0,0.0,0.0,0.0,0.0,0.0,0.0,0.0,0.0,0.0,0.0,0.0,0.0,0.0,0.0,0.0,0.0,0.0,0.0,0.0,-1.9492,-2.0442,-2.1084,-2.1655,-2.057,-1.9501,-1.8768,-1.6725,-1.4991,-1.3867,0.0,0.0,0.0,0.0,0.0,0.0,0.0,0.0,0.0,0.0,0.0,0.0,0.0,0.0,0.0,0.0,0.0,0.0,0.0,0.0,0.0,0.0,0.0,0.0,0.0,0.0,0.0,0.0,0.0,0.0,0.0,0.0,0.0,0.0,0.0,0.0,0.0,0.0,0.0,0.0,0.0,0.0,0.0,0.0,0.0,0.0,0.0,0.0,0.0,0.0,0.0,0.0,0.0,0.0,0.0,0.0,0.0,0.0,0.0,0.0,-2.7079,0.0,0.0,0.0,0.0,0.0,0.0,0.0,0.0,0.0,0.0,0.0,0.0,0.0,0.0,0.0,0.0,0.0,0.0,0.0,0.0,0.0,0.0,0.0,0.0,0.0,0.0,0.0,0.0,0.0,0.0,0.0,0.0,0.0,0.0,0.0,0.0,0.0,0.0,0.0,0.0,0.0,-2.021,-2.1069,-2.1572,-2.1683,-2.057,-1.9501,-1.8768,-1.7588,-1.5982,-1.3942,0.0,0.0,0.0,0.0,0.0,0.0,0.0,0.0,0.0,0.0,0.0,0.0,0.0,0.0,0.0,0.0,0.0,0.0,0.0,0.0,0.0,0.0,0.0,0.0,0.0,0.0,0.0,0.0,0.0,0.0,0.0,0.0,0.0,0.0,0.0,0.0,0.0,0.0,0.0,0.0,0.0,0.0,0.0,0.0,0.0,0.0,0.0,0.0,0.0,0.0,0.0,0.0,0.0,0.0,0.0,0.0,0.0,0.0,0.0,0.0,0.0,-2.8576,0.0,0.0,0.0,0.0,0.0,0.0,0.0,0.0,0.0,0.0,0.0,0.0,0.0,0.0,0.0,0.0,0.0,0.0,0.0,0.0,0.0,0.0,0.0,0.0,0.0,0.0,0.0,0.0,0.0,0.0,0.0,0.0,0.0,0.0,0.0,0.0,0.0,0.0,0.0,0.0,-2.0479,-2.1269,-2.171,-2.171,-2.057,-1.9631,-1.9267,-1.8281,-1.694,-1.515,-1.2612,0.0,0.0,0.0,0.0,0.0,0.0,0.0,0.0,0.0,0.0,0.0,0.0,0.0,0.0,0.0,0.0,0.0,0.0,0.0,0.0,0.0,0.0,0.0,0.0,0.0,0.0,0.0,0.0,0.0,0.0,0.0,0.0,0.0,0.0,0.0,0.0,0.0,0.0,0.0,0.0,0.0,0.0,0.0,0.0,0.0,0.0,0.0,0.0,0.0,0.0,0.0,0.0,0.0,-3.7074,-3.7551,-3.7588,-3.8946,-3.9166,-3.8374,-3.4995,-3.2953,-3.1919,0.0,0.0,0.0,0.0,0.0,0.0,0.0,0.0,0.0,0.0,0.0,0.0,0.0,0.0,0.0,0.0,0.0,0.0,0.0,0.0,0.0,0.0,0.0,0.0,0.0,-2.7056,-2.5628,0.0,0.0,0.0,0.0,0.0,0.0,0.0,0.0,0.0,0.0,0.0,0.0,-2.0857,-2.1433,-2.1738,-2.1848,-2.0623,-1.9811,-1.9811,-1.8854,-1.7762,-1.6584,-1.4245,-1.1914,0.0,0.0,0.0,0.0,0.0,0.0,0.0,0.0,0.0,0.0,0.0,0.0,0.0,0.0,0.0,0.0,0.0,0.0,0.0,0.0,0.0,0.0,0.0,0.0,0.0,0.0,0.0,0.0,0.0,0.0,0.0,0.0,-2.5027,-2.6465,0.0,0.0,0.0,0.0,0.0,0.0,0.0,0.0,0.0,0.0,0.0,0.0,0.0,0.0,-3.5642,-3.8527,-4.0104,-4.0325,-4.1846,-4.256,-4.256,-4.278,-4.2817,-4.267,-4.2156,0.0,-3.6465,-3.4571,0.0,0.0,0.0,0.0,0.0,0.0,0.0,0.0,0.0,0.0,0.0,0.0,0.0,0.0,0.0,0.0,0.0,0.0,0.0,0.0,0.0,0.0,-3.0074,-2.9736,-2.9631,-2.9091,0.0,-2.4393,-2.0967,-1.7541,0.0,0.0,0.0,0.0,0.0,0.0,0.0,0.0,-2.2194,-2.202,-2.1904,-2.2533,-2.0909,-1.9811,-1.9811,-1.9258,-1.8309,-1.7009,-1.5033,-1.3003,-1.1008,-0.8769,0.0,0.0,0.0,0.0,0.0,0.0,0.0,0.0,0.0,0.0,0.0,0.0,0.0,0.0,0.0,0.0,0.0,0.0,0.0,0.0,0.0,0.0,0.0,0.0,0.0,0.0,0.0,0.0,0.0,-2.4569,-2.6947,-2.7531,-2.7368,-2.7006,0.0,0.0,0.0,0.0,0.0,0.0,0.0,0.0,0.0,-3.5958,-3.7573,-3.904,-4.0341,-4.2213,-4.359,-4.4471,-4.5186,-4.5773,-4.6214,-4.6214,-4.6214,-4.6214,-4.6214,-4.4929,-4.2599,-3.904,-3.6617,-3.4958,0.0,0.0,0.0,0.0,-3.2609,-3.2754,-3.46,-3.4573,0.0,0.0,0.0,0.0,0.0,0.0,0.0,0.0,0.0,0.0,0.0,0.0,0.0,-3.1833,-3.1948,-3.1611,-3.036,-2.8469,-2.5664,0.0,-2.0581,-2.0079,-1.763,0.0,0.0,0.0,0.0,0.0,-2.3041,-2.294,-2.2757,-2.2699,-2.125,-2.0189,-1.9836,-1.9585,-1.893,-1.7695,-1.6418,-1.4881,-1.2945,-1.0835,-0.9089,0.0,0.0,0.0,0.0,0.0,0.0,0.0,0.0,0.0,0.0,0.0,0.0,0.0,0.0,0.0,0.0,0.0,0.0,0.0,0.0,0.0,0.0,0.0,0.0,0.0,0.0,0.0,0.0,-2.6885,-2.8716,-2.8716,-2.9489,-2.9463,0.0,0.0,0.0,0.0,0.0,0.0,-3.5569,-3.7037,-3.8579,-4.0194,-4.1609,-4.302,-4.4415,-4.5223,-4.6195,-4.7406,-4.7406,-4.77,-4.8306,-4.8306,-4.8306,-4.8306,-4.8306,-4.7957,-4.7076,-4.2873,-4.0304,-3.8888,-3.7206,-3.6178,-3.5826,-3.7074,-3.7257,-3.7206,-3.968,-3.9727,-3.85,-3.7267,0.0,-3.2476,-2.938,0.0,0.0,0.0,0.0,-3.077,-3.2259,-3.2476,-3.2645,-3.3964,-3.3992,-3.3404,-3.2266,-3.1451,-2.9469,0.0,-2.3854,-2.3192,-2.0429,0.0,0.0,0.0,0.0,-2.34,-2.4029,-2.3798,-2.3504,-2.3197,-2.1826,-2.0666,-2.0062,-2.0037,-1.9527,-1.8346,-1.7638,-1.6558,-1.4991,-1.2928,-1.123,-1.0018,0.0,0.0,0.0,0.0,0.0,0.0,0.0,0.0,0.0,0.0,0.0,0.0,0.0,0.0,0.0,0.0,0.0,0.0,0.0,0.0,0.0,0.0,0.0,0.0,0.0,0.0,0.0,0.0,0.0,-3.1213,-3.3026,0.0,0.0,0.0,0.0,-3.4573,-3.6266,-3.8227,-4.0618,-4.1552,-4.2727,-4.4324,-4.5223,-4.6067,-4.6892,-4.77,-4.8159,-4.8233,-4.8233,-4.8269,-4.8306,-4.8306,-4.8306,-4.8306,-4.8306,-4.8269,-4.8049,-4.5498,-4.3975,-4.302,-4.1442,-4.0765,-4.0728,-4.0838,-4.1332,-4.1956,-4.2103,-4.1645,-4.1062,-4.1722,-3.9207,-3.5524,-3.3659,-3.2577,0.0,0.0,-3.3106,-3.4573,-3.6118,-3.596,-3.5566,-3.6423,-3.5579,-3.4343,-3.3571,-3.2853,-3.1214,0.0,-2.5851,-2.4966,-2.3567,0.0,-2.34,-2.34,-2.4007,-2.4754,-2.5412,-2.4394,-2.3808,-2.436,-2.2638,-2.1245,-2.0691,-2.0641,-2.0097,-1.8768,-1.8267,-1.7674,-1.6897,-1.4681,-1.3313,-1.2994,-0.9833,0.0,0.0,0.0,0.0,0.0,0.0,0.0,0.0,0.0,0.0,0.0,0.0,0.0,0.0,0.0,0.0,0.0,0.0,0.0,0.0,0.0,0.0,0.0,0.0,0.0,0.0,0.0,0.0,-3.5252,-3.7351,0.0,-3.6252,-3.6743,-3.7628,-3.8857,-4.0451,-4.2176,-4.4085,-4.4948,-4.5902,-4.6985,-4.7278,-4.7865,-4.871,-4.8967,-4.9114,-4.9114,-4.9114,-4.882,-4.8306,-4.8306,-4.8306,-4.8306,-4.8306,-4.8306,-4.8233,-4.7388,-4.6544,-4.57,-4.4635,-4.4195,-4.4195,-4.4195,-4.4048,-4.3864,-4.3864,-4.3664,-4.3173,-4.1794,-3.9743,-3.7449,-3.5411,-3.4979,-3.5204,-3.5204,-3.5915,-3.6806,-3.7381,-3.7313,-3.7144,-3.7449,-3.6744,-3.5813,-3.5084,-3.3973,-3.2482,-3.0266,-2.8528,-2.6895,-2.519,-2.4896,-2.4747,-2.4306,-2.5196,-2.5974,-2.6213,-2.5366,-2.4693,-2.4526,-2.3003,-2.1644,-2.0767,-2.0691,-2.0334,-1.9448,-1.8497,-1.7828,-1.7571,-1.5731,-1.4261,-1.3358,-1.1714,-0.9915,0.0,0.0,0.0,0.0,0.0,0.0,0.0,0.0,0.0,0.0,0.0,0.0,0.0,0.0,0.0,0.0,0.0,0.0,0.0,0.0,0.0,0.0,0.0,0.0,0.0,0.0,-3.7404,-3.8227,-4.0671,-4.1572,-3.968,-4.0744,-4.1846,-4.2653,-4.3975,-4.5296,-4.6654,-4.7241,-4.7883,-4.871,-4.8746,-4.915,-4.9994,-4.9994,-4.9994,-4.9994,-4.9994,-4.9701,-4.915,-4.8857,-4.8746,-4.871,-4.8416,-4.8306,-4.8306,-4.8306,-4.7993,-4.7443,-4.6911,-4.6728,-4.6691,-4.6397,-4.5993,-4.5425,-4.4874,-4.4601,-4.4052,-4.1848,-4.058,-3.9512,-3.7387,-3.7483,-3.8159,-3.7675,-3.8058,-3.8633,-3.8633,-3.8464,-3.8261,-3.8261,-3.7315,-3.6208,-3.552,-3.4194,-3.2849,-3.1763,-3.0284,-2.8695,-2.7204,-2.6752,-2.6482,-2.601,-2.6512,-2.6956,-2.6956,-2.6052,-2.5246,-2.4831,-2.3472,-2.2146,-2.1069,-2.0968,-2.0641,-1.9861,-1.8854,-1.8258,-1.8258,-1.6592,-1.5272,-1.4426,-1.2935,-1.117,-0.9124,0.0,0.0,0.0,0.0,0.0,0.0,0.0,0.0,0.0,0.0,0.0,0.0,0.0,0.0,0.0,0.0,0.0,0.0,0.0,0.0,0.0,0.0,0.0,-3.5036,-3.7279,-3.9203,-3.9974,-4.2873,-4.3884,-4.1535,-4.3443,-4.5149,-4.592,-4.6709,-4.748,-4.8269,-4.8343,-4.871,-4.9574,-4.961,-4.9994,-5.0839,-5.0839,-5.0839,-5.0839,-5.0839,-5.0839,-5.0765,-5.0014,-4.961,-4.9537,-4.871,-4.8343,-4.8306,-4.8306,-4.8306,-4.8306,-4.8306,-4.8306,-4.8233,-4.7406,-4.7113,-4.6856,-4.5241,-4.4363,-4.368,-4.2284,-4.1958,-4.1712,-3.9666,-4.002,-4.0865,-3.9445,-3.9571,-4.0113,-4.0113,-3.9571,-3.9039,-3.9039,-3.736,-3.5577,-3.4931,-3.3596,-3.2317,-3.166,-3.0985,-3.0334,-2.9729,-2.9056,-2.8637,-2.8637,-2.8064,0.0,-2.7615,-2.6336,-2.5439,-2.5412,-2.4047,-2.2698,-2.1619,-2.1493,-2.1016,-1.9861,-1.9284,-1.8983,-1.8983,-1.7338,-1.6407,-1.6407,-1.3498,-1.1353,-1.0058,0.0,0.0,0.0,0.0,0.0,0.0,0.0,0.0,0.0,0.0,0.0,0.0,0.0,0.0,0.0,0.0,0.0,0.0,0.0,0.0,0.0,0.0,-3.6743,-3.6817,-4.0414,-4.3351,-4.4158,-4.6067,-4.7058,-4.6379,-4.6911,-4.7388,-4.7609,-4.7865,-4.8086,-4.8306,-4.8893,-4.9353,-4.961,-5.0178,-5.0839,-5.1646,-5.1683,-5.1683,-5.1683,-5.1683,-5.1353,-5.0802,-5.0582,-5.0141,-4.961,-4.9353,-4.8893,-4.8306,-4.8306,-4.8306,-4.8306,-4.8306,-4.8306,-4.8269,-4.803,-4.7241,-4.6104,-4.5058,-4.4363,-4.3752,-4.2931,-4.2424,-4.1888,-4.0279,-4.0079,-4.0316,-3.991,-3.9943,-4.0113,-4.0113,-3.9943,-3.9808,-3.9808,-3.8484,-3.7042,-3.6355,-3.4642,-3.302,-3.2346,-3.1655,-3.1018,-3.037,-2.9744,-2.9352,-2.9352,-2.8757,0.0,-2.8308,-2.7079,-2.5987,-2.5467,-2.4538,-2.3441,-2.2204,-2.1719,-2.1016,-1.9861,-1.8932,-1.843,-1.843,-1.7588,-1.6893,-1.6407,-1.4881,-1.3192,0.0,0.0,0.0,0.0,0.0,0.0,0.0,0.0,0.0,0.0,0.0,0.0,0.0,0.0,0.0,0.0,0.0,0.0,0.0,0.0,0.0,0.0,-3.7802,-4.0246,-4.0907,-4.3424,-4.5626,-4.6764,-4.7719,-4.8306,-4.8306,-4.8306,-4.8306,-4.8306,-4.8636,-4.882,-4.882,-4.9627,-5.0271,-5.0602,-5.1059,-5.1683,-5.2491,-5.2491,-5.2491,-5.2491,-5.2491,-5.227,-5.1793,-5.1463,-5.1059,0.0,-4.9904,-4.9317,-4.882,-4.8453,-4.8306,0.0,0.0,0.0,0.0,0.0,-4.6985,-4.5773,-4.5002,-4.4195,-4.3432,-4.274,-4.2195,-4.1591,-4.0442,-4.0316,-4.0519,-4.018,-4.0113,-4.0113,-4.0113,-4.0113,-4.0003,-3.9662,-3.8665,-3.7506,-3.6515,-3.5045,-3.3665,-3.2706,-3.2168,0.0,-3.1032,-3.0402,-2.9983,-2.9983,-2.9415,-2.8906,-2.8637,-2.7615,-2.665,-2.5934,-2.4936,-2.3869,-2.284,-2.2166,0.0,0.0,0.0,-1.8681,-1.8229,-1.7903,0.0,0.0,0.0,0.0,0.0,0.0,0.0,0.0,-1.1749,-1.1953,0.0,0.0,0.0,0.0,0.0,0.0,0.0,0.0,0.0,0.0,0.0,0.0,0.0,0.0,0.0,0.0,-4.1072,-4.4305,-4.5957,-4.6177,-4.6691,-4.8122,-4.8306,-4.8306,-4.8306,-4.8306,-4.8343,-4.8453,-4.915,-4.9647,-4.9721,0.0,0.0,0.0,0.0,-5.2491,-5.3167,-5.3203,-5.3203,-5.3203,-5.3203,-5.3203,-5.3167,-5.2454,-5.2087,-5.1903,-5.0492,-4.9831,-4.9684,-4.8783,-4.8379,-4.8306,-4.8306,-4.8306,-4.8196,-4.7406,-4.6636,-4.592,-4.5112,0.0,0.0,-4.2186,-4.1545,-4.0933,-4.0316,-4.0561,-4.0933,-4.0282,-4.0113,-4.0113,-4.0113,-4.0003,-3.9765,-3.9069,-3.8274,-3.7311,-3.5974,-3.5064,-3.4174,-3.2976,-3.2617,-3.2288,-3.172,-3.1062,-3.0612,-3.0612,-3.0073,-2.9475,-2.8876,-2.8106,-2.7353,-2.6695,0.0,0.0,-2.3568,-2.2754,-2.187,-2.0842,-2.0239,-1.9484,-1.853,-1.853,-1.853,-1.848,-1.7971,-1.7845,-1.8202,-1.7789,-1.7782,-1.812,-1.599,-1.5629,0.0,0.0,0.0,0.0,0.0,0.0,0.0,0.0,0.0,0.0,0.0,0.0,0.0,0.0,0.0,-4.0846,-4.3609,-4.5993,-4.7609,-4.7829,-4.7939,-4.8269,-4.8306,-4.8306,-4.8306,-4.8306,-4.86,-4.9317,-4.95,-4.9904,-5.0545,-5.1316,0.0,-5.1977,-5.2637,-5.3041,-5.3203,-5.3203,-5.3203,-5.3203,0.0,0.0,-5.3167,-5.3041,-5.2601,-5.1977,-5.1646,-5.1169,-5.0508,-4.9664,-4.893,-4.8306,-4.8306,-4.8306,-4.8196,-4.7406,-4.7003,-4.6746,-4.5957,-4.4492,-4.2973,-4.281,-4.1626,-4.0282,-4.0146,-4.0214,0.0,-4.0146,-4.0113,-4.0113,-4.0113,-3.961,-3.9069,-3.8935,-3.7844,-3.6751,-3.6475,-3.5399,-3.4444,-3.4174,-3.3245,-3.2437,-3.2318,-3.175,-3.1301,-3.1301,-3.0761,-3.0283,-3.0163,-2.9128,-2.8122,-2.7382,-2.6022,-2.491,-2.4178,-2.2984,-2.202,-2.1395,-2.0842,-2.044,-2.0239,-2.0614,-2.0666,-2.0214,-2.0109,-1.9594,-1.8754,-1.9613,-1.9802,-1.9333,-1.7974,-1.7746,0.0,0.0,0.0,0.0,0.0,0.0,0.0,0.0,0.0,0.0,0.0,-3.4118,-3.5944,0.0,-4.1295,-4.3718,-4.5443,-4.6911,-4.8122,-4.8306,-4.8306,-4.8306,-4.8306,-4.8306,-4.8306,-4.8673,-4.9114,-4.9574,-5.0345,-5.1006,-5.1389,-5.216,-5.2601,-5.2601,-5.3004,-5.3203,-5.3203,-5.3203,-5.3203,-5.3203,-5.3203,-5.3203,-5.3203,-5.3203,-5.3004,-5.2564,-5.216,-5.1756,-5.1316,-5.0088,-4.9353,-4.8893,-4.8489,-4.8306,-4.8269,-4.7846,-4.77,-4.7534,-4.6424,-4.5204,-4.397,-4.2891,-4.1688,-4.0561,-4.0214,-4.0113,-4.0113,-4.0113,-4.0113,-4.0113,-4.0113,-3.9506,-3.8799,-3.8442,-3.7469,-3.6508,-3.6134,-3.551,-3.4891,-3.4563,-3.3933,-3.3275,-3.2617,-3.2198,-3.1899,-3.154,-3.1212,-3.0881,-3.0552,-2.9953,-2.928,-2.8628,-2.6945,-2.574,-2.537,-2.3479,-2.2196,-2.192,-2.1421,-2.1094,-2.1094,-2.137,-2.1368,-2.1119,-2.1094,-2.0929,-2.06,-2.1478,-2.1902,-2.1829,-2.154,-2.1248,0.0,0.0,0.0,0.0,0.0,0.0,0.0,0.0,-3.2485,-3.4761,-3.6105,-3.7646,-4.012,-4.2029,-4.3864,-4.581,-4.6819,-4.7553,-4.8233,-4.8306,-4.8267,-4.8134,-4.8248,-4.8306,-4.8306,-4.9077,-4.9647,-4.9831,-5.1169,-5.205,-5.2197,-5.2858,-5.3203,-5.3203,-5.3203,-5.3203,-5.3203,-5.3203,-5.3203,-5.3203,-5.3203,-5.3203,-5.3203,-5.3203,-5.3203,-5.3188,-5.2527,-5.2123,-5.1903,-5.0602,-4.9867,-4.9537,-4.882,-4.8453,-4.8306,-4.8306,-4.8306,-4.8119,-4.6887,-4.5939,-4.5022,-4.3147,-4.1943,-4.1102,-4.0493,-4.0214,-4.0113,-4.0113,-4.0113,-4.0054,-3.9901,-3.9262,-3.8497,-3.7732,-3.6934,-3.6228,-3.5651,-3.5519,-3.534,-3.4771,-3.4593,-3.4174,-3.3066,-3.2677,-3.2258,-3.16,-3.1511,-3.1301,-3.0733,-3.0582,-3.0257,-2.9612,-2.774,-2.6405,-2.5976,-2.3901,-2.2598,-2.2443,-2.2046,-2.182,-2.182,-2.192,-2.197,-2.197,-2.1898,-2.206,-2.2476,-2.277,-2.3095,-2.3592,-2.4034,-2.386,-2.8162,-2.7199,-2.7283,-2.9182,-2.99,-3.141,0.0,0.0,-3.8248,-3.9921,-4.2049,-4.3534,-4.3167,-4.5002,-4.6636,-4.6929,-4.7626,-4.8196,-4.8306,-4.8306,-4.8094,-4.7554,-4.7995,-4.8306,-4.8306,-4.9077,-4.9904,-5.0618,-5.1499,-5.2307,-5.3041,-5.313,-5.3203,-5.3203,-5.3203,-5.3203,-5.3203,-5.3203,-5.3203,-5.3203,-5.3203,-5.3203,-5.3203,-5.3203,-5.3203,-5.3167,-5.3093,-5.2674,-5.1997,-5.1793,-5.0896,-4.961,-4.95,-4.8967,-4.8306,-4.8306,-4.8306,-4.8192,-4.7524,-4.639,-4.5163,-4.4391,-4.2817,-4.117,-4.1102,-4.0595,-4.0113,-4.0113,-4.0113,-3.9927,-3.9236,-3.8469,-3.7703,-3.6934,-3.6165,-3.5619,-3.5522,-3.5519,-3.5489,-3.54,-3.4891,-3.4444,-3.4324,-3.3275,-3.2258,-3.16,-3.1511,-3.1481,-3.1391,-3.0881,-3.021,-2.9407,-2.7989,-2.634,-2.4407,-2.4002,-2.3577,-2.3045,-2.2945,-2.292,-2.292,-2.3452,-2.3728,-2.3728,-2.3304,-2.3123,-2.3194,-2.2409,-2.2083,-2.215,-2.2196,-2.2615,-3.1306,-3.0852,-3.0876,-3.2081,-3.4045,-3.6327,-3.8809,-4.011,-4.1258,-4.2856,-4.4378,-4.5443,-4.559,-4.6801,-4.7773,0.0,-4.8067,-4.8306,-4.8306,-4.8306,-4.8229,-4.7975,-4.8134,-4.8153,-4.7797,-4.8882,-4.9941,-5.0729,-5.1536,-5.2344,-5.3188,-5.3203,-5.3203,-5.3203,-5.3203,-5.3203,-5.3203,-5.3203,-5.3203,-5.3203,-5.3203,-5.3203,-5.3203,-5.3203,-5.3203,-5.3203,-5.3203,-5.3004,-5.2674,-5.2197,-5.1573,-5.0896,-4.9978,-4.939,-4.9003,-4.8489,-4.8075,-4.7695,-4.7044,-4.6177,-4.5232,-4.4165,-4.2925,-4.1745,-4.1339,-4.0663,-4.0113,-4.0113,-4.0113,-3.9927,-3.9096,-3.8358,-3.7618,-3.6783,-3.6038,-3.5519,-3.5519,-3.5519,-3.5519,-3.5519,-3.528,-3.4951,-3.4563,-3.4054,-3.3305,-3.2228,-3.175,-3.1511,-3.1511,-3.1241,-3.0454,-2.8843,-2.8112,-2.6877,-2.4633,-2.4481,-2.4381,-2.4098,-2.4073,-2.4073,-2.4073,-2.4324,-2.4481,-2.4481,-2.3691,-2.3323,-2.3323,-2.2685,-2.2367,-2.239,-2.2693,-2.2719,-3.3152,-3.3389,-3.388,-3.4603,-3.736,-4.0079,-4.0776,-4.2175,-4.3761,-4.5077,-4.5993,-4.6728,-4.7333,-4.7883,-4.8306,-4.8306,-4.8306,-4.8306,-4.8306,-4.8306,-4.8248,-4.8075,-4.8209,-4.8055,-4.7449,-4.8741,-4.9941,-5.0729,-5.1536,-5.2344,-5.3188,-5.3203,-5.3203,-5.3203,-5.3203,-5.3203,-5.3203,-5.3203,-5.3203,-5.3203,-5.3203,-5.3203,-5.3203,-5.3203,-5.3203,-5.3203,-5.3203,-5.3203,-5.313,-5.2564,-5.2197,-5.1867,-5.0472,-4.9794,-4.95,-4.8636,-4.7935,-4.732,-4.6623,-4.6014,-4.5295,-4.4123,-4.3234,-4.2455,-4.1745,-4.0967,-4.0383,-4.018,-4.0113,-3.9876,-3.8854,-3.8189,-3.756,-3.6538,-3.5879,-3.5519,-3.5519,-3.5519,-3.5519,-3.5519,-3.5519,-3.534,-3.4831,-3.4623,-3.4114,-3.2946,-3.2198,-3.172,-3.154,-3.1102,-3.0096,-2.8271,-2.7841,-2.6993,-2.5181,-2.5034,-2.4951,-2.48,-2.48,-2.48,-2.48,-2.4926,-2.5034,-2.5034,-2.4207,-2.3783,-2.3783,-2.3198,-2.2772,-2.252,-2.2908,-2.2563,-3.253,-3.3376,-3.4832,-3.6344,-3.8871,-4.1301,-4.2595,-4.4542,-4.6266,-4.6908,-4.7663,-4.8233,-4.8269,-4.8269,-4.8306,-4.8306,-4.8306,-4.8306,-4.8306,-4.8306,-4.8075,-4.7491,-4.7919,-4.8055,0.0,-4.8741,-4.9941,-5.0729,-5.1536,-5.2344,-5.3188,-5.3203,-5.3203,-5.3203,-5.3203,-5.3203,-5.3203,-5.3203,-5.3203,-5.3203,-5.3203,-5.3203,-5.3203,-5.3203,-5.3203,-5.3203,-5.3203,-5.3203,-5.3203,-5.3167,-5.2711,-5.1903,-5.1096,-5.0288,-4.95,-4.8636,-4.7935,-4.732,-4.6623,-4.6014,-4.5399,-4.4769,-4.4012,-4.3234,-4.2489,-4.1745,-4.1035,-4.0316,-4.0113,-3.9747,-3.825,-3.7822,-3.7413,-3.5878,-3.5522,-3.5519,-3.5519,-3.5519,-3.5519,-3.5519,-3.5519,-3.5489,-3.5489,-3.4921,-3.4264,-3.3574,-3.2916,-3.2228,-3.16,-3.0086,-2.8748,-2.7808,-2.7002,-2.6291,-2.5611,-2.5561,-2.536,-2.4825,-2.48,-2.48,-2.48,-2.531,-2.5561,-2.5561,-2.5161,-2.4969,-2.4969,-2.3977,-2.2966,-2.2017,-2.2017,-2.1565,-3.4167,-3.5588,-3.7246,-3.9208,-4.1523,-4.3513,-4.444,-4.5853,-4.6801,-4.6054,-4.6473,-4.669,-4.5759,-4.6349,-4.6993,-4.6993,-4.7726,-4.8306,-4.8306,-4.8306,-4.8229,-4.8035,-4.819,0.0,0.0,0.0,0.0,-4.9921,-5.0729,-5.1536,-5.2344,-5.2931,-5.3203,-5.3203,-5.3203,-5.3203,-5.3203,-5.3203,-5.3203,-5.3203,-5.3203,-5.3203,-5.3203,-5.3203,-5.3203,-5.3203,-5.3203,-5.3203,-5.3203,-5.3203,-5.3041,-5.2711,-5.1903,-5.1096,-5.0288,-4.9444,-4.8109,-4.6692,-4.646,-4.6014,-4.5399,-4.4803,-4.4045,-4.3341,-4.3132,-4.2185,-4.117,-4.0899,-4.0485,-3.9714,-3.8222,-3.7793,-3.7413,-3.5878,-3.5519,-3.5519,-3.5519,-3.5519,-3.5519,-3.5519,-3.5519,-3.5519,-3.5519,-3.531,-3.4921,-3.4233,-3.2856,-3.1574,-3.0807,-3.0208,-2.9317,-2.7868,-2.7438,-2.6984,-2.6257,-2.6197,-2.6122,-2.5946,-2.5946,-2.5946,-2.5946,-2.6122,-2.6197,-2.6197,-2.5414,-2.4671,-2.4,-2.301,-2.2,-2.1088,-2.1088,-2.1054,-3.6231,-3.7922,-3.9546,-4.1508,-4.3234,-4.4656,-4.5338,-4.5925,-4.6064,-4.5088,-4.4828,-4.4498,-4.36,-4.4088,-4.4923,-4.5791,-4.6771,-4.7645,-4.8233,-4.8306,-4.8306,-4.8306,-4.8306,-4.8306,0.0,0.0,0.0,-4.9537,-5.0362,-5.1169,-5.194,-5.2747,-5.3203,-5.3203,-5.3203,-5.3203,-5.3203,-5.3203,-5.3203,-5.3203,-5.3203,-5.3203,-5.3203,-5.3203,-5.3203,-5.3203,-5.3203,-5.3203,-5.3203,-5.3203,-5.3203,-5.3093,-5.2307,-5.1499,-5.0672,-4.9647,-4.8215,-4.6728,-4.646,-4.5865,-4.5115,-4.472,-4.4248,-4.3775,-4.3504,-4.2733,-4.188,-4.1373,-4.0865,-4.0083,-3.8286,-3.7793,-3.7413,-3.5878,-3.5519,-3.5519,-3.5519,-3.5519,-3.5519,-3.5519,-3.5519,-3.5519,-3.5519,-3.531,-3.4981,-3.4563,-3.2881,-3.1332,-3.0306,-2.9986,-2.9192,-2.7438,-2.7263,-2.7061,-2.6533,-2.6499,-2.6499,-2.6499,-2.6499,-2.6499,-2.6499,-2.6499,-2.6499,-2.6499,-2.5511,-2.4671,-2.4036,-2.3047,-2.2038,-2.1088,-2.1287,-2.1292,-3.8497,-4.0189,-4.1677,-4.3105,-4.4045,-4.4748,-4.5285,-4.487,-4.4262,-4.3976,-4.2796,-4.1745,-4.1653,0.0,-4.2265,-4.4637,-4.555,-4.6507,-4.8086,-4.8306,-4.8306,0.0,0.0,0.0,0.0,0.0,0.0,-4.9537,0.0,-5.1169,-5.194,-5.2747,-5.3203,-5.3203,-5.3203,-5.3203,-5.3203,-5.3203,-5.3203,-5.3203,-5.3203,-5.3203,-5.3203,-5.3203,-5.3203,-5.3203,-5.3203,-5.3203,-5.3203,-5.3203,-5.3203,-5.3093,-5.2344,-5.1552,-5.0627,-4.9191,-4.8121,-4.727,-4.6589,-4.5597,-4.4637,-4.4615,-4.4615,-4.4479,-4.3707,-4.3409,-4.3105,-4.1711,-4.1271,-4.0687,-3.8448,-3.7825,-3.7413,-3.5878,-3.5519,-3.5519,-3.5519,-3.5519,-3.5519,-3.5519,-3.5519,-3.5519,-3.5519,-3.4951,-3.4532,-3.45,-3.3147,-3.1618,-3.0192,-2.9389,-2.8325,-2.6679,-2.6499,-2.6499,-2.6499,-2.6499,-2.6499,-2.6499,-2.6499,-2.6499,-2.6499,-2.6499,-2.6499,-2.6499,-2.5511,-2.4981,-2.4921,-2.395,-2.292,-2.1966,-2.2425,-2.2146,-4.002,-4.1711,-4.3064,-4.4045,-4.4445,-4.4473,-4.4028,-4.3752,-4.2975,-4.0796,-3.951,-3.8405,-3.7088,-3.8671,0.0,-4.2133,-4.4837,0.0,-4.8159,-4.8306,0.0,-4.8306,0.0,-4.8306,-4.8306,-4.8306,0.0,0.0,-5.0362,-5.1169,-5.194,-5.2747,-5.3203,-5.3203,-5.3203,-5.3203,-5.3203,-5.3203,-5.3203,-5.3203,-5.3203,-5.3203,-5.3203,-5.3203,-5.3203,-5.3203,-5.3203,-5.3203,-5.3203,-5.3203,-5.3203,-5.3167,-5.2968,-5.209,-5.0764,-4.9856,-4.8354,-4.671,-4.5974,-4.552,-4.5222,-4.4748,-4.4615,-4.4581,-4.435,-4.3876,-4.3308,-4.2936,-4.2049,-4.0822,-3.9059,-3.8235,-3.7413,-3.5878,-3.5519,-3.5519,-3.5519,-3.5519,-3.5519,-3.5519,-3.5519,-3.5519,-3.5519,-3.537,-3.4993,-3.4247,-3.3396,-3.2164,-3.0248,-2.9191,-2.8084,-2.6662,-2.6499,-2.6499,-2.6499,-2.6499,-2.6499,-2.6499,-2.6499,-2.6499,-2.6499,-2.6499,-2.6499,-2.6499,-2.5511,-2.4636,-2.3891,-2.321,-2.2369,-2.1412,-2.1909,-2.2122,-4.1644,-4.3031,-4.4045,-4.4513,-4.4316,-4.3775,-4.2692,-4.1887,-4.0583,-3.7644,-3.6124,-3.494,-3.3631,-3.5536,-3.8038,0.0,0.0,0.0,-4.8047,-4.8306,-4.8306,0.0,-4.8306,0.0,-4.882,-4.8857,-4.937,0.0,-5.0729,-5.1169,-5.194,-5.2747,-5.3203,-5.3203,-5.3203,-5.3203,-5.3203,-5.3203,-5.3203,-5.3203,-5.3203,-5.3203,-5.3203,-5.3203,-5.3203,-5.3203,0.0,-5.3203,-5.3203,-5.3203,-5.3203,-5.3203,-5.3203,-5.2237,-5.0803,-5.0139,-4.8498,-4.6515,-4.5814,-4.5363,-4.5035,-4.4692,-4.4615,-4.4615,-4.4615,-4.4282,-4.3842,-4.3477,-4.2801,-4.1661,-3.9476,-3.8587,-3.7822,-3.5938,-3.5519,-3.5519,-3.5519,-3.5519,-3.5519,-3.5519,-3.5519,-3.5519,-3.5519,-3.5133,-3.4643,-3.4081,-3.3008,-3.1757,-3.0351,-2.9179,-2.8074,-2.6981,-2.665,-2.6499,-2.6499,-2.6499,-2.6499,-2.6499,-2.6499,-2.6499,-2.6499,-2.6499,-2.6499,-2.6499,-2.5302,-2.4599,-2.4503,-2.3048,-2.2311,-2.2211,-2.2201,-2.2285,-4.32,-4.4079,-4.4615,-4.4615,-4.391,-4.2895,-4.1407,-3.9681,-3.7584,-3.4641,-3.2801,-3.1501,-3.0794,-3.2464,-3.5114,-3.8851,0.0,-4.4769,-4.7785,-4.8267,-4.8306,-4.8306,-4.8416,-4.8783,-4.9537,-4.9721,-5.0381,-5.1867,-5.1255,-5.1197,-5.2123,-5.2736,-5.3103,-5.3203,-5.3203,-5.3203,-5.3203,-5.3203,-5.3203,-5.3203,-5.3203,-5.3203,-5.3203,-5.3203,-5.3203,-5.3203,0.0,0.0,-5.3203,-5.3203,-5.3203,-5.3203,-5.3082,-5.2162,-5.082,-5.014,-4.8566,-4.6672,-4.5966,-4.5263,-4.475,-4.4649,-4.4615,-4.4615,-4.4615,-4.4615,-4.4479,-4.3775,-4.3422,-4.2596,-3.99,-3.8944,-3.8207,-3.6118,-3.5579,-3.5519,-3.5519,-3.5519,-3.5519,-3.5519,-3.5519,-3.5519,-3.5519,-3.4643,-3.3945,-3.3842,-3.2307,-3.0972,-3.0414,-2.9293,-2.8274,-2.75,-2.7002,-2.6725,-2.6725,-2.6725,-2.6725,-2.6725,-2.6725,-2.6725,-2.6725,-2.6725,-2.6725,-2.6725,-2.5269,-2.492,-2.5701,-2.3496,-2.2737,-2.3366,-2.3161,-2.2961,-4.4113,-4.4513,-4.4615,-4.4615,-4.3538,-4.2117,-4.0603,-3.7686,0.0,0.0,-3.0074,-2.8455,-2.8044,-3.0387,-3.3543,-3.7066,-4.0647,-4.4058,-4.7135,-4.7995,-4.8306,0.0,-4.893,-4.9427,0.0,0.0,0.0,0.0,0.0,-5.15,-5.2926,-5.2549,-5.2576,-5.3203,-5.3203,-5.3203,-5.3203,-5.3203,-5.3203,-5.3203,-5.3203,-5.3203,-5.3203,-5.3203,-5.3203,-5.3203,-5.3203,0.0,-5.3203,-5.3203,-5.3203,-5.3124,-5.2531,-5.179,-5.0906,-4.959,-4.8471,-4.7475,-4.6138,-4.5635,-4.5399,-4.4818,-4.4615,-4.4615,-4.4615,-4.4615,-4.4581,-4.4418,-4.3427,-4.2137,-4.0945,-3.9249,-3.756,-3.6592,-3.5908,-3.5519,-3.5519,-3.5519,-3.5519,-3.5519,-3.5519,-3.5519,-3.5519,-3.4643,-3.3739,-3.2947,-3.1938,-3.0906,-3.0012,-2.9277,-2.8596,-2.7996,-2.7871,-2.7821,-2.7821,-2.7821,-2.7821,-2.7821,-2.7821,-2.7821,-2.7821,-2.7821,-2.7821,-2.7821,-2.6745,-2.5844,-2.514,-2.5125,-2.4276,-2.272,-2.4807,-2.5313,-4.4378,-4.4615,-4.4513,-4.4079,-4.2828,-4.1035,-3.8338,0.0,0.0,-2.9465,-2.7672,-2.6606,-2.6425,-2.8613,0.0,-3.4618,-3.7841,-4.1279,-4.5156,-4.6115,0.0,-4.8159,-4.9077,0.0,0.0,0.0,0.0,0.0,0.0,-5.2005,-5.3146,-5.2835,-5.2813,-5.3203,-5.3203,-5.3203,-5.3203,-5.3203,-5.3203,-5.3203,-5.3203,-5.3203,-5.3203,-5.3203,-5.3203,-5.3203,-5.3203,0.0,-5.3203,-5.3203,-5.3203,-5.3146,-5.2791,-5.2018,-5.1025,-5.0294,-4.913,-4.7736,-4.665,-4.6007,-4.5568,-4.4852,-4.4615,-4.4615,-4.4615,-4.4615,-4.4615,-4.4615,-4.3709,-4.2485,-4.1303,-3.985,-3.8294,-3.686,-3.5998,-3.5519,-3.5519,-3.5519,-3.5519,-3.5519,-3.5519,-3.5519,-3.5519,-3.4643,-3.3671,-3.2735,-3.1829,-3.0857,-2.9934,-2.9553,-2.9151,-2.8599,-2.8273,-2.8097,-2.8097,-2.8097,-2.8097,-2.8097,-2.8097,-2.8097,-2.8097,-2.8097,-2.8097,-2.8097,-2.7354,-2.6688,-2.6209,-2.616,-2.5634,-2.4619,-2.5917,-2.6235,-4.4378,-4.4615,-4.4412,-4.3606,-4.2185,-4.002,-3.6411,-3.3525,0.0,-2.7165,-2.5744,-2.5135,-2.5135,-2.686,-2.9258,0.0,-3.4969,-3.8356,-4.3212,-4.4433,-4.5663,0.0,-4.9077,0.0,0.0,0.0,0.0,0.0,0.0,0.0,-5.2937,-5.2959,-5.306,-5.3203,-5.306,-5.2959,-5.2959,-5.2959,-5.2959,-5.2959,-5.3124,-5.3203,-5.3203,-5.3203,-5.3203,-5.3203,-5.3203,0.0,0.0,-5.3203,-5.3203,-5.3146,-5.2872,-5.2078,-5.106,-5.0743,-4.9573,-4.8037,-4.709,-4.6413,-4.5805,-4.4886,-4.4615,-4.4615,-4.4615,-4.4615,-4.4615,-4.4615,-4.3827,-4.2764,-4.1529,-4.0319,-3.8925,-3.6977,-3.6088,-3.5669,-3.5519,-3.5519,-3.5519,-3.5519,-3.5519,-3.5519,-3.5519,-3.4643,-3.3671,-3.2735,-3.1829,-3.0857,-2.9934,-2.9804,-2.9628,-2.9113,-2.8725,-2.8473,-2.8473,-2.8473,-2.8473,-2.8473,-2.8473,-2.8473,-2.8473,-2.8473,-2.8473,-2.8473,-2.8031,-2.7723,-2.7489,-2.7295,-2.6976,-2.6524,-2.6976,-2.7098,-4.4378,-4.4615,-4.4412,-4.3606,-4.1779,-3.9402,-3.6276,0.0,-2.8637,-2.6218,-2.4594,-2.3613,-2.3613,-2.4864,-2.7114,-3.0779,-3.3237,-3.6658,-4.237,-4.434,-4.5942,-4.8028,0.0,0.0,0.0,0.0,0.0,0.0,0.0,0.0,-5.2229,-5.2183,-5.2531,-5.3203,-5.2554,-5.2183,-5.2183,-5.2183,-5.2183,-5.2206,-5.2893,-5.3203,-5.3203,-5.3203,-5.3203,-5.3203,-5.3203,0.0,0.0,-5.3203,-5.3203,-5.3082,-5.1801,-5.1215,-5.0955,-4.9669,-4.9073,-4.8714,-4.7293,-4.6752,-4.6447,-4.5055,-4.4615,-4.4615,-4.4615,-4.4615,-4.4615,-4.4615,-4.341,-4.2077,-4.1949,-4.0233,-3.8167,-3.681,-3.6447,-3.6237,-3.5639,-3.5519,-3.5519,-3.5519,-3.5519,-3.5519,-3.5519,-3.4643,-3.3671,-3.2735,-3.1829,-3.0857,-2.9934,-2.9804,-2.9779,-2.9704,-2.9654,-2.9628,-2.9628,-2.9628,-2.9628,-2.9628,-2.9628,-2.9628,-2.9628,-2.9628,-2.9628,-2.9628,-2.9601,-2.9071,-2.8012,-2.9003,-2.845,-2.6565,-2.8554,-2.8949,-4.3436,-4.4215,-4.431,-4.3064,-4.1068,-3.8531,-3.5081,-3.1157,-2.7638,-2.5406,-2.3748,-2.2868,-2.3308,-2.3883,-2.5338,-2.8601,-3.0125,-3.2721,-3.8135,-4.0469,-4.2741,0.0,0.0,0.0,0.0,0.0,0.0,0.0,0.0,0.0,-5.2112,-5.2112,-5.2229,-5.2531,-5.1874,-5.1692,-5.2112,-5.2112,-5.2335,-5.2769,-5.306,-5.3203,-5.3203,-5.3203,-5.3203,-5.3203,-5.3203,0.0,0.0,-5.3203,-5.3203,-5.3103,-5.2089,-5.1444,-5.0981,-4.9947,-4.9346,-4.8849,-4.7834,-4.7158,-4.6616,-4.5602,-4.4959,-4.4615,-4.4615,-4.4615,-4.4615,-4.4615,-4.335,-4.1981,-4.1981,-4.0197,-3.8272,-3.7734,-3.7045,-3.6417,-3.6148,-3.5789,-3.5519,-3.5519,-3.5519,-3.5519,-3.5519,-3.5166,-3.4375,-3.2806,-3.2272,-3.1499,-3.0011,-2.9804,-2.9804,-2.9804,-2.9804,-2.9804,-2.9804,-2.9804,-2.9804,-2.9804,-2.9804,-2.9804,-2.9804,-2.9804,-2.9804,-2.9804,-2.9804,-2.9248,-2.8084,-2.9248,-2.8988,-2.7481,-2.9067,-2.9585,-4.2151,-4.3335,-4.3633,-4.2286,-4.029,-3.7686,-3.3931,-3.0326,-2.7114,-2.4677,-2.3173,-2.2448,-2.297,-2.3241,-2.4222,-2.6742,-2.7998,-3.0472,-3.5741,-3.7936,0.0,0.0,0.0,0.0,0.0,0.0,0.0,0.0,0.0,0.0,0.0,-5.1716,-5.1593,-5.179,-5.1138,-5.1112,-5.179,-5.179,-5.2136,-5.2893,-5.3103,-5.3203,-5.3203,-5.3203,-5.3203,-5.3203,0.0,0.0,0.0,-5.2658,-5.259,-5.2486,-5.1777,-5.1189,-5.0689,-4.9947,-4.9402,-4.8883,-4.8173,-4.7428,-4.6684,-4.594,-4.5196,-4.4615,-4.4615,-4.4615,-4.4615,-4.4615,-4.335,-4.1853,-4.1362,-3.9941,-3.8631,-3.8452,-3.7704,-3.6985,-3.6806,-3.6267,-3.5789,-3.5789,-3.5639,-3.5519,-3.5519,-3.5519,-3.4839,-3.2876,-3.2593,-3.1938,-3.0049,-2.9804,-2.9804,-2.9804,-2.9804,-2.9804,-2.9804,-2.9804,-2.9804,-2.9804,-2.9804,-2.9804,-2.9804,-2.9804,-2.9804,-2.9804,-2.9804,-2.9404,-2.8585,-2.9404,-2.9404,-2.8648,-2.9443,-2.9804,-4.0629,-4.1745,-4.2151,-4.1407,-3.9546,-3.6941,-3.3173,-2.9973,-2.6979,-2.4019,-2.2835,-2.2313,-2.2313,-2.2902,-2.3883,-2.5372,-2.752,-3.0951,-3.6612,-3.8036,0.0,0.0,0.0,0.0,0.0,0.0,0.0,0.0,0.0,0.0,0.0,-5.0796,-5.0335,-5.1086,-5.039,-5.0362,-5.1112,-5.1112,-5.1444,-5.2112,-5.2872,-5.3203,-5.3203,-5.3203,-5.3203,0.0,0.0,0.0,0.0,-5.1393,-5.1112,-5.1034,-5.0307,-5.0033,-4.9919,-4.9256,-4.9018,-4.8883,-4.8173,-4.7428,-4.6684,-4.594,-4.5196,-4.4615,-4.4615,-4.4615,-4.4615,-4.4615,-4.335,-4.1625,-3.9879,-3.9409,-3.923,-3.8542,-3.8392,-3.8182,-3.7524,-3.6926,-3.6477,-3.6477,-3.5938,-3.5519,-3.5519,-3.5519,-3.4839,-3.2876,-3.2593,-3.1938,-3.0049,-2.9804,-2.9804,-2.9804,-2.9804,-2.9804,-2.9804,-2.9804,-2.9804,-2.9804,-2.9804,-2.9804,-2.9804,-2.9804,-2.9804,-2.9804,-2.9804,-2.9779,-2.9779,-2.9779,-2.9779,-2.9779,-2.9779,-2.9804,-3.7053,-3.8328,-3.887,-3.7077,-3.5318,-3.3376,-3.0668,-2.8112,-2.5728,-2.3816,-2.2801,-2.2313,-2.2313,-2.2496,-2.3816,-2.7351,-2.8536,-3.074,0.0,0.0,0.0,0.0,0.0,0.0,0.0,0.0,0.0,0.0,0.0,0.0,0.0,-5.0527,-5.0118,-5.0335,-4.9664,-4.9634,-5.0335,-5.0335,-5.0955,-5.2112,-5.1874,-5.2266,-5.3182,-5.2196,0.0,0.0,0.0,0.0,0.0,-5.1189,-5.1086,-5.1034,-5.0279,-5.0004,-4.9919,-4.9226,-4.9018,-4.8984,-4.8748,-4.7834,-4.6752,-4.6515,-4.5602,-4.4615,-4.4615,-4.4615,-4.4355,-4.3169,-4.2426,-4.1625,-3.9844,-3.9373,-3.9379,-3.914,-3.8721,-3.8332,-3.8123,-3.7584,-3.7135,-3.7135,-3.6596,-3.6178,-3.6178,-3.5789,-3.4839,-3.2876,-3.2593,-3.1938,-3.0049,-2.9804,-2.9804,-2.9804,-2.9804,-2.9804,-2.9804,-2.9804,-2.9804,-2.9804,-2.9804,-2.9804,-2.9804,-2.9804,-2.9804,-2.9804,-2.9804,-2.9804,-2.9804,-2.9804,-2.9804,-2.9804,-2.9804,-2.9804,-3.3786,-3.525,-3.5814,-3.4185,-3.2664,-3.0945,-2.8562,-2.6598,-2.4811,-2.3085,-2.2498,-2.2313,-2.2313,-2.253,-2.3714,-2.6809,-2.7994,-3.0135,0.0,0.0,0.0,0.0,0.0,0.0,0.0,0.0,0.0,0.0,0.0,0.0,0.0,-5.0004,-4.9605,-4.9605,-4.9195,-4.9316,-5.0004,-5.0004,-5.0716,-5.2089,-5.1419,-5.1703,-5.2747,-5.1629,0.0,0.0,0.0,0.0,0.0,-5.0425,-5.0314,-5.0258,-4.9809,-4.9605,-4.958,-4.9168,-4.9018,-4.9018,-4.9018,-4.8037,-4.6786,-4.6786,-4.5771,-4.4615,-4.4615,-4.4615,-4.4327,-4.2892,-4.2269,-4.1658,-4.0239,-3.9631,-3.9373,-3.9373,-3.908,-3.8781,-3.8781,-3.8242,-3.7793,-3.7793,-3.7255,-3.6836,-3.6836,-3.6477,-3.5486,-3.3302,-3.2988,-3.2218,-3.0075,-2.9804,-2.9804,-2.9804,-2.9804,-2.9804,-2.9804,-2.9804,-2.9804,-2.9804,-2.9804,-2.9804,-2.9804,-2.9804,-2.9804,-2.9804,-2.9804,-2.9804,-2.9804,-2.9804,-2.9804,-2.9804,-2.9804,-2.9905,0.0,-3.2286,-3.2778,-3.2142,-3.0952,-2.9255,-2.6665,-2.5356,0.0,-2.2009,-2.1974,-2.2313,-2.2462,-2.297,-2.3729,-2.4745,-2.6657,-2.9549,0.0,0.0,0.0,0.0,0.0,0.0,0.0,0.0,0.0,0.0,0.0,0.0,0.0,-4.9342,-4.9018,-4.9018,-4.9018,-4.9316,-4.9919,-4.9919,-5.0608,-5.1934,-5.1266,-5.1343,-5.2018,-5.1292,0.0,0.0,0.0,0.0,0.0,-4.9256,-4.9018,-4.9018,-4.9018,-4.9018,-4.9018,-4.9018,-4.9018,-4.9018,-4.9018,-4.8037,-4.6786,-4.6684,-4.5732,-4.4615,-4.4615,-4.4615,-4.4412,-4.3562,-4.2676,-4.1788,-4.0927,-4.006,-3.9373,-3.9373,-3.9373,-3.9373,-3.9373,-3.8901,-3.8452,-3.8452,-3.7943,-3.7494,-3.7494,-3.7434,-3.6551,-3.4116,-3.3706,-3.2779,-3.0342,-2.9957,-2.9854,-2.9854,-2.9804,-2.9804,-2.9804,-2.9804,-2.9804,-2.9804,-2.9804,-2.9804,-2.9804,-2.9804,-2.9804,-2.9804,-2.9804,-2.9804,-2.9804,-2.9829,-2.9854,-2.9854,-2.9905,-3.0181,-2.5375,0.0,-2.7888,-2.6323,-2.5669,-2.5036,0.0,-2.316,-2.2897,-2.1827,-2.1974,-2.2617,-2.3763,-2.3661,-2.4594,-2.8213,-2.9702,-3.1711,0.0,0.0,0.0,0.0,0.0,0.0,0.0,0.0,0.0,0.0,0.0,0.0,0.0,-4.9342,-4.9018,-4.9018,-4.9018,-4.9077,-4.9226,-4.9226,-4.9634,-5.05,-4.9809,-5.0146,-5.1292,-5.0033,0.0,0.0,0.0,0.0,-4.9226,-4.9046,-4.9018,-4.9018,-4.9018,-4.9018,-4.9018,-4.9018,-4.9018,-4.9018,-4.9018,-4.8037,-4.6616,-4.5495,-4.4886,-4.4615,-4.4615,-4.4615,-4.4412,-4.3562,-4.2676,-4.1788,-4.0927,-4.006,-3.9373,-3.9373,-3.9373,-3.9373,-3.9373,-3.929,-3.917,-3.917,-3.8631,-3.8153,-3.8153,-3.7734,-3.6936,-3.564,-3.475,-3.3728,-3.241,-3.1147,-3.0407,-3.0407,-3.0055,-2.9804,-2.9804,-2.9804,-2.9804,-2.9804,-2.9804,-2.9804,-2.9804,-2.9804,-2.9804,-2.9804,-2.9804,-2.9804,-2.9804,-3.0206,-3.0407,-3.0432,-3.0834,-3.1085,-2.2394,-2.458,-2.6387,-2.516,-2.4859,-2.4541,-2.3342,-2.2866,-2.2437,-2.1761,-2.1974,-2.2665,-2.3797,-2.3966,-2.5033,-2.8466,-3.0277,0.0,0.0,0.0,0.0,0.0,0.0,0.0,0.0,0.0,0.0,0.0,0.0,0.0,0.0,-4.8175,-4.8139,-4.8477,-4.8511,-4.868,-4.9018,-4.9018,-4.9346,-5.0004,-4.9316,-4.9551,-5.0554,-4.9149,-4.8689,0.0,0.0,0.0,-4.8003,-4.8003,-4.8206,-4.8511,-4.8511,-4.8714,-4.9018,-4.9018,-4.9018,-4.9018,-4.9018,-4.8037,-4.6549,-4.5089,-4.4615,-4.4615,-4.4615,-4.4615,-4.4497,-4.4035,-4.2953,-4.1885,-4.1396,-4.0343,-3.9373,-3.9373,-3.9373,-3.9373,-3.9373,-3.9373,-3.9373,-3.9373,-3.911,-3.8871,-3.8871,-3.8571,-3.7896,-3.6621,-3.598,-3.4974,-3.3235,-3.2228,-3.1493,-3.0999,-3.0708,-3.0532,-3.0532,-3.0532,-3.0306,-2.9829,-2.9804,-2.9804,-2.9804,-2.9804,-2.9804,-2.9804,-2.9804,-2.9905,-3.0181,-3.0457,-3.0733,-3.0984,-3.126,-3.1512,-2.1391,-2.4149,-2.6623,-2.5574,-2.5601,-2.5494,-2.418,-2.3223,-2.2439,-2.1893,-2.2155,-2.2753,-2.3714,-2.4609,0.0,0.0,0.0,0.0,0.0,0.0,0.0,0.0,0.0,0.0,0.0,0.0,0.0,0.0,0.0,0.0,0.0,-4.6786,-4.709,-4.7733,-4.7733,-4.8037,-4.8646,-4.8883,-4.9286,-4.9833,-4.9256,-4.9248,-4.9631,-4.8439,-4.7838,0.0,0.0,0.0,-4.6786,-4.6786,-4.7158,-4.7736,-4.7838,-4.8277,-4.8849,-4.8951,-4.9018,-4.8984,-4.8748,-4.7834,-4.6549,-4.5089,-4.4615,-4.4615,-4.4615,-4.4615,-4.4615,-4.4615,-4.335,-4.1981,-4.1981,-4.0721,-3.9373,-3.9373,-3.9373,-3.9373,-3.9373,-3.9373,-3.9373,-3.9373,-3.9373,-3.9373,-3.9373,-3.9373,-3.8948,-3.7594,-3.7221,-3.6212,-3.3802,-3.3277,-3.2711,-3.1634,-3.1436,-3.1386,-3.1386,-3.1386,-3.1009,-3.0105,-2.9955,-2.9905,-2.9905,-3.0005,-3.003,-3.003,-3.003,-3.0256,-3.0733,-3.0809,-3.1085,-3.1512,-3.1612,-3.1888,-2.3258,-2.5654,-2.6775,-2.3173,-2.372,-2.4691,-2.2843,-2.2557,-2.2649,-2.255,-2.2906,-2.3849,-2.5812,-2.7351,-2.9044,0.0,0.0,0.0,0.0,0.0,0.0,0.0,0.0,0.0,0.0,0.0,0.0,0.0,0.0,0.0,0.0,0.0,-4.6853,-4.6955,-4.6955,-4.7022,-4.7124,-4.8376,-4.9046,-4.9168,-4.9046,-4.8741,-4.8222,-4.8,-4.7564,0.0,0.0,-4.6786,-4.6786,-4.6786,-4.6853,-4.7022,-4.7665,-4.7973,-4.8142,-4.8781,-4.9018,-4.8815,-4.7564,-4.6989,-4.6549,-4.5089,-4.4615,-4.4615,-4.4615,-4.4615,-4.4615,-4.4615,-4.335,-4.1981,-4.1981,-4.0721,-3.9373,-3.9373,-3.9373,-3.9373,-3.9373,-3.9373,-3.9373,-3.9373,-3.9373,-3.9373,-3.9373,-3.9373,-3.9307,-3.9079,-3.8288,-3.7225,-3.5884,-3.4512,-3.3285,-3.2189,-3.1662,-3.1386,-3.1386,-3.1386,-3.1311,-3.116,-3.0733,-3.0482,-3.0482,-3.0909,-3.1135,-3.1135,-3.1135,-3.1185,-3.126,-3.1738,-3.2014,-3.2089,-3.2591,-3.2867,-2.2192,-2.4343,-2.5882,-2.4176,-2.5782,-2.7438,-2.6126,-2.533,-2.4844,-2.4844,-2.5023,-2.5744,0.0,0.0,-3.1326,-3.4776,0.0,0.0,0.0,0.0,0.0,0.0,0.0,0.0,0.0,0.0,0.0,0.0,0.0,0.0,0.0,0.0,-4.5771,-4.6177,-4.621,-4.638,-4.6786,-4.7462,-4.8003,-4.8409,-4.8003,-4.7834,-4.7872,-4.709,-4.6549,-4.6177,0.0,-4.5602,-4.5602,-4.5602,-4.5838,-4.6244,-4.6583,-4.7196,-4.7973,-4.8748,-4.9018,-4.8849,-4.7767,-4.7124,-4.6616,-4.5534,-4.4925,-4.4615,-4.4615,-4.4615,-4.4615,-4.4615,-4.335,-4.1981,-4.1981,-4.0721,-3.9373,-3.9373,-3.9373,-3.9373,-3.9373,-3.9373,-3.9373,-3.9373,-3.9373,-3.9373,-3.9373,-3.9373,-3.9373,-3.9373,-3.898,-3.8256,-3.7214,-3.5884,-3.4714,-3.3664,-3.2793,-3.229,-3.229,-3.229,-3.2039,-3.1436,-3.116,-3.1035,-3.1035,-3.126,-3.1386,-3.1386,-3.1386,-3.1537,-3.1838,-3.2089,-3.2365,-3.2692,-3.2943,-3.3111,-2.1722,-2.36,-2.5444,-2.6219,-2.801,-2.9567,-2.9517,-2.8333,-2.7385,-2.7909,-2.7893,-2.8163,0.0,-3.1413,0.0,0.0,0.0,0.0,0.0,0.0,0.0,0.0,0.0,0.0,0.0,0.0,0.0,0.0,0.0,0.0,0.0,0.0,-4.4886,-4.5432,-4.5432,-4.5703,-4.6278,-4.6278,-4.6752,-4.7665,-4.7056,-4.7022,-4.7361,-4.621,-4.5602,-4.5399,-4.4852,-4.4615,-4.4615,-4.4615,-4.4925,-4.5466,-4.5635,-4.6616,-4.7973,-4.8545,-4.8849,-4.8883,-4.8173,-4.753,-4.6955,-4.621,-4.5466,-4.4886,-4.4886,-4.475,-4.4649,-4.4818,-4.3614,-4.2205,-4.2045,-4.0721,-3.9373,-3.9373,-3.9373,-3.9373,-3.9373,-3.9373,-3.9373,-3.9373,-3.9559,-3.9649,-3.9649,-3.9768,-3.9888,-3.9888,-3.9888,-3.9387,-3.8016,-3.713,-3.6171,-3.4821,-3.3938,-3.3395,-3.3294,-3.3144,-3.2759,-3.1838,-3.1662,-3.1587,-3.1587,-3.1712,-3.1788,-3.1788,-3.1788,-3.1989,-3.2416,-3.2416,-3.2641,-3.3111,-3.3219,-3.3269,-2.4313,-2.5491,-2.6474,-2.8293,-2.8349,-2.85,-3.0581,-2.989,-2.9416,-3.1481,-3.1345,-3.1123,0.0,-3.4979,0.0,0.0,0.0,0.0,0.0,0.0,0.0,0.0,0.0,0.0,0.0,0.0,0.0,0.0,0.0,0.0,0.0,0.0,0.0,-4.4682,-4.4682,-4.4716,-4.475,-4.475,-4.5466,-4.6887,-4.6819,-4.6481,-4.5872,-4.5771,-4.5331,-4.4682,-4.4615,-4.4615,-4.4615,-4.4615,-4.4649,-4.475,-4.5432,-4.6616,-4.7906,-4.7939,-4.8409,-4.8883,-4.8173,-4.7872,-4.7699,-4.6955,-4.621,-4.5635,-4.5635,-4.5128,-4.475,-4.5432,-4.4342,-4.2781,-4.2173,-4.0721,-3.9373,-3.9373,-3.9373,-3.9373,-3.9373,-3.9373,-3.9373,-3.9373,-3.9918,-4.0337,-4.0337,-4.0846,-4.1272,-4.1272,-4.1272,-4.045,-3.8254,-3.7965,-3.713,-3.4933,-3.4645,-3.4399,-3.3872,-3.337,-3.3043,-3.3011,-3.2441,-3.2164,-3.2164,-3.2667,-3.3011,-3.3011,-3.3011,-3.3011,-3.3061,-3.3061,-3.3086,-3.3136,-3.3596,-3.3847,-2.2843,-2.4428,-2.6081,-2.7817,-2.9093,-3.0243,-3.1562,-3.2158,-3.2936,-3.473,-3.49,-3.4912,-3.5656,0.0,0.0,0.0,0.0,0.0,0.0,0.0,0.0,0.0,0.0,0.0,0.0,0.0,0.0,0.0,0.0,0.0,0.0,0.0,0.0,-4.4615,-4.4615,-4.4615,-4.4615,-4.4615,-4.4886,-4.5427,-4.5427,-4.5534,-4.5703,-4.5229,-4.4857,-4.4615,-4.4615,-4.4615,-4.4615,-4.4615,-4.4615,-4.4716,-4.5906,-4.6718,-4.7327,-4.824,-4.8781,-4.8951,-4.868,-4.8277,-4.7838,-4.7597,-4.6989,-4.638,-4.638,-4.6177,-4.6007,-4.6312,-4.5067,-4.3612,-4.3389,-4.1961,-4.0636,-4.0636,-4.0636,-4.0636,-4.0636,-4.0636,-4.0636,-4.0636,-4.0846,-4.0995,-4.0995,-4.1205,-4.1422,-4.1422,-4.1422,-4.1088,-4.0217,-3.8883,-3.7729,-3.6882,-3.5569,-3.465,-3.4424,-3.4223,-3.4098,-3.4098,-3.3244,-3.2742,-3.2742,-3.2968,-3.3111,-3.3111,-3.3111,-3.3111,-3.3111,-3.342,-3.3596,-3.3596,-3.4148,-3.4399,-2.2008,-2.3654,-2.5648,-2.7183,-2.9387,-3.163,-3.3343,-3.4493,-3.5791,-3.7777,-3.8014,-3.8014,-3.8497,0.0,0.0,0.0,0.0,0.0,0.0,0.0,0.0,0.0,0.0,0.0,0.0,0.0,0.0,0.0,0.0,0.0,0.0,0.0,0.0,0.0,-4.4615,-4.4615,-4.4615,-4.4615,-4.4615,-4.4615,-4.4615,-4.4857,-4.5331,-4.4852,-4.4615,-4.4615,-4.4615,-4.4615,-4.4615,-4.4615,-4.4615,-4.4716,-4.5703,-4.638,-4.6921,-4.7936,-4.8612,-4.9018,-4.9018,-4.868,-4.8274,-4.8274,-4.7767,-4.7158,-4.7158,-4.6989,-4.6853,-4.709,-4.5825,-4.4443,-4.4701,-4.3113,-4.1422,-4.1422,-4.1422,-4.1422,-4.1422,-4.1422,-4.1422,-4.1422,-4.1602,-4.1722,-4.1722,-4.1863,-4.2013,-4.2013,-4.2013,-4.1867,-4.1488,-4.0089,-3.8866,-3.8148,-3.6215,-3.4931,-3.4931,-3.4781,-3.468,-3.468,-3.4022,-3.352,-3.3345,-3.3345,-3.3345,-3.3345,-3.3345,-3.342,-3.3596,-3.3972,-3.4148,-3.4173,-3.468,-3.4931,-2.2504,-2.3633,-2.5356,-2.6774,-2.9211,-3.2205,-3.5949,-3.6829,-3.7675,-4.0595,-4.0629,-4.0121,-4.0096,-4.013,0.0,0.0,0.0,0.0,0.0,0.0,0.0,0.0,0.0,0.0,0.0,0.0,0.0,0.0,0.0,0.0,0.0,0.0,0.0,0.0,-4.4615,-4.4615,-4.4615,-4.4615,-4.4615,-4.4615,-4.4615,-4.4615,-4.4615,-4.4615,-4.4615,-4.4615,-4.4615,-4.4615,-4.4615,-4.4615,-4.4615,-4.4615,-4.4615,-4.5529,-4.6786,-4.6819,-4.7733,-4.9018,-4.9018,-4.9018,-4.9018,-4.9018,-4.8511,-4.7906,-4.7906,-4.7394,-4.6955,-4.7699,-4.6551,-4.5275,-4.6013,-4.3831,-4.1414,-4.1414,-4.1414,-4.1414,-4.1414,-4.1414,-4.1414,-4.1414,-4.1961,-4.241,-4.241,-4.291,-4.329,-4.329,-4.329,-4.29,-4.1753,-4.1587,-4.0718,-3.8379,-3.657,-3.5508,-3.5508,-3.5006,-3.4751,-3.4751,-3.4751,-3.4474,-3.3922,-3.3897,-3.3897,-3.3897,-3.3897,-3.4173,-3.468,-3.4726,-3.4726,-3.4705,-3.5257,-3.5508,-2.2245,-2.4076,-2.6489,-2.8055,-3.1395,-3.4856,-3.7077,-3.8386,-3.9808,-4.2252,-4.2591,-4.2117,-4.1068,0.0,0.0,0.0,0.0,0.0,0.0,0.0,0.0,0.0,0.0,0.0,0.0,0.0,0.0,0.0,0.0,0.0,0.0,0.0,0.0,0.0,-4.4615,-4.4615,-4.4615,-4.4615,-4.4615,-4.4615,-4.4615,-4.4615,-4.4615,-4.4615,-4.4615,-4.4615,-4.4615,-4.4615,-4.4615,-4.4615,-4.4615,-4.4649,-4.5162,-4.594,-4.6853,-4.7394,-4.8206,-4.9018,-4.9018,-4.9018,-4.9018,-4.9018,-4.8849,-4.868,-4.868,-4.8511,-4.8376,-4.8612,-4.7309,-4.5917,-4.6144,-4.4508,-4.2761,-4.2761,-4.2761,-4.2761,-4.2761,-4.2761,-4.2761,-4.2761,-4.291,-4.303,-4.303,-4.317,-4.329,-4.329,-4.329,-4.29,-4.1753,-4.1587,-4.0718,-3.8379,-3.7658,-3.6985,-3.62,-3.5981,-3.5881,-3.5881,-3.5881,-3.5454,-3.4525,-3.4474,-3.4474,-3.4474,-3.4474,-3.455,-3.468,-3.5056,-3.5257,-3.5282,-3.5855,-3.6107,-2.2697,-2.4869,-2.7683,-2.9595,-3.2662,-3.5709,-3.7823,-3.9469,-4.1068,0.0,-4.2902,-4.2252,-4.1373,0.0,0.0,0.0,0.0,0.0,0.0,0.0,0.0,0.0,0.0,0.0,0.0,0.0,0.0,0.0,0.0,0.0,0.0,0.0,0.0,0.0,-4.4615,-4.4615,-4.4615,-4.4615,-4.4615,-4.4615,-4.4615,-4.4615,-4.4615,-4.4615,-4.4615,-4.4615,-4.4615,-4.4615,-4.4615,-4.4615,-4.4615,-4.4649,-4.5094,-4.5703,-4.6413,-4.6887,-4.7699,-4.8578,-4.8578,-4.8748,-4.9018,-4.9018,-4.9018,-4.9018,-4.9018,-4.9018,-4.9018,-4.9018,-4.7671,-4.6208,-4.6208,-4.475,-4.329,-4.329,-4.329,-4.329,-4.329,-4.329,-4.329,-4.329,-4.329,-4.329,-4.329,-4.329,-4.329,-4.329,-4.329,-4.3021,-4.2386,-4.1906,-4.0887,-3.9006,-3.8379,-3.7815,-3.715,-3.6662,-3.6593,-3.7057,-3.6662,-3.6103,-3.5403,-3.5152,-3.5006,-3.5006,-3.5006,-3.5152,-3.5378,-3.5705,-3.5881,-3.5881,-3.6207,-3.6531,-2.3532,-2.582,-2.8711,-3.1158,-3.3283,-3.5549,-3.837,-3.9962,-4.1324,-4.2888,0.0,-4.1271,-4.1204,0.0,0.0,0.0,0.0,0.0,0.0,0.0,0.0,0.0,0.0,0.0,0.0,0.0,0.0,0.0,0.0,0.0,0.0,0.0,0.0,-4.4615,-4.4615,-4.4615,-4.4615,-4.4615,-4.4615,0.0,-4.4615,-4.4615,-4.4615,-4.4615,-4.4615,-4.4615,-4.4615,-4.4615,-4.4615,-4.4615,-4.4615,-4.4615,-4.4615,-4.5026,-4.5703,-4.5703,-4.6583,-4.7804,-4.7804,-4.824,-4.8815,-4.8883,-4.8917,-4.8917,-4.8984,-4.9018,-4.9018,-4.9018,-4.7704,-4.6314,-4.6208,-4.4825,-4.3409,-4.3329,-4.329,-4.329,-4.329,-4.329,-4.329,-4.329,-4.329,-4.329,-4.329,-4.329,-4.329,-4.329,-4.329,-4.329,-4.329,-4.2426,-4.1295,-4.0189,-3.9006,-3.8243,-3.8243,-3.7196,-3.701,-3.8198,-3.7248,-3.6622,-3.6622,-3.5952,-3.5583,-3.5583,-3.5583,-3.5855,-3.6405,-3.6405,-3.643,-3.648,-3.648,-3.6782,-2.3264,-2.5466,-2.8365,-3.1388,-3.4648,-3.7584,-3.942,-3.9149,-3.9121,-4.1253,-4.1875,0.0,0.0,0.0,0.0,0.0,0.0,0.0,0.0,0.0,0.0,0.0,0.0,0.0,0.0,0.0,0.0,0.0,0.0,0.0,0.0,0.0,0.0,-4.4615,-4.4615,-4.4615,-4.4615,-4.4615,-4.4615,0.0,-4.4615,-4.4615,-4.4615,-4.4615,-4.4615,-4.4615,-4.4615,-4.4615,-4.4615,-4.4615,-4.4615,-4.4615,-4.4615,-4.5026,-4.5703,-4.5703,-4.6278,-4.7022,-4.7022,-4.7124,-4.7361,-4.797,-4.8142,-4.821,-4.8815,-4.9018,-4.9018,-4.9018,-4.8193,-4.7138,-4.6384,-4.5342,-4.4312,-4.3488,-4.329,-4.329,-4.329,-4.329,-4.329,-4.329,-4.329,-4.329,-4.329,-4.329,-4.329,-4.329,-4.329,-4.329,-4.329,-4.3061,-4.2508,-4.1337,-4.0189,-3.9492,-3.9492,-3.8424,-3.8243,-3.9448,-3.8758,-3.8329,-3.8329,-3.6951,-3.6182,-3.6182,-3.6182,-3.6279,-3.6405,-3.6405,-3.6631,-3.7059,-3.7059,-3.7312,-2.3606,-2.6173,-2.9377,-3.2958,0.0,-3.7328,-3.7796,-3.7547,-3.7573,-3.8747,0.0,0.0,0.0,0.0,0.0,0.0,0.0,0.0,0.0,0.0,0.0,0.0,0.0,0.0,0.0,0.0,0.0,0.0,0.0,0.0,0.0,-4.3809,-4.4012,-4.4012,-4.4412,-4.4615,-4.4615,-4.4615,-4.4615,-4.4615,-4.4615,-4.4615,-4.4615,-4.4615,-4.4615,-4.4615,-4.4615,-4.4615,-4.4615,-4.4615,-4.4615,-4.4615,-4.4615,-4.4852,-4.5162,-4.5162,-4.5635,-4.6278,-4.6278,-4.6752,-4.7394,-4.78,-4.8142,-4.8511,-4.8883,-4.9018,-4.9018,-4.9018,-4.8321,-4.7373,-4.6454,-4.5488,-4.4548,-4.3566,-4.329,-4.329,-4.329,-4.329,-4.329,-4.329,-4.329,-4.329,-4.329,-4.329,-4.329,-4.329,-4.329,-4.3409,-4.3738,-4.3768,-4.3493,-4.2649,-4.2038,-4.1649,-4.1649,-4.0563,-4.0384,-4.1605,-4.0793,-3.9999,-3.9374,-3.8548,-3.7782,-3.7209,-3.7161,-3.7161,-3.7161,-3.7161,-3.7287,-3.7588,-3.7588,-3.7889,-2.3767,-2.6968,-3.0644,-3.4415,-3.5861,0.0,-3.5814,-3.607,-3.6477,-3.6752,0.0,0.0,0.0,0.0,0.0,0.0,0.0,0.0,0.0,0.0,0.0,0.0,0.0,0.0,0.0,0.0,0.0,0.0,0.0,0.0,-4.2286,-4.2895,-4.3274,-4.3375,-4.4045,-4.4479,-4.4615,-4.4615,-4.4615,-4.4615,-4.4615,-4.4615,-4.4615,-4.4615,-4.4615,-4.4615,-4.4615,-4.4615,-4.4615,-4.4615,-4.4615,-4.4615,-4.4615,-4.4615,-4.4615,-4.4615,-4.4993,-4.5534,-4.5669,-4.6515,-4.7534,-4.7804,-4.8311,-4.8849,-4.8951,-4.9018,-4.9018,-4.9018,-4.845,-4.7605,-4.6488,-4.5634,-4.4774,-4.3576,-4.329,-4.329,-4.329,-4.329,-4.329,-4.329,-4.329,-4.329,-4.329,-4.3379,-4.3469,-4.3469,-4.3559,-4.3828,-4.4407,-4.4496,-4.4347,-4.392,-4.369,-4.3647,-4.3892,-4.2802,-4.2624,-4.382,-4.2871,-4.1682,-4.0408,-4.0277,-3.9589,-3.8291,-3.8115,-3.8015,-3.8015,-3.8015,-3.8065,-3.8165,-3.8165,-3.8467,-2.2583,-2.6585,-3.1052,0.0,-3.514,-3.5782,0.0,0.0,-3.6037,0.0,0.0,0.0,0.0,0.0,0.0,0.0,0.0,0.0,0.0,0.0,0.0,0.0,0.0,0.0,0.0,0.0,0.0,0.0,0.0,0.0,-4.2286,-4.2388,-4.2726,-4.3375,-4.3477,-4.391,-4.4615,-4.4615,-4.4615,-4.4615,-4.4615,-4.4615,-4.4615,-4.4615,-4.4615,-4.4615,-4.4615,-4.4615,-4.4615,-4.4615,-4.4615,-4.4615,-4.4615,-4.4615,-4.4615,-4.4615,-4.4682,-4.4852,-4.5466,-4.5838,-4.621,-4.7466,-4.7973,-4.8142,-4.8815,-4.9018,-4.9018,-4.9018,-4.8892,-4.8385,-4.6662,-4.6103,-4.553,-4.3732,-4.329,-4.329,-4.329,-4.329,-4.329,-4.329,-4.329,-4.329,-4.329,-4.3768,-4.4197,-4.4197,-4.4676,-4.5065,-4.5155,-4.5155,-4.5143,-4.5066,-4.4192,-4.4021,-4.4983,-4.3992,-4.3863,-4.4983,-4.4429,-4.3489,-4.2203,-4.1673,-4.0735,-3.9522,-3.8492,-3.8015,-3.8015,-3.8015,-3.8266,-3.8768,-3.8768,-3.9044,-2.4522,-2.7675,-3.0702,0.0,-3.4743,-3.5106,-3.582,0.0,0.0,0.0,0.0,0.0,0.0,0.0,0.0,0.0,0.0,0.0,0.0,0.0,0.0,0.0,0.0,0.0,0.0,0.0,0.0,0.0,0.0,-4.1094,-4.1094,-4.1441,-4.1847,-4.2185,-4.2591,-4.3166,-4.391,-4.3944,-4.4147,-4.4615,-4.4615,-4.4615,-4.4615,-4.4615,-4.4615,-4.4615,-4.4615,-4.4615,-4.4615,-4.4615,-4.4615,-4.4615,-4.4615,-4.4615,-4.4615,-4.4615,-4.4857,-4.5263,-4.5602,-4.6244,-4.7056,-4.7669,-4.8206,-4.8578,-4.8917,-4.9018,-4.9018,-4.9018,-4.9018,-4.8576,-4.6696,-4.6208,-4.571,-4.3771,-4.329,-4.329,-4.329,-4.329,-4.329,-4.329,-4.3589,-4.3858,-4.3858,-4.4436,-4.4855,-4.4855,-4.5095,-4.5424,-4.5813,-4.5873,-4.6022,-4.6381,-4.5954,-4.5868,-4.6369,-4.5954,-4.5868,-4.6369,-4.6178,-4.5461,-4.4185,-4.3176,-4.2084,-4.0794,-3.9576,-3.8944,-3.8944,-3.8944,-3.9094,-3.932,-3.932,-3.9471,-2.497,0.0,-2.9352,-3.2497,-3.3635,-3.4203,0.0,0.0,0.0,0.0,0.0,0.0,0.0,0.0,0.0,0.0,0.0,0.0,0.0,0.0,0.0,0.0,0.0,0.0,0.0,0.0,0.0,0.0,0.0,-4.0113,-4.0113,-4.0595,-4.1001,-4.1204,-4.1745,-4.2354,-4.3132,-4.3308,-4.3809,-4.4615,-4.4615,-4.4615,-4.4615,-4.4615,-4.4615,-4.4615,-4.4615,-4.4615,-4.4615,-4.4615,-4.4615,-4.4615,-4.4615,-4.4615,-4.4615,-4.4615,-4.506,-4.5737,-4.5906,-4.6819,-4.7906,-4.8108,-4.8578,-4.9018,-4.9018,-4.9018,-4.9018,-4.9018,-4.9018,-4.8576,-4.6696,-4.6208,-4.571,-4.3771,-4.329,-4.329,-4.329,-4.3409,-4.3529,-4.3529,-4.4107,-4.4556,-4.4556,-4.5125,-4.5544,-4.5544,-4.5693,-4.5992,-4.6501,-4.6561,-4.677,-4.7249,-4.7309,-4.7309,-4.7309,-4.7309,-4.7309,-4.7309,-4.7309,-4.6726,-4.5434,-4.4163,-4.2882,-4.1591,-4.0364,-3.9697,-3.9697,-3.9697,-3.9697,-3.9697,-3.9697,-3.9697,-2.1605,-2.3961,0.0,-2.9202,-3.124,0.0,0.0,0.0,0.0,0.0,0.0,0.0,0.0,0.0,0.0,0.0,0.0,0.0,0.0,0.0,0.0,0.0,0.0,0.0,0.0,0.0,0.0,0.0,0.0,-4.0113,-4.0113,-4.0146,-4.0485,-4.117,-4.1238,-4.161,-4.2354,-4.3064,-4.3809,-4.4615,-4.4615,-4.4615,-4.4615,-4.4615,-4.4615,-4.4615,-4.4615,-4.4615,-4.4615,-4.4615,-4.4615,-4.4615,-4.4615,-4.4615,-4.4615,-4.4615,-4.506,-4.5805,-4.6481,-4.7259,-4.8007,-4.8714,-4.8984,-4.9018,-4.9018,-4.9018,-4.9018,-4.9018,-4.9018,-4.8576,-4.6696,-4.6208,-4.571,-4.3771,-4.329,-4.329,-4.329,-4.3798,-4.4257,-4.4257,-4.4796,-4.5244,-4.5244,-4.5813,-4.6262,-4.6262,-4.68,-4.7219,-4.7249,-4.7249,-4.7279,-4.7309,-4.7309,-4.7309,-4.7309,-4.7309,-4.7309,-4.7309,-4.7309,-4.6726,-4.5434,-4.4163,-4.2882,-4.1591,-4.0364,-3.9697,-3.9697,-3.9697,-3.9697,-3.9697,-3.9697,-3.9697,-2.0865,0.0,0.0,-2.7155,-2.9228,-3.0971,0.0,0.0,0.0,0.0,0.0,0.0,0.0,0.0,0.0,0.0,0.0,0.0,0.0,0.0,0.0,0.0,0.0,0.0,0.0,0.0,0.0,0.0,0.0,0.0,-4.0113,-4.0113,-4.0214,-4.0493,-4.0493,-4.0832,-4.1576,-4.2767,-4.3511,-4.3842,-4.435,-4.4615,-4.4615,-4.4615,-4.4615,-4.4615,-4.4615,-4.4615,-4.4615,-4.4615,-4.4615,-4.4615,-4.4615,-4.4615,-4.4615,-4.4615,-4.5393,-4.6447,-4.6718,-4.7597,-4.8646,-4.8917,-4.9018,-4.9018,-4.9018,-4.9018,-4.9018,-4.9018,-4.9018,-4.8576,-4.6696,-4.6208,-4.5837,-4.4285,-4.4287,-4.4586,-4.4586,-4.4766,-4.4945,-4.4945,-4.5484,-4.5963,-4.5963,-4.6501,-4.695,-4.695,-4.716,-4.7309,-4.7309,-4.7309,-4.7309,-4.7309,-4.7698,-4.7938,-4.7938,-4.8327,-4.8566,-4.8566,-4.8566,-4.8358,-4.7924,-4.6691,-4.577,-4.534,-4.2881,-4.0978,-3.9697,-3.9697,-3.9697,-3.9697,-3.9697,-3.9697,-1.9478,0.0,0.0,0.0,0.0,-2.8367,0.0,0.0,0.0,0.0,0.0,0.0,0.0,0.0,0.0,0.0,0.0,0.0,0.0,0.0,0.0,0.0,0.0,0.0,0.0,0.0,0.0,0.0,0.0,0.0,-4.0113,-4.0113,-4.0113,-4.0113,-4.0113,-4.0426,-4.1204,-4.2185,-4.2794,-4.3064,-4.3809,-4.4181,-4.4215,-4.4479,-4.4615,-4.4615,-4.4615,-4.4615,-4.4615,-4.4615,-4.4615,-4.4615,-4.4615,-4.4615,-4.4649,-4.4857,-4.5737,-4.6819,-4.709,-4.797,-4.9018,-4.9018,-4.9018,-4.9018,-4.9018,-4.9018,-4.9018,-4.9018,-4.9018,-4.8576,-4.6696,-4.59,-4.5428,-4.479,-4.5155,-4.5633,-4.5633,-4.5633,-4.5633,-4.5633,-4.6202,-4.6651,-4.6651,-4.701,-4.7309,-4.7309,-4.7309,-4.7309,-4.7309,-4.7489,-4.7638,-4.7638,-4.8237,-4.8626,-4.8626,-4.906,-4.9299,-4.9299,-4.9299,-4.9299,-4.9299,-4.8068,-4.7384,-4.7384,-4.442,-4.2211,-4.0926,-4.0106,-3.9697,-3.9697,-3.9697,-3.9798,0.0,0.0,0.0,0.0,0.0,0.0,0.0,0.0,0.0,0.0,0.0,0.0,0.0,0.0,0.0,0.0,0.0,0.0,0.0,0.0,0.0,0.0,0.0,0.0,0.0,0.0,0.0,0.0,0.0,-4.0113,-4.0113,-4.0113,-4.0113,-4.0113,-4.0113,-4.0426,-4.117,-4.1204,-4.1576,-4.2286,-4.3064,-4.3375,-4.3409,-4.4215,-4.4615,-4.4615,-4.4615,-4.4615,-4.4615,-4.4615,-4.4615,-4.4615,-4.4615,-4.4615,-4.4716,-4.5432,-4.6177,-4.6921,-4.7635,-4.8376,-4.9018,-4.9018,-4.9018,-4.9018,-4.9018,-4.9018,-4.9018,-4.9018,-4.9018,-4.8576,-4.6694,-4.5308,-4.4526,-4.5155,-4.5843,-4.6309,-4.6309,-4.6309,-4.6309,-4.6309,-4.686,-4.7309,-4.7309,-4.7309,-4.7309,-4.7309,-4.7309,-4.7309,-4.7339,-4.7908,-4.8297,-4.8327,-4.894,-4.9329,-4.9329,-4.9359,-4.9359,-4.9359,-4.9359,-4.9359,-4.9359,-4.8173,-4.7536,-4.7536,-4.4879,-4.3539,-4.3539,-4.1055,-3.9799,-3.9747,-3.9747,-4.0023,-1.7312,0.0,0.0,0.0,0.0,0.0,0.0,0.0,0.0,0.0,0.0,0.0,0.0,0.0,0.0,0.0,0.0,0.0,0.0,0.0,0.0,0.0,0.0,0.0,0.0,0.0,0.0,0.0,-4.0113,-4.0113,-4.0113,-4.0113,-4.0113,-4.0113,-4.0113,-4.0214,-4.0417,-4.0933,-4.1305,-4.1508,-4.2767,-4.3375,-4.3409,-4.4215,-4.4615,-4.4615,-4.4615,-4.4615,-4.4615,-4.4615,-4.4615,-4.4615,-4.4615,-4.4615,-4.4716,-4.5432,-4.6177,-4.6921,-4.7635,-4.8376,-4.9018,-4.9018,-4.9018,-4.9018,-4.9018,-4.9018,-4.9018,-4.9018,-4.9018,-4.8679,-4.7306,-4.6315,-4.5771,-4.5992,-4.6561,-4.704,-4.704,-4.704,-4.704,-4.704,-4.7189,-4.7309,-4.7309,-4.7309,-4.7309,-4.7309,-4.7309,-4.7489,-4.7967,-4.8177,-4.8476,-4.9,-4.9583,-4.9972,-4.9972,-5.0421,-5.069,-5.069,-5.069,-5.069,-5.069,-5.0334,-5.0164,-5.0164,-4.8037,-4.6954,-4.6954,-4.3838,-4.1853,-4.0824,-4.0824,-4.0924,-1.7813,0.0,0.0,0.0,0.0,0.0,0.0,-2.5238,0.0,0.0,0.0,0.0,0.0,0.0,0.0,0.0,0.0,0.0,0.0,0.0,0.0,0.0,0.0,0.0,0.0,0.0,0.0,-4.0113,-4.0113,-4.0113,-4.0113,-4.0113,-4.0113,-4.0113,-4.0113,-4.0113,-4.0113,-4.0553,-4.073,-4.0764,-4.1914,-4.2632,-4.2963,-4.3741,-4.4282,-4.4615,-4.4615,-4.4615,-4.4615,-4.4615,-4.4615,-4.4615,-4.4615,-4.4818,-4.5128,-4.5872,-4.6616,-4.7361,-4.8105,-4.8646,-4.9018,-4.9018,-4.9018,-4.9018,-4.9018,-4.9018,-4.9018,-4.9018,-4.8652,-4.8164,-4.7666,-4.6964,-4.6339,-4.6681,-4.704,-4.7309,-4.7309,-4.7309,-4.7309,-4.7309,-4.7309,-4.7309,-4.7309,-4.7309,-4.7399,-4.7668,-4.7728,-4.7967,-4.864,-4.8925,-4.9254,-4.9613,-5.0242,-5.0614,-5.0614,-5.099,-5.1229,-5.1229,-5.1229,-5.1229,-5.1229,-5.1229,-5.1229,-5.1229,-4.957,-4.8663,-4.8663,-4.5713,-4.3563,-4.2184,-4.1825,-4.1681,-1.9057,-1.8624,0.0,0.0,0.0,0.0,-2.4819,-2.4673,0.0,0.0,0.0,0.0,0.0,0.0,0.0,0.0,0.0,0.0,0.0,0.0,0.0,0.0,0.0,0.0,0.0,-3.9952,-3.9978,-4.0113,-4.0113,-4.0113,-4.0113,-4.0113,-4.0113,-4.0113,-4.0113,-4.0113,-4.0113,-4.0113,-4.0113,-4.0113,-4.0832,-4.1576,-4.232,-4.3064,-4.3842,-4.4615,-4.4615,-4.4615,-4.4615,-4.4615,-4.4615,-4.4615,-4.4615,-4.5026,-4.5805,-4.6515,-4.7259,-4.8007,-4.8748,-4.9018,-4.9018,-4.9018,-4.9018,-4.9018,-4.9018,-4.9018,-4.9018,-4.9086,-4.8331,-4.759,-4.8078,-4.7415,-4.6689,-4.716,-4.7309,-4.7309,-4.7309,-4.7309,-4.7309,-4.7309,-4.7309,-4.7309,-4.7309,-4.7309,-4.7519,-4.8177,-4.8297,-4.8566,-4.9329,-4.9883,-5.0226,-5.0285,-5.0823,-5.1229,-5.1229,-5.1229,-5.1229,-5.1229,-5.1229,-5.1229,-5.1229,-5.1229,-5.1229,-5.1229,-5.0017,-4.9406,-4.9406,-4.6912,-4.5094,-4.4033,-4.2984,-4.2507,-2.2192,-2.1226,-2.0424,-2.0327,0.0,0.0,0.0,-2.125,0.0,0.0,0.0,0.0,0.0,0.0,0.0,0.0,0.0,0.0,0.0,0.0,0.0,0.0,0.0,0.0,0.0,-3.9123,-3.9394,-4.0028,-4.0113,-4.0113,-4.0113,-4.0113,-4.0113,-4.0113,-4.0113,-4.0113,-4.0113,-4.0113,-4.0113,-4.0113,-4.0832,-4.1576,-4.232,-4.3064,-4.3842,-4.4615,-4.4615,-4.4615,-4.4615,-4.4615,-4.4615,-4.4615,-4.4615,-4.5026,-4.5805,-4.6515,-4.7259,-4.8007,-4.8748,-4.9018,-4.9018,-4.9018,-4.9018,-4.9018,-4.9018,-4.9018,-4.912,-4.9729,-4.956,-4.9189,-4.9106,-4.8694,-4.814,-4.7465,-4.7309,-4.7309,-4.7309,-4.7309,-4.7309,-4.7309,-4.7309,-4.7309,-4.7309,-4.7309,-4.7519,-4.8177,-4.8297,-4.8716,-4.9883,-5.0106,-5.0405,-5.0913,-5.1139,-5.1229,-5.1229,-5.1229,-5.1229,-5.1229,-5.1229,-5.1229,-5.1229,-5.1229,-5.1229,-5.1229,-5.0964,-5.0793,-5.0793,-4.8084,-4.722,-4.8021,-4.5605,-4.446,-2.3757,-2.2841,-2.2294,-2.2068,0.0,0.0,0.0,0.0,-2.1403,0.0,0.0,0.0,0.0,0.0,0.0,0.0,0.0,0.0,0.0,0.0,0.0,0.0,0.0,0.0,0.0,-3.869,-3.9236,-4.0062,-4.0113,-4.0113,-4.0113,-4.0113,-4.0113,-4.0113,-4.0113,-4.0113,-4.0113,-4.0113,-4.0113,-4.0113,-4.046,-4.1204,-4.2286,-4.2692,-4.347,-4.4615,-4.4615,-4.4615,-4.4615,-4.4615,-4.4615,-4.4615,-4.4615,-4.5263,-4.6278,-4.665,-4.7496,-4.8511,-4.8883,-4.9018,-4.9018,-4.9018,-4.9018,-4.9018,-4.9018,-4.9018,-4.9154,-4.9898,-4.9925,-4.9632,-4.9373,-4.904,-4.8553,-4.7538,-4.7309,-4.7309,-4.7309,-4.7309,-4.7309,-4.7309,-4.7309,-4.7309,-4.7309,-4.7578,-4.8027,-4.8686,-4.9045,-4.9613,-5.0554,-5.0674,-5.0794,-5.1169,-5.1229,-5.1229,-5.1229,-5.1229,-5.1229,-5.1229,-5.1229,-5.1229,-5.1229,-5.1229,-5.1229,-5.1229,-5.1229,-5.1229,-5.1229,-4.9824,-4.8787,-4.8139,-4.6682,-4.5289,0.0,0.0,0.0,0.0,0.0,-2.2211,0.0,0.0,0.0,-2.3166,0.0,0.0,0.0,0.0,0.0,0.0,0.0,0.0,0.0,0.0,0.0,0.0,0.0,0.0,0.0,-3.7755,-3.8613,-3.9791,-3.9522,-3.9539,-4.0079,-4.0113,-4.0113,-4.0113,-4.0113,-4.0113,-4.0113,-4.0113,-4.0113,-4.0113,-4.0113,-4.0891,-4.2286,-4.2286,-4.3132,-4.4615,-4.4615,-4.4615,-4.4615,-4.4615,-4.4615,-4.4615,-4.4615,-4.5495,-4.6786,-4.6786,-4.7733,-4.9018,-4.9018,-4.9018,-4.9018,-4.9018,-4.9018,-4.9018,-4.9018,-4.9018,-4.9187,-5.0067,-5.0158,-4.991,-4.9571,-4.9292,-4.88,-4.7581,-4.7309,-4.7309,-4.7309,-4.7309,-4.7309,-4.7309,-4.7399,-4.7459,-4.7339,-4.7848,-4.8506,-4.9209,-4.9823,-5.0435,-5.1139,-5.1229,-5.1229,-5.1229,-5.1229,-5.1229,-5.1229,-5.1229,-5.1229,-5.1229,-5.1229,-5.1229,-5.1229,-5.1229,-5.1229,-5.1229,-5.1229,-5.1229,-5.1229,-5.1229,-5.0095,-4.7859,-4.7605,-4.6317,0.0,0.0,0.0,0.0,-2.5495,0.0,0.0,0.0,-2.119,-2.0609,0.0,0.0,0.0,0.0,0.0,0.0,0.0,0.0,0.0,0.0,0.0,0.0,0.0,0.0,0.0,0.0,-3.6306,-3.8857,-3.7443,-3.7543,-3.9952,-4.0113,-4.0113,-4.0113,-4.0113,-4.0113,-4.0113,-4.0113,-4.0113,-4.0113,-4.0113,-4.0891,-4.2286,-4.2286,-4.3132,-4.4615,-4.4615,-4.4615,-4.4615,-4.4615,-4.4615,-4.4615,-4.4615,-4.5495,-4.6786,-4.6786,-4.7733,-4.9018,-4.9018,-4.9018,-4.9018,-4.9018,-4.9018,-4.9018,-4.9018,-4.9018,-4.9289,-5.071,-5.1053,-5.0928,-5.0402,-5.0256,-4.9694,-4.7764,-4.7309,-4.7309,-4.7309,-4.7309,-4.7309,-4.7309,-4.7788,-4.7997,-4.7399,-4.7848,-4.8506,-4.9209,-4.9823,-5.0435,-5.1139,-5.1229,-5.1229,-5.1229,-5.1229,-5.1229,-5.1229,-5.1229,-5.1229,-5.1229,-5.1229,-5.1229,-5.1229,-5.1229,-5.1229,-5.1229,-5.1229,-5.1229,-5.1229,-5.1229,-5.1058,-5.0698,-4.9504,-4.8787,0.0,0.0,0.0,0.0,0.0,0.0,-2.2729,0.0,-2.0115,0.0,0.0,0.0,0.0,0.0,0.0,0.0,0.0,0.0,0.0,0.0,0.0,0.0,0.0,0.0,0.0,0.0,0.0,0.0,0.0,-3.7026,-3.9343,-3.9876,-4.0113,-4.0113,-4.0113,-4.0113,-4.0113,-4.0113,-4.0113,-4.0113,-4.0113,-4.0891,-4.2286,-4.2286,-4.3132,-4.4615,-4.4615,-4.4615,-4.4615,-4.4615,-4.4615,-4.4649,-4.506,-4.5872,-4.6853,-4.7293,-4.8105,-4.9018,-4.9018,-4.9018,-4.9018,-4.9018,-4.9018,-4.9018,-4.9018,-4.9289,-4.9864,-5.0913,-5.1094,-5.0881,-5.0483,-4.9931,-4.9094,-4.7666,-4.7309,-4.7309,-4.7309,-4.7309,-4.7429,-4.7788,-4.8087,-4.8327,-4.8416,-4.8985,-4.9523,-4.9793,-5.0391,-5.0853,-5.1169,-5.1229,-5.1229,-5.1229,-5.1229,-5.1229,-5.1229,-5.1229,-5.1229,-5.1229,-5.1229,-5.1229,-5.1229,-5.1229,-5.1229,-5.1229,-5.1229,-5.1229,-5.1229,-5.1229,-5.1229,-5.1182,-5.0603,-4.9504,-3.2706,0.0,0.0,0.0,0.0,0.0,0.0,0.0,0.0,0.0,0.0,0.0,0.0,0.0,0.0,0.0,0.0,0.0,0.0,0.0,0.0,0.0,0.0,0.0,0.0,0.0,0.0,0.0,0.0,0.0,-3.8564,-3.9253,-3.9699,-4.0113,-4.0113,-4.0113,-4.0113,-4.0113,-4.0113,-4.0113,-4.0316,-4.1094,-4.2286,-4.2489,-4.3335,-4.4615,-4.4615,-4.4615,-4.4615,-4.4615,-4.4615,-4.4716,-4.5635,-4.6312,-4.6887,-4.7631,-4.8376,-4.9018,-4.9018,-4.9018,-4.9018,-4.9018,-4.9018,-4.9018,-4.9018,-4.9526,-5.0236,-5.1014,-5.0994,-5.0716,-5.0472,-4.9615,-4.8553,-4.7538,-4.7309,-4.7309,-4.7309,-4.7459,-4.7728,-4.8207,-4.8566,-4.8985,-4.9464,-4.9912,-5.0196,-5.0196,-5.0764,-5.1229,-5.1229,-5.1229,-5.1229,-5.1229,-5.1229,-5.1229,-5.1229,-5.1229,-5.1229,-5.1229,-5.1229,-5.1229,-5.1229,-5.1229,-5.1229,-5.1229,-5.1229,-5.1229,-5.1229,-5.1229,-5.1229,-5.1229,-5.1229,-5.0143,0.0,0.0,0.0,-2.9774,0.0,0.0,0.0,0.0,-2.2071,0.0,0.0,0.0,0.0,0.0,0.0,0.0,0.0,0.0,0.0,0.0,0.0,0.0,0.0,0.0,0.0,0.0,0.0,0.0,0.0,0.0,-3.7734,-3.8051,-3.8702,-4.0054,-4.0113,-4.0113,-4.0113,-4.0113,-4.0113,-4.0113,-4.0832,-4.1576,-4.232,-4.3064,-4.3809,-4.4615,-4.4615,-4.4615,-4.4615,-4.4615,-4.4615,-4.475,-4.6177,-4.6786,-4.6887,-4.7631,-4.8376,-4.9018,-4.9018,-4.9018,-4.9018,-4.9018,-4.9018,-4.9018,-4.9018,-4.9526,-5.0236,-5.1014,-5.0994,-5.0716,-5.0472,-4.9615,-4.8553,-4.7538,-4.7309,-4.7309,-4.7309,-4.7818,-4.8267,-4.8297,-4.9314,-5.0136,-5.0166,-5.0196,-5.0196,-5.0196,-5.0764,-5.1229,-5.1229,-5.1229,-5.1229,-5.1229,-5.1229,-5.1229,-5.1229,-5.1229,-5.1229,-5.1229,-5.1229,-5.1229,-5.1229,-5.1229,-5.1229,-5.1229,-5.1229,-5.1229,-5.1229,-5.1229,-5.1229,-5.1229,-5.1229,-5.1152,0.0,0.0,-3.4801,-3.1898,0.0,0.0,0.0,0.0,0.0,0.0,0.0,0.0,0.0,0.0,0.0,0.0,0.0,0.0,0.0,0.0,0.0,0.0,0.0,0.0,0.0,0.0,0.0,0.0,-3.061,0.0,0.0,-3.7437,-3.841,-3.9343,-3.9842,-4.0113,-4.0113,-4.0113,-4.0113,-4.0113,-4.0832,-4.1576,-4.232,-4.3064,-4.3842,-4.4615,-4.4615,-4.4615,-4.4615,-4.4615,-4.4886,-4.5432,-4.6413,-4.709,-4.7631,-4.8376,-4.8781,-4.9018,-4.9018,-4.9018,-4.9018,-4.9018,-4.9323,-4.9729,-4.9729,-5.0574,-5.1459,-5.106,-5.0716,-5.0343,-4.9552,-4.8584,-4.7722,-4.7366,-4.7309,-4.7429,-4.7848,-4.8117,-4.8536,-4.9404,-4.9897,-5.0315,-5.0764,-5.0853,-5.0853,-5.0853,-5.1079,-5.1229,-5.1229,-5.1229,-5.1229,-5.1229,-5.1229,-5.1229,-5.1229,-5.1229,-5.1229,-5.1229,-5.1229,-5.1229,-5.1229,-5.1229,-5.1229,-5.1229,-5.1229,-5.1229,-5.1229,-5.1229,-5.1229,-5.1182,-5.0287,-5.0335,-3.6237,-3.6178,0.0,-3.3724,-3.1604,0.0,-2.6301,0.0,0.0,0.0,0.0,0.0,0.0,0.0,0.0,0.0,0.0,0.0,0.0,0.0,0.0,0.0,0.0,0.0,0.0,0.0,-2.6811,-2.9062,-2.9248,0.0,0.0,0.0,-3.7492,-3.8946,-3.9421,-3.9825,-4.0113,-4.0113,-4.0113,-4.0113,-4.1102,-4.1847,-4.232,-4.3369,-4.4113,-4.4615,-4.4615,-4.4615,-4.4615,-4.4615,-4.5026,-4.5771,-4.6515,-4.7259,-4.7973,-4.8748,-4.9018,-4.9018,-4.9018,-4.9018,-4.9052,-4.9323,-4.9695,-5.0135,-5.0405,-5.1352,-5.2167,-5.1528,-5.0859,-5.0242,-4.9536,-4.8335,-4.7309,-4.7309,-4.7489,-4.7758,-4.8207,-4.8656,-4.9224,-5.0016,-5.0375,-5.0674,-5.1139,-5.1229,-5.1229,-5.1229,-5.1229,-5.1229,-5.1229,-5.1229,-5.1229,-5.1229,-5.1229,-5.1229,-5.1229,-5.1229,-5.1229,-5.1229,-5.1229,-5.1229,-5.1229,-5.1229,-5.1229,-5.1229,-5.1229,-5.1229,-5.1229,-5.1229,-5.1229,-5.1182,-5.0287,-5.0383]},{"header":{"parameterUnit":"m.s-1","parameterCategory":1,"la1":30.6,"la2":29.2853,"lo1":-89.7004,"lo2":-87.6739,"dy":0.0162,"dx":0.0183,"nx":112,"ny":82,"refTime":"2026-04-12T00:00:00:Z","depth":0,"parameterNumber":3,"parameterNumberName":"V-component_of_WINDS"},"data":[0.0,0.0,0.0,0.0,0.0,0.0,0.0,0.0,0.0,0.0,0.0,0.0,0.0,0.0,0.0,0.0,0.0,0.0,0.0,0.0,0.0,0.0,0.0,0.0,0.0,0.0,0.0,0.0,0.0,0.0,0.0,0.0,0.0,0.0,0.0,0.0,0.0,0.0,0.0,0.0,0.0,0.0,0.0,0.0,0.0,0.0,0.0,0.0,0.0,0.0,0.0,0.0,0.0,0.0,0.0,0.0,0.0,0.0,0.0,0.0,0.0,0.0,0.0,0.0,0.0,0.0,0.0,0.0,0.0,0.0,0.0,0.0,0.0,0.0,0.0,0.0,0.0,0.0,0.0,0.0,0.0,0.0,0.0,0.0,0.0,0.0,0.0,0.0,0.0,0.0,0.0,1.8402,2.0401,2.2393,2.4125,2.4306,2.3777,2.2551,0.0,0.0,0.0,0.0,0.0,0.0,0.0,0.0,0.0,0.0,0.0,0.0,0.0,0.0,0.0,0.0,0.0,0.0,0.0,0.0,0.0,0.0,0.0,0.0,0.0,0.0,0.0,0.0,0.0,0.0,0.0,0.0,0.0,0.0,0.0,0.0,0.0,0.0,0.0,0.0,0.0,0.0,0.0,0.0,0.0,0.0,0.0,0.0,0.0,0.0,0.0,0.0,0.0,0.0,0.0,0.0,0.0,0.0,0.0,0.0,0.0,0.0,0.0,0.0,0.0,0.0,0.0,0.0,0.0,0.0,0.0,0.0,0.0,0.0,0.0,0.0,0.0,0.0,0.0,0.0,0.0,0.0,0.0,0.0,0.0,0.0,0.0,0.0,0.0,0.0,0.0,0.0,0.0,0.0,0.0,0.0,0.0,0.0,0.0,0.0,0.0,0.0,0.0,0.0,1.7627,2.0185,2.1194,2.2589,2.4849,2.4112,2.3974,2.491,0.0,0.0,0.0,0.0,0.0,0.0,0.0,0.0,0.0,0.0,0.0,0.0,0.0,0.0,0.0,0.0,0.0,0.0,0.0,0.0,0.0,0.0,0.0,0.0,0.0,0.0,0.0,0.0,0.0,0.0,0.0,0.0,0.0,0.0,0.0,0.0,0.0,0.0,0.0,0.0,0.0,0.0,0.0,0.0,0.0,0.0,0.0,0.0,0.0,0.0,0.0,0.0,0.0,0.0,0.0,0.0,0.0,0.0,0.0,0.0,0.0,0.0,0.0,0.0,0.0,0.0,0.0,0.0,0.0,0.0,0.0,0.0,0.0,0.0,0.0,0.0,0.0,0.0,0.0,0.0,0.0,0.0,0.0,0.0,0.0,0.0,0.0,0.0,0.0,0.0,0.0,0.0,0.0,0.0,0.0,0.0,0.0,0.0,0.0,0.0,0.0,0.0,0.0,1.7019,1.8078,2.1001,2.1545,2.2669,2.4996,2.4256,2.3973,2.4743,2.1938,0.0,0.0,0.0,0.0,0.0,0.0,0.0,0.0,0.0,0.0,0.0,0.0,0.0,0.0,0.0,0.0,0.0,0.0,0.0,0.0,0.0,0.0,0.0,0.0,0.0,0.0,0.0,0.0,0.0,0.0,0.0,0.0,0.0,0.0,0.0,0.0,0.0,0.0,0.0,0.0,0.0,0.0,0.0,0.0,0.0,0.0,0.0,0.0,0.0,0.0,0.0,0.0,0.0,0.0,0.0,0.0,0.0,0.0,0.0,0.0,0.0,0.0,0.0,0.0,0.0,0.0,0.0,0.0,0.0,0.0,0.0,0.0,0.0,0.0,0.0,0.0,0.0,0.0,0.0,0.0,0.0,0.0,0.0,0.0,0.0,0.0,0.0,0.0,0.0,0.0,0.0,0.0,0.0,0.0,0.0,0.0,0.0,0.0,0.0,0.0,0.0,0.0,1.8248,1.88,2.1423,2.1852,2.2826,2.4996,2.4214,2.3784,2.4177,2.1079,0.0,0.0,0.0,0.0,0.0,0.0,0.0,0.0,0.0,0.0,0.0,0.0,0.0,0.0,0.0,0.0,0.0,0.0,0.0,0.0,0.0,0.0,0.0,0.0,0.0,0.0,0.0,0.0,0.0,0.0,0.0,0.0,0.0,0.0,0.0,0.0,0.0,0.0,0.0,0.0,0.0,0.0,0.0,0.0,0.0,0.0,0.0,0.0,0.0,0.0,0.0,0.0,0.0,0.0,0.0,0.0,0.0,0.0,0.0,0.0,0.0,0.0,0.0,0.0,0.0,0.0,0.0,0.0,0.0,0.0,0.0,0.0,0.0,0.0,0.0,0.0,0.0,0.0,0.0,0.0,0.0,0.0,0.0,0.0,0.0,0.0,0.0,0.0,0.0,0.0,0.0,0.0,0.0,0.0,0.0,0.0,0.0,0.0,0.0,0.0,0.0,0.0,1.8293,1.9676,2.1502,2.2253,2.3325,2.5067,2.3719,2.3183,2.4155,2.0673,0.0,0.0,0.0,0.0,0.0,0.0,0.0,0.0,0.0,0.0,0.0,0.0,0.0,0.0,0.0,0.0,0.0,0.0,0.0,0.0,0.0,0.0,0.0,0.0,0.0,0.0,0.0,0.0,0.0,0.0,0.0,0.0,0.0,0.0,0.0,0.0,0.0,0.0,0.0,0.0,0.0,0.0,0.0,0.0,0.0,0.0,0.0,0.0,0.0,0.0,0.0,0.0,0.0,0.0,0.0,0.0,0.0,0.0,0.0,0.0,0.0,0.0,0.0,0.0,0.0,0.0,0.0,0.0,0.0,0.0,0.0,0.0,0.0,0.0,0.0,0.0,0.0,0.0,0.0,0.0,0.0,0.0,0.0,0.0,0.0,0.0,0.0,0.0,0.0,0.0,0.0,0.0,0.0,0.0,0.0,0.0,0.0,0.0,0.0,0.0,0.0,0.0,1.8024,1.9391,0.0,2.23,2.3369,2.5067,2.4131,2.3667,2.419,0.0,0.0,0.0,0.0,0.0,0.0,0.0,0.0,0.0,0.0,0.0,0.0,0.0,0.0,0.0,0.0,0.0,0.0,0.0,0.0,0.0,0.0,0.0,0.0,0.0,0.0,0.0,0.0,0.0,0.0,0.0,0.0,0.0,0.0,0.0,0.0,0.0,0.0,0.0,0.0,0.0,0.0,0.0,0.0,0.0,0.0,0.0,0.0,0.0,0.0,0.0,0.0,0.0,0.0,0.0,0.0,0.0,0.0,0.0,0.0,0.0,0.0,0.0,0.0,0.0,0.0,0.0,0.0,0.0,0.0,0.0,0.0,0.0,0.0,0.0,0.0,0.0,0.0,0.0,0.0,0.0,0.0,0.0,0.0,0.0,0.0,0.0,0.0,0.0,0.0,0.0,0.0,0.0,0.0,0.0,0.0,0.0,0.0,0.0,0.0,0.0,0.0,1.6695,1.8084,1.9586,0.0,2.2483,2.3593,2.5086,2.4181,2.36,2.3826,0.0,0.0,0.0,0.0,0.0,0.0,0.0,0.0,0.0,0.0,0.0,0.0,0.0,0.0,0.0,0.0,0.0,0.0,0.0,0.0,0.0,0.0,0.0,0.0,0.0,0.0,0.0,0.0,0.0,0.0,0.0,0.0,0.0,0.0,0.0,0.0,0.0,0.0,0.0,0.0,0.0,0.0,0.0,0.0,0.0,0.0,0.0,0.0,0.0,0.0,0.0,0.0,0.0,0.0,0.0,0.0,0.0,0.0,0.0,0.0,0.0,0.0,0.0,0.0,0.0,0.0,0.0,0.0,0.0,0.0,0.0,0.0,0.0,0.0,0.0,0.0,0.0,0.0,0.0,0.0,0.0,0.0,0.0,0.0,0.0,0.0,0.0,0.0,0.0,0.0,0.0,0.0,0.0,0.0,0.0,0.0,0.0,0.0,0.0,0.0,0.0,0.0,1.6241,1.8602,2.0523,2.1596,2.2846,2.4017,2.5105,2.367,2.2781,0.0,0.0,0.0,0.0,0.0,0.0,0.0,0.0,0.0,0.0,0.0,0.0,0.0,0.0,0.0,0.0,0.0,0.0,0.0,0.0,0.0,0.0,0.0,0.0,0.0,0.0,0.0,0.0,0.0,0.0,0.0,0.0,0.0,0.0,0.0,0.0,0.0,0.0,0.0,0.0,0.0,0.0,0.0,0.0,0.0,0.0,0.0,0.0,0.0,0.0,0.0,0.0,0.0,0.0,0.0,0.0,0.0,0.0,0.0,0.0,0.0,0.0,0.0,0.0,0.0,0.0,0.0,0.0,0.0,0.0,0.0,0.0,0.0,0.0,0.0,0.0,0.0,0.0,0.0,0.0,0.0,0.0,0.0,0.0,0.0,0.0,0.0,0.0,0.0,0.0,0.0,0.0,0.0,0.0,0.0,0.0,0.0,0.0,0.0,0.0,0.0,0.0,0.0,1.6292,1.8928,2.095,2.1627,2.2846,2.4017,2.5105,2.3972,2.3134,2.3017,0.0,0.0,0.0,0.0,0.0,0.0,0.0,0.0,0.0,0.0,0.0,0.0,0.0,0.0,0.0,0.0,0.0,0.0,0.0,0.0,0.0,0.0,0.0,0.0,0.0,0.0,0.0,0.0,0.0,0.0,0.0,0.0,0.0,0.0,0.0,0.0,0.0,0.0,0.0,0.0,0.0,0.0,0.0,0.0,0.0,0.0,0.0,0.0,0.0,0.0,0.0,0.0,0.0,0.0,0.0,0.0,0.0,0.0,0.0,0.0,0.0,0.0,0.0,0.0,0.0,0.0,0.0,0.0,0.0,0.0,0.0,0.0,0.0,0.0,0.0,0.0,0.0,0.0,0.0,0.0,0.0,0.0,0.0,0.0,0.0,0.0,0.0,0.0,0.0,0.0,0.0,0.0,0.0,0.0,0.0,0.0,0.0,0.0,0.0,0.0,0.0,0.0,1.6317,1.9088,2.1121,2.1627,2.2846,2.3964,2.4812,2.3973,2.3285,2.302,0.0,0.0,0.0,0.0,0.0,0.0,0.0,0.0,0.0,0.0,0.0,0.0,0.0,0.0,0.0,0.0,0.0,0.0,0.0,0.0,0.0,0.0,0.0,0.0,0.0,0.0,0.0,0.0,0.0,0.0,0.0,0.0,0.0,0.0,0.0,0.0,0.0,0.0,0.0,0.0,0.0,0.0,0.0,0.0,0.0,0.0,0.0,0.0,0.0,0.0,0.0,0.0,0.0,0.0,0.0,0.0,0.0,0.0,0.0,0.0,0.0,0.0,0.0,0.0,0.0,0.0,0.0,0.0,0.0,0.0,0.0,0.0,0.0,0.0,0.0,0.0,0.0,0.0,0.0,0.0,0.0,0.0,0.0,0.0,0.0,0.0,0.0,0.0,0.0,0.0,0.0,0.0,0.0,0.0,0.0,0.0,0.0,0.0,0.0,0.0,0.0,0.0,1.6392,1.9146,2.1176,2.1655,2.2846,2.3815,2.4348,2.372,2.3194,2.3021,0.0,0.0,0.0,0.0,0.0,0.0,0.0,0.0,0.0,0.0,0.0,0.0,0.0,0.0,0.0,0.0,0.0,0.0,0.0,0.0,0.0,0.0,0.0,0.0,0.0,0.0,0.0,0.0,0.0,0.0,0.0,0.0,0.0,0.0,0.0,0.0,0.0,0.0,0.0,0.0,0.0,0.0,0.0,0.0,0.0,0.0,0.0,0.0,0.0,0.0,0.0,0.0,0.0,0.0,0.0,0.0,0.0,0.0,0.0,0.0,1.188,0.0,0.0,0.0,0.0,0.0,0.0,0.0,0.0,0.0,0.0,0.0,0.0,0.0,0.0,0.0,0.0,0.0,0.0,0.0,0.0,0.0,0.0,0.0,0.0,0.0,0.0,0.0,0.0,0.0,0.0,0.0,0.0,0.0,0.0,0.0,0.0,0.0,0.0,0.0,0.0,0.0,1.6996,1.9733,2.1572,2.1683,2.2846,2.3815,2.4348,2.3234,2.2666,2.2976,0.0,0.0,0.0,0.0,0.0,0.0,0.0,0.0,0.0,0.0,0.0,0.0,0.0,0.0,0.0,0.0,0.0,0.0,0.0,0.0,0.0,0.0,0.0,0.0,0.0,0.0,0.0,0.0,0.0,0.0,0.0,0.0,0.0,0.0,0.0,0.0,0.0,0.0,0.0,0.0,0.0,0.0,0.0,0.0,0.0,0.0,0.0,0.0,0.0,0.0,0.0,0.0,0.0,0.0,0.0,0.0,0.0,0.0,0.0,0.0,0.0,1.2056,0.0,0.0,0.0,0.0,0.0,0.0,0.0,0.0,0.0,0.0,0.0,0.0,0.0,0.0,0.0,0.0,0.0,0.0,0.0,0.0,0.0,0.0,0.0,0.0,0.0,0.0,0.0,0.0,0.0,0.0,0.0,0.0,0.0,0.0,0.0,0.0,0.0,0.0,0.0,0.0,1.7222,1.992,2.171,2.171,2.2846,2.3709,2.4006,2.3242,2.2841,2.2997,2.1041,0.0,0.0,0.0,0.0,0.0,0.0,0.0,0.0,0.0,0.0,0.0,0.0,0.0,0.0,0.0,0.0,0.0,0.0,0.0,0.0,0.0,0.0,0.0,0.0,0.0,0.0,0.0,0.0,0.0,0.0,0.0,0.0,0.0,0.0,0.0,0.0,0.0,0.0,0.0,0.0,0.0,0.0,0.0,0.0,0.0,0.0,0.0,0.0,0.0,0.0,0.0,0.0,0.0,1.3494,1.3667,1.3681,1.4175,1.4255,1.3919,1.2694,1.2362,1.2654,0.0,0.0,0.0,0.0,0.0,0.0,0.0,0.0,0.0,0.0,0.0,0.0,0.0,0.0,0.0,0.0,0.0,0.0,0.0,0.0,0.0,0.0,0.0,0.0,0.0,1.6177,1.6406,0.0,0.0,0.0,0.0,0.0,0.0,0.0,0.0,0.0,0.0,0.0,0.0,1.7501,2.003,2.1738,2.1848,2.2904,2.361,2.361,2.3335,2.32,2.3197,2.1676,2.0636,0.0,0.0,0.0,0.0,0.0,0.0,0.0,0.0,0.0,0.0,0.0,0.0,0.0,0.0,0.0,0.0,0.0,0.0,0.0,0.0,0.0,0.0,0.0,0.0,0.0,0.0,0.0,0.0,0.0,0.0,0.0,0.0,0.9576,1.0827,0.0,0.0,0.0,0.0,0.0,0.0,0.0,0.0,0.0,0.0,0.0,0.0,0.0,0.0,1.2973,1.407,1.4646,1.4727,1.5231,1.5438,1.5438,1.5518,1.5531,1.5478,1.5291,0.0,1.3453,1.3488,0.0,0.0,0.0,0.0,0.0,0.0,0.0,0.0,0.0,0.0,0.0,0.0,0.0,0.0,0.0,0.0,0.0,0.0,0.0,0.0,0.0,0.0,1.7363,1.7168,1.7194,1.7264,0.0,1.6922,1.6308,1.5485,0.0,0.0,0.0,0.0,0.0,0.0,0.0,0.0,1.8581,2.0489,2.1904,2.2435,2.3171,2.361,2.361,2.3104,2.3121,2.3901,2.2183,2.1535,2.2446,2.0848,0.0,0.0,0.0,0.0,0.0,0.0,0.0,0.0,0.0,0.0,0.0,0.0,0.0,0.0,0.0,0.0,0.0,0.0,0.0,0.0,0.0,0.0,0.0,0.0,0.0,0.0,0.0,0.0,0.0,0.9462,0.9908,1.0465,1.1197,1.1255,0.0,0.0,0.0,0.0,0.0,0.0,0.0,0.0,0.0,1.3132,1.3722,1.4258,1.4683,1.5364,1.5919,1.6241,1.6446,1.666,1.682,1.682,1.682,1.682,1.682,1.6353,1.5558,1.4597,1.3827,1.3244,0.0,0.0,0.0,0.0,1.2927,1.2985,1.3629,1.4012,0.0,0.0,0.0,0.0,0.0,0.0,0.0,0.0,0.0,0.0,0.0,0.0,0.0,1.8379,1.8492,1.8528,1.8787,1.8488,1.7762,0.0,1.6481,1.6296,1.5025,0.0,0.0,0.0,0.0,0.0,1.9334,2.1392,2.2708,2.26,2.3548,2.4007,2.364,2.334,2.3324,2.3643,2.3124,2.3079,2.3596,2.24,2.1349,0.0,0.0,0.0,0.0,0.0,0.0,0.0,0.0,0.0,0.0,0.0,0.0,0.0,0.0,0.0,0.0,0.0,0.0,0.0,0.0,0.0,0.0,0.0,0.0,0.0,0.0,0.0,0.0,1.0186,1.0416,1.0416,1.1468,1.1643,0.0,0.0,0.0,0.0,0.0,0.0,1.2946,1.348,1.4041,1.4629,1.5196,1.5658,1.6166,1.646,1.6871,1.7313,1.7313,1.742,1.7582,1.7582,1.7582,1.7582,1.7582,1.7514,1.7192,1.5605,1.4669,1.4106,1.3588,1.3213,1.3039,1.3494,1.3561,1.3588,1.4442,1.5101,1.5555,1.5675,0.0,1.628,1.637,0.0,0.0,0.0,0.0,1.772,1.8578,1.875,1.8848,1.9609,1.9873,2.0022,2.0162,2.0133,1.9598,0.0,1.7934,1.7836,1.6916,0.0,0.0,0.0,0.0,1.9635,2.0162,2.2192,2.3452,2.3096,2.4134,2.4575,2.3909,2.3879,2.3794,2.3588,2.3782,2.3979,2.4165,2.3383,2.2772,2.2435,0.0,0.0,0.0,0.0,0.0,0.0,0.0,0.0,0.0,0.0,0.0,0.0,0.0,0.0,0.0,0.0,0.0,0.0,0.0,0.0,0.0,0.0,0.0,0.0,0.0,0.0,0.0,0.0,0.0,1.1322,1.2719,0.0,0.0,0.0,0.0,1.2712,1.32,1.3866,1.4834,1.5124,1.5551,1.6187,1.646,1.6767,1.7125,1.742,1.7528,1.7555,1.7555,1.7569,1.7582,1.7582,1.7582,1.7582,1.7582,1.7569,1.7488,1.6616,1.6005,1.5658,1.5084,1.4888,1.4874,1.4914,1.5044,1.5271,1.5324,1.5209,1.5098,1.534,1.589,1.6802,1.8561,1.8809,0.0,0.0,1.9065,1.9961,2.08,2.0762,2.0586,2.0976,2.1484,2.1774,2.1387,2.2056,2.2162,0.0,1.9568,1.9374,1.9557,0.0,1.9635,1.9635,2.0189,2.0817,2.137,2.2698,2.3756,2.4254,2.5032,2.5262,2.4605,2.4545,2.4489,2.4348,2.3699,2.3561,2.4076,2.3438,2.2714,2.195,2.1576,0.0,0.0,0.0,0.0,0.0,0.0,0.0,0.0,0.0,0.0,0.0,0.0,0.0,0.0,0.0,0.0,0.0,0.0,0.0,0.0,0.0,0.0,0.0,0.0,0.0,0.0,0.0,0.0,1.2787,1.3872,0.0,1.3239,1.3601,1.4022,1.4191,1.4723,1.5351,1.6046,1.6415,1.6764,1.7101,1.7208,1.7422,1.7729,1.7822,1.7876,1.7876,1.7876,1.7769,1.7582,1.7582,1.7582,1.7582,1.7582,1.7582,1.7555,1.7248,1.6941,1.6633,1.6246,1.6086,1.6086,1.6086,1.6032,1.5965,1.5965,1.5946,1.6035,1.7098,1.8008,1.8825,1.9831,2.0195,2.0274,2.0274,2.0683,2.125,2.1582,2.1543,2.1445,2.1621,2.159,2.1625,2.2137,2.2062,2.2116,2.2601,2.1791,2.0966,2.0904,2.0891,2.0765,2.044,2.1142,2.1794,2.1995,2.3602,2.4693,2.4419,2.5491,2.5794,2.4694,2.4605,2.4395,2.3909,2.3569,2.3445,2.3638,2.2889,2.2548,2.2733,2.1687,2.0328,0.0,0.0,0.0,0.0,0.0,0.0,0.0,0.0,0.0,0.0,0.0,0.0,0.0,0.0,0.0,0.0,0.0,0.0,0.0,0.0,0.0,0.0,0.0,0.0,0.0,0.0,1.3614,1.3866,1.4803,1.5182,1.4442,1.483,1.5231,1.5524,1.6005,1.6486,1.6981,1.7194,1.7487,1.7729,1.7742,1.7889,1.8196,1.8196,1.8196,1.8196,1.8196,1.809,1.7889,1.7782,1.7742,1.7729,1.7622,1.7582,1.7582,1.7582,1.7527,1.7326,1.7074,1.7007,1.6994,1.6887,1.674,1.6589,1.6388,1.6565,1.7131,1.8468,1.9628,2.0623,2.1099,2.1641,2.2031,2.1697,2.1973,2.2305,2.2305,2.2207,2.209,2.209,2.2311,2.2625,2.3122,2.3282,2.3702,2.476,2.3607,2.2469,2.2575,2.2447,2.2221,2.1873,2.2246,2.2569,2.2569,2.4241,2.5246,2.4777,2.6068,2.6393,2.5053,2.4933,2.4545,2.367,2.3335,2.3161,2.3161,2.2321,2.2066,2.2536,2.1211,2.0204,1.9623,0.0,0.0,0.0,0.0,0.0,0.0,0.0,0.0,0.0,0.0,0.0,0.0,0.0,0.0,0.0,0.0,0.0,0.0,0.0,0.0,0.0,0.0,0.0,1.2925,1.3615,1.4269,1.4549,1.5605,1.6027,1.5169,1.5866,1.6433,1.6714,1.7058,1.734,1.7569,1.7595,1.7729,1.7982,1.7995,1.8196,1.8504,1.8504,1.8504,1.8504,1.8504,1.8504,1.8477,1.8142,1.7995,1.7969,1.7729,1.7595,1.7582,1.7582,1.7582,1.7582,1.7582,1.7582,1.7555,1.7313,1.7206,1.7112,1.6522,1.7085,1.8261,1.9214,2.0635,2.2062,2.2385,2.3105,2.3594,2.2773,2.2789,2.3101,2.3101,2.2789,2.2539,2.2539,2.3801,2.4853,2.4346,2.5838,2.7118,2.6625,2.4924,2.386,2.4671,2.4381,2.4029,2.4029,2.3496,0.0,2.312,2.4452,2.5384,2.5412,2.6707,2.7051,2.5764,2.5615,2.5046,2.367,2.3032,2.2673,2.2673,2.1797,2.1286,2.1286,2.0249,1.9516,1.9117,0.0,0.0,0.0,0.0,0.0,0.0,0.0,0.0,0.0,0.0,0.0,0.0,0.0,0.0,0.0,0.0,0.0,0.0,0.0,0.0,0.0,0.0,1.3601,1.34,1.471,1.5778,1.6072,1.6767,1.7128,1.6938,1.7074,1.7248,1.7328,1.7422,1.7502,1.7582,1.7796,1.7902,1.7995,1.8263,1.8504,1.8798,1.8811,1.8811,1.8811,1.8811,1.8691,1.849,1.841,1.825,1.7995,1.7902,1.7796,1.7582,1.7582,1.7582,1.7582,1.7582,1.7582,1.7569,1.7541,1.7194,1.678,1.6455,1.7085,1.8291,1.9396,2.0749,2.198,2.2731,2.3081,2.3218,2.2984,2.3003,2.3101,2.3101,2.3003,2.2925,2.2925,2.3698,2.4576,2.5103,2.5751,2.6383,2.6962,2.6327,2.5626,2.5427,2.4958,2.4575,2.4575,2.413,0.0,2.3753,2.4275,2.4823,2.5356,2.6256,2.6671,2.6344,2.5884,2.5046,2.367,2.2562,2.1964,2.1964,2.1242,2.1002,2.1286,2.0814,2.0217,0.0,0.0,0.0,0.0,0.0,0.0,0.0,0.0,0.0,0.0,0.0,0.0,0.0,0.0,0.0,0.0,0.0,0.0,0.0,0.0,0.0,0.0,1.4228,1.4599,1.4839,1.5805,1.6607,1.7021,1.7368,1.7582,1.7582,1.7582,1.7582,1.7582,1.7702,1.7769,1.7769,1.8063,1.8235,1.8355,1.8584,1.8811,1.9105,1.9105,1.9105,1.9105,1.9105,1.9025,1.8851,1.8731,1.8584,0.0,1.8102,1.7889,1.7769,1.7635,1.7582,0.0,0.0,0.0,0.0,0.0,1.7101,1.666,1.638,1.7409,1.8941,1.9534,2.1037,2.27,2.2997,2.3218,2.3335,2.314,2.3101,2.3101,2.3101,2.3101,2.3212,2.3714,2.4514,2.5357,2.6166,2.6709,2.714,2.7262,2.7052,0.0,2.6097,2.5511,2.5159,2.5159,2.4682,2.4255,2.4029,2.4378,2.4689,2.4935,2.5878,2.6393,2.6159,2.6069,0.0,0.0,0.0,2.2263,2.1724,2.1335,0.0,0.0,0.0,0.0,0.0,0.0,0.0,0.0,2.0505,2.0342,0.0,0.0,0.0,0.0,0.0,0.0,0.0,0.0,0.0,0.0,0.0,0.0,0.0,0.0,0.0,0.0,1.5407,1.6126,1.6727,1.6807,1.6994,1.7515,1.7582,1.7582,1.7582,1.7582,1.7595,1.7635,1.7889,1.8009,1.8035,0.0,0.0,0.0,0.0,1.9105,1.9417,1.943,1.943,1.943,1.943,1.943,1.9417,1.9092,1.8958,1.8891,1.8315,1.8075,1.8022,1.7756,1.7609,1.7582,1.7582,1.7582,1.7542,1.7313,1.7032,1.6714,1.642,0.0,0.0,1.9616,2.1454,2.3633,2.3218,2.3418,2.3633,2.3198,2.3101,2.3101,2.3101,2.3212,2.3541,2.4532,2.5755,2.6798,2.7294,2.8205,2.8612,2.767,2.7369,2.7153,2.6675,2.6122,2.5686,2.5686,2.5234,2.4732,2.423,2.4648,2.4846,2.4408,0.0,0.0,2.5664,2.6233,2.6063,2.4784,2.4066,2.3221,2.2084,2.2084,2.2084,2.2024,2.2391,2.284,2.3403,2.3768,2.4307,2.4883,2.2469,2.1911,0.0,0.0,0.0,0.0,0.0,0.0,0.0,0.0,0.0,0.0,0.0,0.0,0.0,0.0,0.0,1.512,1.598,1.674,1.7328,1.7408,1.7448,1.7569,1.7582,1.7582,1.7582,1.7582,1.7689,1.7889,1.7955,1.8102,1.8397,1.8677,0.0,1.8918,1.9158,1.9305,1.943,1.943,1.943,1.943,0.0,0.0,1.9417,1.9305,1.9145,1.8918,1.8798,1.8624,1.8384,1.8076,1.7809,1.7582,1.7582,1.7582,1.7542,1.7313,1.7166,1.7072,1.6727,1.8033,1.9868,1.9849,2.1382,2.3198,2.312,2.3159,0.0,2.312,2.3101,2.3101,2.3101,2.38,2.4532,2.4745,2.6315,2.782,2.7925,2.8474,2.8838,2.8612,2.7896,2.7278,2.7178,2.67,2.6323,2.6323,2.5812,2.541,2.531,2.4659,2.4392,2.4872,2.5349,2.5795,2.627,2.6499,2.6243,2.5442,2.4784,2.4306,2.4066,2.4567,2.4575,2.4036,2.4124,2.4143,2.4112,2.4329,2.4728,2.5195,2.4457,2.4092,0.0,0.0,0.0,0.0,0.0,0.0,0.0,0.0,0.0,0.0,0.0,1.2926,1.3171,0.0,1.503,1.5912,1.654,1.7074,1.7515,1.7582,1.7582,1.7582,1.7582,1.7582,1.7582,1.7716,1.7876,1.7982,1.8262,1.8502,1.8704,1.8985,1.9145,1.9145,1.9292,1.943,1.943,1.943,1.943,1.943,1.943,1.943,1.943,1.943,1.9292,1.9132,1.8985,1.8838,1.8677,1.8169,1.7902,1.7796,1.7649,1.7582,1.7569,1.7474,1.742,1.7418,1.782,1.9072,2.0504,2.0861,2.2108,2.3418,2.3159,2.3101,2.3101,2.3101,2.3101,2.3101,2.3101,2.3973,2.4957,2.5504,2.6912,2.8267,2.8806,2.9142,2.9277,2.8938,2.8473,2.7921,2.7369,2.7077,2.6826,2.6524,2.6248,2.5912,2.5636,2.5134,2.4842,2.4941,2.5459,2.5966,2.6328,2.648,2.6452,2.6123,2.5472,2.5083,2.5083,2.5412,2.5465,2.5113,2.5083,2.522,2.5439,2.5882,2.6393,2.6957,2.714,2.6772,0.0,0.0,0.0,0.0,0.0,0.0,0.0,0.0,1.1824,1.2652,1.3186,1.3749,1.4603,1.5297,1.5965,1.6673,1.7099,1.7367,1.7555,1.7582,1.7687,1.7937,1.774,1.7582,1.7582,1.7862,1.8009,1.8075,1.8624,1.8945,1.8998,1.9239,1.943,1.943,1.943,1.943,1.943,1.943,1.943,1.943,1.943,1.943,1.943,1.943,1.943,1.9359,1.9118,1.8971,1.8891,1.8355,1.8089,1.7969,1.7769,1.7635,1.7582,1.7582,1.7582,1.7752,1.8884,2.0034,2.1114,2.1925,2.2951,2.373,2.3379,2.3159,2.3101,2.3101,2.3101,2.3125,2.3387,2.4296,2.542,2.6543,2.7643,2.8688,2.9585,2.9804,2.9654,2.9176,2.8963,2.8612,2.7745,2.7419,2.7128,2.6575,2.6499,2.6323,2.5845,2.5661,2.5501,2.5235,2.5925,2.6462,2.6665,2.6837,2.6931,2.6806,2.6273,2.6004,2.6004,2.6123,2.6183,2.6183,2.6447,2.682,2.7387,2.8056,2.8647,2.9199,2.9746,2.9334,1.63,1.5703,1.5712,1.6721,1.54,1.4439,0.0,0.0,1.3921,1.4579,1.5357,1.5845,1.5712,1.638,1.7032,1.7139,1.7393,1.7542,1.7582,1.7582,1.8042,1.9213,1.8304,1.7582,1.7582,1.7862,1.8102,1.8424,1.8744,1.9038,1.9305,1.9403,1.943,1.943,1.943,1.943,1.943,1.943,1.943,1.943,1.943,1.943,1.943,1.943,1.943,1.9417,1.939,1.9172,1.8861,1.8851,1.8462,1.7995,1.7955,1.7822,1.7582,1.7582,1.7582,1.7779,1.908,2.0171,2.118,2.2496,2.3308,2.3769,2.373,2.3437,2.3101,2.3101,2.3101,2.3343,2.4339,2.5462,2.6584,2.7643,2.8767,2.9624,2.974,2.9804,2.9779,2.9704,2.9277,2.8838,2.8737,2.7921,2.7128,2.6575,2.6499,2.6474,2.6399,2.5912,2.5859,2.6594,2.6911,2.7455,2.8264,2.8353,2.8098,2.7525,2.7405,2.7375,2.7375,2.7949,2.8278,2.8278,2.9429,3.0066,3.0159,3.0844,3.1174,3.127,3.1333,3.0984,1.812,1.7812,1.7692,1.7783,1.716,1.6651,1.7228,1.6053,1.5017,1.5651,1.6152,1.654,1.6593,1.7034,1.7447,0.0,1.7554,1.7582,1.7582,1.7582,1.7793,1.8356,1.7937,1.7884,1.8708,1.8276,1.8115,1.8464,1.8758,1.9052,1.9359,1.943,1.943,1.943,1.943,1.943,1.943,1.943,1.943,1.943,1.943,1.943,1.943,1.943,1.943,1.943,1.943,1.9292,1.9172,1.8998,1.8771,1.8462,1.8129,1.7916,1.7836,1.7649,1.8094,1.8968,2.0333,2.1594,2.2737,2.3855,2.4162,2.4102,2.3867,2.3477,2.3101,2.3101,2.3101,2.3343,2.4489,2.563,2.6771,2.7844,2.8988,2.9804,2.9804,2.9804,2.9804,2.9804,2.9603,2.9327,2.8938,2.8512,2.7946,2.7102,2.67,2.6499,2.6499,2.6273,2.6473,2.7431,2.7626,2.8076,2.9098,2.9175,2.9056,2.8783,2.8753,2.8753,2.8753,2.9052,2.9175,2.9175,3.0119,3.0602,3.0602,3.1656,3.2167,3.2199,3.256,3.2826,1.9141,1.9277,1.9364,1.9033,1.9087,1.8956,1.7995,1.7094,1.647,1.6518,1.674,1.7007,1.7286,1.7487,1.7582,1.7582,1.7582,1.7582,1.7582,1.7582,1.774,1.8094,1.7845,1.8146,1.9472,1.8649,1.8115,1.8464,1.8758,1.9052,1.9359,1.943,1.943,1.943,1.943,1.943,1.943,1.943,1.943,1.943,1.943,1.943,1.943,1.943,1.943,1.943,1.943,1.943,1.9403,1.9132,1.8998,1.8878,1.837,1.8062,1.7955,1.7702,1.8461,1.9782,2.1186,2.2567,2.3894,2.49,2.4961,2.4512,2.4102,2.3652,2.3257,2.314,2.3101,2.343,2.4872,2.588,2.6853,2.8227,2.9184,2.9804,2.9804,2.9804,2.9804,2.9804,2.9804,2.9654,2.9227,2.8988,2.8562,2.7645,2.7077,2.6675,2.6524,2.6918,2.7578,2.8518,2.883,2.9201,2.9811,2.9834,2.9801,2.9621,2.9621,2.9621,2.9621,2.9771,2.9834,2.9834,3.0707,3.1135,3.1135,3.2298,3.298,3.3153,3.3645,3.4252,1.8734,1.9221,2.006,2.0878,2.116,2.0987,2.0032,1.9425,1.8751,1.7422,1.7407,1.7555,1.7569,1.7569,1.7582,1.7582,1.7582,1.7582,1.7582,1.7582,1.8094,1.9369,1.8394,1.8146,0.0,1.8649,1.8115,1.8464,1.8758,1.9052,1.9359,1.943,1.943,1.943,1.943,1.943,1.943,1.943,1.943,1.943,1.943,1.943,1.943,1.943,1.943,1.943,1.943,1.943,1.943,1.9417,1.9185,1.8891,1.8597,1.8303,1.7955,1.7702,1.8461,1.9782,2.1186,2.2567,2.3949,2.5265,2.541,2.4961,2.4531,2.4102,2.3691,2.3218,2.3101,2.3647,2.5861,2.6483,2.7058,2.9248,2.974,2.9804,2.9804,2.9804,2.9804,2.9804,2.9804,2.9779,2.9779,2.9302,2.8687,2.8172,2.762,2.7102,2.6575,2.7934,2.9254,3.0149,3.0925,3.1124,3.0522,3.0462,3.0223,2.9651,2.9621,2.9621,2.9621,3.0163,3.0462,3.0462,3.1845,3.254,3.254,3.3229,3.3889,3.4559,3.4559,3.4934,1.9727,2.0547,2.1504,2.2637,2.2662,2.2411,2.2399,2.0897,1.9505,1.9668,1.9072,1.8746,1.9365,1.8962,1.8511,1.8511,1.8022,1.7582,1.7582,1.7582,1.7793,1.8199,1.7898,0.0,0.0,0.0,0.0,1.817,1.8464,1.8758,1.9052,1.9265,1.943,1.943,1.943,1.943,1.943,1.943,1.943,1.943,1.943,1.943,1.943,1.943,1.943,1.943,1.943,1.943,1.943,1.943,1.9305,1.9185,1.8891,1.8597,1.8303,1.7996,1.9194,2.1033,2.1541,2.2567,2.3949,2.5284,2.543,2.5086,2.4902,2.4355,2.3769,2.3613,2.3315,2.3627,2.5902,2.6524,2.7058,2.9248,2.9804,2.9804,2.9804,2.9804,2.9804,2.9804,2.9804,2.9804,2.9804,2.9628,2.9302,2.8725,2.757,2.6907,2.7255,2.7802,2.8684,3.0147,3.0539,3.0837,3.1153,3.1152,3.1062,3.0853,3.0853,3.0853,3.0853,3.1062,3.1152,3.1152,3.2093,3.2815,3.3261,3.3953,3.4616,3.527,3.527,3.5654,2.0918,2.1894,2.2832,2.3965,2.4089,2.3932,2.3727,2.2214,2.0811,2.0786,1.9842,1.9233,1.9812,1.8999,1.8321,1.8675,1.7895,1.7341,1.7555,1.7582,1.7582,1.7582,1.7582,1.7582,0.0,0.0,0.0,1.7969,1.833,1.8624,1.8905,1.9199,1.943,1.943,1.943,1.943,1.943,1.943,1.943,1.943,1.943,1.943,1.943,1.943,1.943,1.943,1.943,1.943,1.943,1.943,1.943,1.939,1.9038,1.8744,1.8506,1.8686,1.9664,2.1049,2.1541,2.2868,2.4559,2.543,2.5547,2.5273,2.5117,2.4734,2.418,2.3887,2.3594,2.3847,2.5946,2.6524,2.7058,2.9248,2.9804,2.9804,2.9804,2.9804,2.9804,2.9804,2.9804,2.9804,2.9804,2.9628,2.9352,2.8938,2.8145,2.7781,2.8385,2.827,2.8812,3.0539,3.0748,3.0925,3.1482,3.1511,3.1511,3.1511,3.1511,3.1511,3.1511,3.1511,3.1511,3.1511,3.2216,3.2815,3.3235,3.3928,3.4592,3.527,3.5515,3.6057,2.2227,2.3203,2.4062,2.4949,2.543,2.5382,2.4079,2.3358,2.2492,2.0858,1.9786,1.9079,1.9092,0.0,1.7184,1.8091,1.7371,1.6927,1.7502,1.7582,1.7582,0.0,0.0,0.0,0.0,0.0,0.0,1.7969,0.0,1.8624,1.8905,1.9199,1.943,1.943,1.943,1.943,1.943,1.943,1.943,1.943,1.943,1.943,1.943,1.943,1.943,1.943,1.943,1.943,1.943,1.943,1.943,1.939,1.9052,1.8827,1.874,1.975,1.9994,2.0004,2.1355,2.3484,2.5577,2.5693,2.5693,2.5615,2.5234,2.5125,2.4949,2.4082,2.3828,2.4206,2.6056,2.6547,2.7058,2.9248,2.9804,2.9804,2.9804,2.9804,2.9804,2.9804,2.9804,2.9804,2.9804,2.9327,2.8976,2.9013,2.9326,2.9613,2.98,2.9389,2.9718,3.1307,3.1511,3.1511,3.1511,3.1511,3.1511,3.1511,3.1511,3.1511,3.1511,3.1511,3.1511,3.1511,3.2216,3.2629,3.2625,3.3345,3.4061,3.473,3.5456,3.6228,2.3105,2.4082,2.4863,2.543,2.5596,2.5548,2.491,2.3632,2.2431,2.2036,2.0458,1.9096,1.8846,1.8187,0.0,1.7506,1.7267,0.0,1.7528,1.7582,0.0,1.7582,0.0,1.7582,1.7582,1.7582,0.0,0.0,1.833,1.8624,1.8905,1.9199,1.943,1.943,1.943,1.943,1.943,1.943,1.943,1.943,1.943,1.943,1.943,1.943,1.943,1.943,1.943,1.943,1.943,1.943,1.943,1.9417,1.9279,1.9735,2.0446,2.0397,2.1528,2.3098,2.3173,2.3633,2.4362,2.5382,2.5693,2.5674,2.5605,2.5332,2.5067,2.4851,2.4277,2.4286,2.6408,2.671,2.7058,2.9248,2.9804,2.9804,2.9804,2.9804,2.9804,2.9804,2.9804,2.9804,2.9804,2.9679,2.9821,3.05,3.0335,3.0059,2.9855,3.0295,3.085,3.1424,3.1511,3.1511,3.1511,3.1511,3.1511,3.1511,3.1511,3.1511,3.1511,3.1511,3.1511,3.1511,3.2216,3.2841,3.3339,3.4572,3.5538,3.6259,3.7009,3.7745,2.4043,2.4844,2.543,2.5635,2.5586,2.5273,2.4648,2.3458,2.2264,2.1516,2.0076,1.8823,1.845,1.8106,1.7788,0.0,0.0,0.0,1.7607,1.7582,1.7582,0.0,1.7582,0.0,1.7769,1.7782,1.7969,0.0,1.8464,1.8624,1.8905,1.9199,1.943,1.943,1.943,1.943,1.943,1.943,1.943,1.943,1.943,1.943,1.943,1.943,1.943,1.943,0.0,1.943,1.943,1.943,1.943,1.943,1.943,2.0117,2.1173,2.1541,2.2808,2.4343,2.4746,2.4758,2.4707,2.5479,2.5693,2.5693,2.5693,2.5566,2.5312,2.5165,2.4773,2.4786,2.6627,2.6956,2.7291,2.9298,2.9804,2.9804,2.9804,2.9804,2.9804,2.9804,2.9804,2.9804,2.9804,3.0139,3.0582,3.1093,3.1667,3.1827,3.1293,3.1222,3.1385,3.1871,3.169,3.1511,3.1511,3.1511,3.1511,3.1511,3.1511,3.1511,3.1511,3.1511,3.1511,3.1511,3.2826,3.3549,3.3571,3.5661,3.6677,3.6783,3.7879,3.8599,2.4941,2.5449,2.5693,2.5693,2.5352,2.4766,2.3906,2.291,2.1699,2.0,1.889,1.8095,1.76,1.7489,1.7555,1.7705,0.0,1.7974,1.7866,1.7687,1.7582,1.7582,1.7622,1.7756,1.7969,1.8035,1.8275,1.8878,1.8845,1.8888,1.8971,1.9456,1.9591,1.943,1.943,1.943,1.943,1.943,1.943,1.943,1.943,1.943,1.943,1.943,1.943,1.943,0.0,0.0,1.943,1.943,1.943,1.943,1.9649,2.0416,2.1637,2.2982,2.4016,2.4882,2.6006,2.6133,2.5771,2.5713,2.5693,2.5693,2.5693,2.5693,2.5615,2.5273,2.5259,2.5657,2.6976,2.7332,2.7759,2.951,2.9854,2.9804,2.9804,2.9804,2.9804,2.9804,2.9804,2.9804,2.9804,3.0582,3.1241,3.1352,3.2876,3.3874,3.3483,3.2391,3.1887,3.2557,3.2108,3.178,3.178,3.178,3.178,3.178,3.178,3.178,3.178,3.178,3.178,3.178,3.3685,3.4379,3.3799,3.6441,3.7469,3.7034,3.8262,3.8883,2.5469,2.5635,2.5693,2.5693,2.5137,2.4316,2.3501,2.1758,0.0,0.0,1.7363,1.6181,1.5069,1.5734,1.6678,1.7284,1.7411,1.7856,1.9104,1.8304,1.7582,0.0,1.7809,1.7929,0.0,0.0,0.0,0.0,0.0,2.0286,1.9394,2.0501,2.0644,1.943,1.943,1.943,1.943,1.943,1.943,1.943,1.943,1.943,1.943,1.943,1.943,1.943,1.943,0.0,1.943,1.943,1.943,1.9533,2.0759,2.205,2.3468,2.459,2.5908,2.7066,2.6571,2.6348,2.6211,2.581,2.5693,2.5693,2.5693,2.5693,2.5674,2.5644,2.6094,2.6844,2.801,2.8451,2.8886,3.0164,3.0131,2.9804,2.9804,2.9804,2.9804,2.9804,2.9804,2.9804,2.9804,3.0582,3.1462,3.2236,3.329,3.425,3.4984,3.4431,3.3779,3.3365,3.3215,3.3155,3.3155,3.3155,3.3155,3.3155,3.3155,3.3155,3.3155,3.3155,3.3155,3.3155,3.4079,3.4767,3.5327,3.6387,3.7472,3.8571,3.8199,3.8334,2.5557,2.5693,2.5635,2.5449,2.4727,2.3691,2.219,0.0,0.0,1.7012,1.5977,1.5245,1.461,1.5576,0.0,1.6884,1.7096,1.7522,1.8474,1.7644,0.0,1.7528,1.7862,0.0,0.0,0.0,0.0,0.0,0.0,2.0814,1.9475,2.0083,2.0141,1.943,1.943,1.943,1.943,1.943,1.943,1.943,1.943,1.943,1.943,1.943,1.943,1.943,1.943,0.0,1.943,1.943,1.943,1.9475,2.0199,2.1813,2.3861,2.4395,2.5917,2.763,2.6934,2.6562,2.6309,2.583,2.5693,2.5693,2.5693,2.5693,2.5693,2.5693,2.6458,2.7458,2.8387,2.9152,2.9851,3.0453,3.0206,2.9804,2.9804,2.9804,2.9804,2.9804,2.9804,2.9804,2.9804,3.0582,3.1536,3.2451,3.3394,3.4346,3.5359,3.522,3.4741,3.4083,3.3694,3.3484,3.3484,3.3484,3.3484,3.3484,3.3484,3.3484,3.3484,3.3484,3.3484,3.3484,3.4543,3.5256,3.5663,3.6759,3.7648,3.8366,3.7975,3.7994,2.5557,2.5693,2.5577,2.5176,2.4355,2.3105,2.1075,1.9355,0.0,1.5684,1.4863,1.4512,1.4512,1.5508,1.6427,0.0,1.7055,1.7379,1.8065,1.7335,1.6959,0.0,1.7862,0.0,0.0,0.0,0.0,0.0,0.0,0.0,1.9924,1.9866,1.9707,1.943,1.9707,1.9866,1.9866,1.9866,1.9866,1.9866,1.9533,1.943,1.943,1.943,1.943,1.943,1.943,0.0,0.0,1.943,1.943,1.9475,2.0097,2.1771,2.3877,2.4544,2.6082,2.7734,2.7187,2.6797,2.6445,2.5849,2.5693,2.5693,2.5693,2.5693,2.5693,2.5693,2.6791,2.8104,2.8609,2.9767,3.0755,3.0617,3.0281,2.993,2.9804,2.9804,2.9804,2.9804,2.9804,2.9804,2.9804,3.0582,3.1536,3.2451,3.3394,3.4346,3.5359,3.5519,3.531,3.4773,3.4233,3.3933,3.3933,3.3933,3.3933,3.3933,3.3933,3.3933,3.3933,3.3933,3.3933,3.3933,3.5003,3.5644,3.5825,3.6803,3.7472,3.7793,3.7472,3.7383,2.5557,2.5693,2.5577,2.5176,2.4121,2.2691,2.0997,0.0,1.6492,1.5137,1.4199,1.3633,1.3633,1.4355,1.5615,1.7547,1.7533,1.778,1.9309,1.8707,1.7981,1.7659,0.0,0.0,0.0,0.0,0.0,0.0,0.0,0.0,2.1301,2.1415,2.0759,1.943,2.0702,2.1415,2.1415,2.1415,2.1415,2.1358,2.004,1.943,1.943,1.943,1.943,1.943,1.943,0.0,0.0,1.943,1.943,1.9649,2.2322,2.3543,2.41,2.6898,2.8048,2.8125,2.7305,2.6992,2.6816,2.5947,2.5693,2.5693,2.5693,2.5693,2.5693,2.5693,2.7389,2.9258,2.9305,3.0663,3.1814,3.0819,3.0583,3.0407,2.9905,2.9804,2.9804,2.9804,2.9804,2.9804,2.9804,3.0582,3.1536,3.2451,3.3394,3.4346,3.5359,3.5519,3.5489,3.54,3.534,3.531,3.531,3.531,3.531,3.531,3.531,3.531,3.531,3.531,3.531,3.531,3.5434,3.582,3.6507,3.5976,3.6415,3.7764,3.6383,3.607,2.5078,2.5527,2.5518,2.4863,2.3711,2.2246,2.0254,1.7988,1.5957,1.4668,1.3711,1.3203,1.3457,1.3789,1.4629,1.6555,1.6229,1.6225,1.758,1.723,1.6836,0.0,0.0,0.0,0.0,0.0,0.0,0.0,0.0,0.0,2.1586,2.1586,2.1301,2.0759,2.2153,2.2476,2.1586,2.1586,2.1145,2.0256,1.9707,1.943,1.943,1.943,1.943,1.943,1.943,0.0,0.0,1.943,1.943,1.9591,2.1643,2.3039,2.4044,2.6209,2.7565,2.8203,2.7617,2.7226,2.6914,2.6328,2.5957,2.5693,2.5693,2.5693,2.5693,2.5693,2.7484,2.9396,2.9396,3.0775,3.2114,3.1662,3.1085,3.0557,3.0331,3.003,2.9804,2.9804,2.9804,2.9804,2.9804,3.0101,3.0884,3.2379,3.2912,3.3705,3.5294,3.5519,3.5519,3.5519,3.5519,3.5519,3.5519,3.5519,3.5519,3.5519,3.5519,3.5519,3.5519,3.5519,3.5519,3.5519,3.5519,3.5878,3.66,3.5878,3.6038,3.7054,3.5975,3.5651,2.4336,2.5019,2.5128,2.4414,2.3262,2.1758,1.959,1.7553,1.5694,1.4211,1.3379,1.2993,1.3262,1.3418,1.3984,1.5478,1.548,1.5568,1.6429,1.6495,0.0,0.0,0.0,0.0,0.0,0.0,0.0,0.0,0.0,0.0,0.0,2.242,2.2702,2.2251,2.371,2.3766,2.2251,2.2251,2.1529,2.004,1.9591,1.943,1.943,1.943,1.943,1.943,0.0,0.0,0.0,2.0544,2.0716,2.0873,2.2379,2.3599,2.4654,2.6209,2.7384,2.8223,2.7812,2.7383,2.6953,2.6523,2.6094,2.5693,2.5693,2.5693,2.5693,2.5693,2.7484,2.9579,3.0328,3.1487,3.2416,3.2265,3.1637,3.1035,3.0884,3.0432,3.003,3.003,2.9905,2.9804,2.9804,2.9804,3.0419,3.2307,3.2593,3.329,3.5261,3.5519,3.5519,3.5519,3.5519,3.5519,3.5519,3.5519,3.5519,3.5519,3.5519,3.5519,3.5519,3.5519,3.5519,3.5519,3.5519,3.575,3.6259,3.575,3.575,3.6259,3.5718,3.5519,2.3457,2.4102,2.4336,2.3906,2.2832,2.1328,1.9104,1.7305,1.5615,1.3867,1.3184,1.2915,1.2915,1.3223,1.3789,1.4648,1.5849,1.6674,1.6685,1.7234,0.0,0.0,0.0,0.0,0.0,0.0,0.0,0.0,0.0,0.0,0.0,2.4433,2.5371,2.3822,2.5261,2.5316,2.3766,2.3766,2.3039,2.1586,2.0097,1.943,1.943,1.943,1.943,0.0,0.0,0.0,0.0,2.3151,2.3766,2.3933,2.5426,2.6045,2.6264,2.7726,2.8301,2.8223,2.7812,2.7383,2.6953,2.6523,2.6094,2.5693,2.5693,2.5693,2.5693,2.5693,2.7484,2.9966,3.2438,3.3068,3.2918,3.234,3.2215,3.2039,3.1486,3.0984,3.0608,3.0608,3.0156,2.9804,2.9804,2.9804,3.0419,3.2307,3.2593,3.329,3.5261,3.5519,3.5519,3.5519,3.5519,3.5519,3.5519,3.5519,3.5519,3.5519,3.5519,3.5519,3.5519,3.5519,3.5519,3.5519,3.5519,3.5489,3.5489,3.5489,3.5489,3.5489,3.5489,3.5519,2.1447,2.2129,2.2441,2.1406,2.0391,1.9221,1.7662,1.623,1.4891,1.375,1.3164,1.2915,1.2915,1.2988,1.375,1.5751,1.6434,1.6734,0.0,0.0,0.0,0.0,0.0,0.0,0.0,0.0,0.0,0.0,0.0,0.0,0.0,2.4986,2.5882,2.5371,2.6825,2.6879,2.5371,2.5371,2.41,2.1586,2.2153,2.1316,1.9488,2.1487,0.0,0.0,0.0,0.0,0.0,2.3599,2.3822,2.3933,2.548,2.61,2.6264,2.778,2.8301,2.8281,2.8144,2.7617,2.6992,2.6855,2.6328,2.5693,2.5693,2.5693,2.6062,2.7767,2.8819,2.9966,3.2481,3.3111,3.3043,3.2842,3.2491,3.2164,3.1989,3.1537,3.116,3.116,3.0708,3.0357,3.0357,3.003,3.0419,3.2307,3.2593,3.329,3.5261,3.5519,3.5519,3.5519,3.5519,3.5519,3.5519,3.5519,3.5519,3.5519,3.5519,3.5519,3.5519,3.5519,3.5519,3.5519,3.5519,3.5519,3.5519,3.5519,3.5519,3.5519,3.5519,3.5519,1.9605,2.0352,2.0781,2.0237,1.9433,1.8502,1.746,1.618,1.4908,1.3837,1.3219,1.2915,1.2915,1.3008,1.3691,1.5439,1.6122,1.6619,0.0,0.0,0.0,0.0,0.0,0.0,0.0,0.0,0.0,0.0,0.0,0.0,0.0,2.61,2.6933,2.6933,2.7833,2.7618,2.61,2.61,2.4599,2.1643,2.3095,2.2548,2.0314,2.2717,0.0,0.0,0.0,0.0,0.0,2.5278,2.5498,2.5608,2.6554,2.6933,2.706,2.796,2.8301,2.8301,2.8301,2.7734,2.7012,2.7012,2.6426,2.5693,2.5693,2.5693,2.611,2.8121,2.905,2.9852,3.1865,3.2742,3.3111,3.3111,3.2792,3.2541,3.2541,3.2089,3.1712,3.1712,3.126,3.0909,3.0909,3.0608,3.0984,3.2654,3.2916,3.3508,3.5291,3.5519,3.5519,3.5519,3.5519,3.5519,3.5519,3.5519,3.5519,3.5519,3.5519,3.5519,3.5519,3.5519,3.5519,3.5519,3.5519,3.5519,3.5519,3.5519,3.5519,3.5519,3.5519,3.5639,0.0,1.8688,1.9163,1.9842,1.9388,1.8638,1.8028,1.6823,0.0,1.4089,1.3334,1.2915,1.2969,1.3262,1.3665,1.425,1.5391,1.6548,0.0,0.0,0.0,0.0,0.0,0.0,0.0,0.0,0.0,0.0,0.0,0.0,0.0,2.7492,2.8301,2.8301,2.8301,2.7618,2.6264,2.6264,2.482,2.1911,2.3431,2.3263,2.1813,2.3375,0.0,0.0,0.0,0.0,0.0,2.7726,2.8301,2.8301,2.8301,2.8301,2.8301,2.8301,2.8301,2.8301,2.8301,2.7734,2.7012,2.6953,2.6337,2.5693,2.5693,2.5693,2.5965,2.722,2.8448,2.967,3.0911,3.2152,3.3111,3.3111,3.3111,3.3111,3.3111,3.2641,3.2265,3.2265,3.1838,3.1461,3.1461,3.1411,3.1843,3.3162,3.3413,3.3944,3.537,3.5544,3.5579,3.5579,3.5519,3.5519,3.5519,3.5519,3.5519,3.5519,3.5519,3.5519,3.5519,3.5519,3.5519,3.5519,3.5519,3.5519,3.5519,3.5549,3.5579,3.5579,3.5639,3.5968,1.5856,0.0,1.6305,1.6329,1.6196,1.6027,0.0,1.5329,1.4587,1.3939,1.3334,1.3091,1.3685,1.3627,1.4199,1.6289,1.7148,1.7804,0.0,0.0,0.0,0.0,0.0,0.0,0.0,0.0,0.0,0.0,0.0,0.0,0.0,2.7492,2.8301,2.8301,2.8301,2.8121,2.778,2.778,2.6879,2.5041,2.6554,2.5827,2.3375,2.6045,0.0,0.0,0.0,0.0,2.778,2.8174,2.8301,2.8301,2.8301,2.8301,2.8301,2.8301,2.8301,2.8301,2.8301,2.7734,2.6914,2.62,2.5849,2.5693,2.5693,2.5693,2.5965,2.722,2.8448,2.967,3.0911,3.2152,3.3111,3.3111,3.3111,3.3111,3.3111,3.2968,3.2867,3.2867,3.2416,3.2014,3.2014,3.1662,3.1756,3.2802,3.3631,3.4547,3.5681,3.6069,3.6237,3.6237,3.5818,3.5519,3.5519,3.5519,3.5519,3.5519,3.5519,3.5519,3.5519,3.5519,3.5519,3.5519,3.5519,3.5519,3.5519,3.5998,3.6237,3.6267,3.6746,3.7045,1.4928,1.5137,1.5466,1.5684,1.5723,1.5785,1.5968,1.5207,1.4363,1.3897,1.3334,1.3086,1.3704,1.3802,1.4453,1.6476,1.748,0.0,0.0,0.0,0.0,0.0,0.0,0.0,0.0,0.0,0.0,0.0,0.0,0.0,0.0,2.7256,2.7793,2.7988,2.8008,2.8105,2.8301,2.8301,2.7565,2.61,2.7618,2.7114,2.4931,2.7034,2.7617,0.0,0.0,0.0,2.7715,2.7715,2.7832,2.8008,2.8008,2.8125,2.8301,2.8301,2.8301,2.8301,2.8301,2.7734,2.6875,2.5966,2.5693,2.5693,2.5693,2.5693,2.582,2.6524,2.8028,2.9533,3.0214,3.1733,3.3111,3.3111,3.3111,3.3111,3.3111,3.3111,3.3111,3.3111,3.2817,3.2616,3.2616,3.2365,3.2438,3.3118,3.3699,3.4519,3.5718,3.6108,3.6389,3.6862,3.6596,3.6387,3.6387,3.6387,3.6118,3.5549,3.5519,3.5519,3.5519,3.5519,3.5519,3.5519,3.5519,3.5639,3.5968,3.6297,3.6626,3.6926,3.7255,3.7554,1.4943,1.5237,1.5604,1.598,1.6231,1.6398,1.6541,1.5517,1.4433,1.3981,1.3411,1.3169,1.3691,1.4172,0.0,0.0,0.0,0.0,0.0,0.0,0.0,0.0,0.0,0.0,0.0,0.0,0.0,0.0,0.0,0.0,0.0,2.7012,2.7187,2.7559,2.7559,2.7734,2.8086,2.8223,2.7672,2.6427,2.7726,2.758,2.6389,2.7266,2.7689,0.0,0.0,0.0,2.7012,2.7012,2.7226,2.763,2.7689,2.7943,2.8203,2.8262,2.8301,2.8281,2.8144,2.7617,2.6875,2.5966,2.5693,2.5693,2.5693,2.5693,2.5693,2.5693,2.7484,2.9396,2.9396,3.1247,3.3111,3.3111,3.3111,3.3111,3.3111,3.3111,3.3111,3.3111,3.3111,3.3111,3.3111,3.3111,3.3191,3.3554,3.3735,3.4364,3.5776,3.5999,3.6409,3.7451,3.7464,3.7404,3.7404,3.7404,3.6956,3.5878,3.5699,3.5639,3.5639,3.5759,3.5789,3.5789,3.5789,3.6058,3.6626,3.6716,3.7045,3.7554,3.7674,3.8003,1.6022,1.6147,1.5732,1.4515,1.5039,1.5768,1.559,1.4966,1.4394,1.4331,1.3831,1.3769,1.4902,1.5751,1.6726,0.0,0.0,0.0,0.0,0.0,0.0,0.0,0.0,0.0,0.0,0.0,0.0,0.0,0.0,0.0,0.0,0.0,2.7051,2.7109,2.7109,2.7148,2.7207,2.793,2.8174,2.796,2.8174,2.7999,2.7491,2.7643,2.7461,0.0,0.0,2.7012,2.7012,2.7012,2.7051,2.7148,2.7519,2.7767,2.7865,2.8164,2.8301,2.8184,2.7461,2.7129,2.6875,2.5966,2.5693,2.5693,2.5693,2.5693,2.5693,2.5693,2.7484,2.9396,2.9396,3.1247,3.3111,3.3111,3.3111,3.3111,3.3111,3.3111,3.3111,3.3111,3.3111,3.3111,3.3111,3.3111,3.3129,3.3156,3.3949,3.4941,3.6041,3.6448,3.7048,3.8107,3.7734,3.7404,3.7404,3.7404,3.7315,3.7135,3.6626,3.6327,3.6327,3.6836,3.7105,3.7105,3.7105,3.7165,3.7255,3.7823,3.8153,3.8242,3.8841,3.917,1.5503,1.5733,1.5628,1.4599,1.5491,1.6527,1.6128,1.5484,1.4928,1.4928,1.4703,1.4863,0.0,0.0,1.8086,2.0078,0.0,0.0,0.0,0.0,0.0,0.0,0.0,0.0,0.0,0.0,0.0,0.0,0.0,0.0,0.0,0.0,2.6426,2.666,2.668,2.6777,2.7012,2.7402,2.7715,2.7949,2.7715,2.7617,2.7708,2.7187,2.6875,2.666,0.0,2.6328,2.6328,2.6328,2.6465,2.6699,2.6894,2.7317,2.7767,2.8144,2.8301,2.8203,2.7578,2.7207,2.6914,2.6289,2.5937,2.5693,2.5693,2.5693,2.5693,2.5693,2.7484,2.9396,2.9396,3.1247,3.3111,3.3111,3.3111,3.3111,3.3111,3.3111,3.3111,3.3111,3.3111,3.3111,3.3111,3.3111,3.3111,3.3111,3.3513,3.422,3.5238,3.6041,3.6902,3.7967,3.8311,3.8482,3.8482,3.8482,3.8182,3.7464,3.7135,3.6985,3.6985,3.7255,3.7404,3.7404,3.7404,3.7584,3.7943,3.8242,3.8571,3.896,3.926,3.9373,1.5423,1.5584,1.5745,1.5367,1.6172,1.707,1.6999,1.6317,1.5771,1.6113,1.6063,1.6219,0.0,1.8091,0.0,0.0,0.0,0.0,0.0,0.0,0.0,0.0,0.0,0.0,0.0,0.0,0.0,0.0,0.0,0.0,0.0,0.0,2.5849,2.623,2.623,2.6387,2.6719,2.6719,2.6992,2.7519,2.7168,2.7148,2.7344,2.668,2.6328,2.6211,2.583,2.5693,2.5693,2.5693,2.5937,2.625,2.6348,2.6914,2.7767,2.8027,2.8203,2.8223,2.7812,2.7441,2.7109,2.668,2.625,2.5849,2.5849,2.5771,2.5713,2.581,2.7651,2.9553,2.9441,3.1247,3.3111,3.3111,3.3111,3.3111,3.3111,3.3111,3.3111,3.3111,3.3194,3.3269,3.3269,3.337,3.347,3.347,3.347,3.3938,3.5296,3.6171,3.713,3.8504,3.9387,3.9798,3.9679,3.9499,3.8955,3.7943,3.7734,3.7644,3.7644,3.7793,3.7883,3.7883,3.7883,3.8123,3.8631,3.8631,3.8901,3.9373,3.9589,3.9649,1.7104,1.6832,1.6382,1.6541,1.6367,1.6496,1.7656,1.7213,1.6941,1.813,1.8052,1.7969,0.0,2.0195,0.0,0.0,0.0,0.0,0.0,0.0,0.0,0.0,0.0,0.0,0.0,0.0,0.0,0.0,0.0,0.0,0.0,0.0,0.0,2.5732,2.5732,2.5752,2.5771,2.5771,2.625,2.707,2.7031,2.6836,2.6484,2.6426,2.6172,2.5732,2.5693,2.5693,2.5693,2.5693,2.5713,2.5771,2.623,2.6914,2.7728,2.7748,2.7949,2.8223,2.7812,2.7708,2.7539,2.7109,2.668,2.6348,2.6348,2.6055,2.5771,2.623,2.8181,3.0025,2.953,3.1247,3.3111,3.3111,3.3111,3.3111,3.3111,3.3111,3.3111,3.3111,3.3495,3.3847,3.3847,3.4274,3.4555,3.4555,3.4555,3.5396,3.7592,3.7883,3.8702,4.0901,4.1197,4.0995,4.0367,3.9768,3.9379,3.9254,3.8661,3.8332,3.8332,3.8931,3.9254,3.9254,3.9254,3.9254,3.9313,3.9313,3.9343,3.9403,4.0038,4.0337,1.6407,1.6594,1.6857,1.6426,1.6797,1.7461,1.8223,1.852,1.8968,2.0001,2.0099,2.0156,2.0586,0.0,0.0,0.0,0.0,0.0,0.0,0.0,0.0,0.0,0.0,0.0,0.0,0.0,0.0,0.0,0.0,0.0,0.0,0.0,0.0,2.5693,2.5693,2.5693,2.5693,2.5693,2.5849,2.6161,2.6161,2.6289,2.6387,2.6113,2.5898,2.5693,2.5693,2.5693,2.5693,2.5693,2.5693,2.5752,2.6504,2.6973,2.7324,2.7851,2.8164,2.8262,2.8105,2.7943,2.7689,2.748,2.7129,2.6777,2.6777,2.666,2.6562,2.6738,2.8642,3.0608,3.0382,3.2198,3.4098,3.4098,3.4098,3.4098,3.4098,3.4098,3.4098,3.4098,3.4274,3.4399,3.4399,3.4575,3.468,3.468,3.468,3.5015,3.5895,3.7223,3.8393,3.9207,4.0558,4.1294,4.1025,4.0786,4.0636,4.0636,3.9619,3.902,3.902,3.929,3.9373,3.9373,3.9373,3.9373,3.9373,3.9828,4.0038,4.0038,4.0696,4.0995,1.6359,1.641,1.6736,1.6495,1.7224,1.8262,1.9202,1.9865,2.0664,2.1756,2.1892,2.1892,2.2227,0.0,0.0,0.0,0.0,0.0,0.0,0.0,0.0,0.0,0.0,0.0,0.0,0.0,0.0,0.0,0.0,0.0,0.0,0.0,0.0,0.0,2.5693,2.5693,2.5693,2.5693,2.5693,2.5693,2.5693,2.5898,2.6172,2.583,2.5693,2.5693,2.5693,2.5693,2.5693,2.5693,2.5693,2.5752,2.6387,2.6777,2.709,2.7676,2.8066,2.8301,2.8301,2.8105,2.7871,2.7871,2.7578,2.7226,2.7226,2.7129,2.7051,2.7187,2.9124,3.1192,3.13,3.3007,3.468,3.468,3.468,3.468,3.468,3.468,3.468,3.468,3.4831,3.4931,3.4931,3.5127,3.5253,3.5253,3.5253,3.5365,3.5749,3.7139,3.8361,3.9075,4.0665,4.1722,4.1722,4.1542,4.1422,4.1422,4.0546,3.9948,3.9738,3.9738,3.9738,3.9738,3.9738,3.9828,4.0038,4.0487,4.0696,4.0726,4.1422,4.1722,1.7385,1.6509,1.596,1.6934,1.7595,1.8594,2.0703,2.121,2.1697,2.3437,2.3457,2.3164,2.3208,2.3227,0.0,0.0,0.0,0.0,0.0,0.0,0.0,0.0,0.0,0.0,0.0,0.0,0.0,0.0,0.0,0.0,0.0,0.0,0.0,0.0,2.5693,2.5693,2.5693,2.5693,2.5693,2.5693,2.5693,2.5693,2.5693,2.5693,2.5693,2.5693,2.5693,2.5693,2.5693,2.5693,2.5693,2.5693,2.5693,2.622,2.7012,2.7031,2.7559,2.8301,2.8301,2.8301,2.8301,2.8301,2.8008,2.7728,2.7728,2.7363,2.7109,2.7539,2.9656,3.1775,3.2219,3.3481,3.4751,3.4751,3.4751,3.4751,3.4751,3.4751,3.4751,3.4751,3.5132,3.5508,3.5508,3.6006,3.6405,3.6405,3.6405,3.6803,3.7926,3.8107,3.8979,4.1337,4.2069,4.241,4.241,4.1811,4.1414,4.1414,4.1414,4.1085,4.0427,4.0397,4.0397,4.0397,4.0397,4.0726,4.1422,4.1384,4.1384,4.1452,4.2111,4.241,1.6498,1.6624,1.7161,1.6941,1.8355,2.0175,2.1406,2.2107,2.2925,2.4394,2.459,2.4316,2.3711,0.0,0.0,0.0,0.0,0.0,0.0,0.0,0.0,0.0,0.0,0.0,0.0,0.0,0.0,0.0,0.0,0.0,0.0,0.0,0.0,0.0,2.5693,2.5693,2.5693,2.5693,2.5693,2.5693,2.5693,2.5693,2.5693,2.5693,2.5693,2.5693,2.5693,2.5693,2.5693,2.5693,2.5693,2.5713,2.6074,2.6523,2.7051,2.7363,2.7832,2.8301,2.8301,2.8301,2.8301,2.8301,2.8203,2.8105,2.8105,2.8008,2.793,2.8066,3.0067,3.2152,3.2236,3.4075,3.5881,3.5881,3.5881,3.5881,3.5881,3.5881,3.5881,3.5881,3.6006,3.6107,3.6107,3.6304,3.6405,3.6405,3.6405,3.6803,3.7926,3.8107,3.8979,4.1337,4.1732,4.2173,4.2951,4.288,4.2761,4.2761,4.2761,4.2252,4.1145,4.1085,4.1085,4.1085,4.1085,4.1175,4.1422,4.1871,4.2111,4.2141,4.2731,4.303,1.7455,1.7535,1.7977,1.8538,1.9966,2.1722,2.3577,2.3657,2.3711,0.0,2.4832,2.4394,2.3887,0.0,0.0,0.0,0.0,0.0,0.0,0.0,0.0,0.0,0.0,0.0,0.0,0.0,0.0,0.0,0.0,0.0,0.0,0.0,0.0,0.0,2.5693,2.5693,2.5693,2.5693,2.5693,2.5693,2.5693,2.5693,2.5693,2.5693,2.5693,2.5693,2.5693,2.5693,2.5693,2.5693,2.5693,2.5713,2.6035,2.6387,2.6797,2.707,2.7539,2.8047,2.8047,2.8144,2.8301,2.8301,2.8301,2.8301,2.8301,2.8301,2.8301,2.8301,3.0224,3.228,3.228,3.4338,3.6405,3.6405,3.6405,3.6405,3.6405,3.6405,3.6405,3.6405,3.6405,3.6405,3.6405,3.6405,3.6405,3.6405,3.6405,3.6662,3.7335,3.7815,3.8801,4.0746,4.1337,4.1906,4.2548,4.3021,4.313,4.2629,4.3021,4.2931,4.2192,4.1893,4.1811,4.1811,4.1811,4.1893,4.2162,4.2551,4.2761,4.2761,4.315,4.3439,1.9355,1.8889,1.8689,2.1215,2.2186,2.3363,2.6309,2.5459,2.4281,2.5012,0.0,2.3828,2.3789,0.0,0.0,0.0,0.0,0.0,0.0,0.0,0.0,0.0,0.0,0.0,0.0,0.0,0.0,0.0,0.0,0.0,0.0,0.0,0.0,2.5693,2.5693,2.5693,2.5693,2.5693,2.5693,0.0,2.5693,2.5693,2.5693,2.5693,2.5693,2.5693,2.5693,2.5693,2.5693,2.5693,2.5693,2.5693,2.5693,2.5996,2.6387,2.6387,2.6894,2.7669,2.7669,2.7851,2.8184,2.8223,2.8242,2.8242,2.8281,2.8301,2.8301,2.8301,3.0172,3.2129,3.228,3.424,3.6263,3.6358,3.6405,3.6405,3.6405,3.6405,3.6405,3.6405,3.6405,3.6405,3.6405,3.6405,3.6405,3.6405,3.6405,3.6405,3.6405,3.7289,3.8424,3.9579,4.0746,4.1462,4.1462,4.2508,4.267,4.1504,4.2566,4.326,4.326,4.2751,4.25,4.25,4.25,4.2731,4.329,4.329,4.3319,4.3379,4.3379,4.3738,1.8505,1.9365,2.0703,2.2389,2.4205,2.559,2.5722,2.5851,2.5894,2.5903,2.5037,0.0,0.0,0.0,0.0,0.0,0.0,0.0,0.0,0.0,0.0,0.0,0.0,0.0,0.0,0.0,0.0,0.0,0.0,0.0,0.0,0.0,0.0,2.5693,2.5693,2.5693,2.5693,2.5693,2.5693,0.0,2.5693,2.5693,2.5693,2.5693,2.5693,2.5693,2.5693,2.5693,2.5693,2.5693,2.5693,2.5693,2.5693,2.5996,2.6387,2.6387,2.6719,2.7148,2.7148,2.7207,2.7344,2.7695,2.7865,2.7904,2.8184,2.8301,2.8301,2.8301,2.946,3.0979,3.2028,3.3552,3.509,3.6168,3.6405,3.6405,3.6405,3.6405,3.6405,3.6405,3.6405,3.6405,3.6405,3.6405,3.6405,3.6405,3.6405,3.6405,3.6405,3.6615,3.7196,3.8379,3.9579,4.0275,4.0275,4.1295,4.1462,4.0318,4.1837,4.2756,4.2756,4.2979,4.312,4.312,4.312,4.314,4.329,4.329,4.3559,4.4067,4.4067,4.4466,1.9202,2.0494,2.2288,2.4611,0.0,2.7307,2.7461,2.7405,2.7236,2.7068,0.0,0.0,0.0,0.0,0.0,0.0,0.0,0.0,0.0,0.0,0.0,0.0,0.0,0.0,0.0,0.0,0.0,0.0,0.0,0.0,0.0,2.5293,2.541,2.541,2.5577,2.5693,2.5693,2.5693,2.5693,2.5693,2.5693,2.5693,2.5693,2.5693,2.5693,2.5693,2.5693,2.5693,2.5693,2.5693,2.5693,2.5693,2.5693,2.583,2.6074,2.6074,2.6348,2.6719,2.6719,2.6992,2.7363,2.7598,2.7865,2.8008,2.8223,2.8301,2.8301,2.8301,2.925,3.0618,3.1927,3.3353,3.4727,3.6073,3.6405,3.6405,3.6405,3.6405,3.6405,3.6405,3.6405,3.6405,3.6405,3.6405,3.6405,3.6405,3.6405,3.6505,3.6782,3.6807,3.7311,3.874,3.9459,3.987,3.987,4.0919,4.1095,3.9915,4.1241,4.2335,4.2969,4.319,4.3655,4.4246,4.4287,4.4287,4.4287,4.4287,4.4436,4.4796,4.4796,4.5155,1.9987,2.1692,2.3781,2.6949,2.8081,0.0,2.9326,2.8949,2.8307,2.7884,0.0,0.0,0.0,0.0,0.0,0.0,0.0,0.0,0.0,0.0,0.0,0.0,0.0,0.0,0.0,0.0,0.0,0.0,0.0,0.0,2.4414,2.4766,2.5047,2.5106,2.543,2.5615,2.5693,2.5693,2.5693,2.5693,2.5693,2.5693,2.5693,2.5693,2.5693,2.5693,2.5693,2.5693,2.5693,2.5693,2.5693,2.5693,2.5693,2.5693,2.5693,2.5693,2.5977,2.6289,2.6367,2.6855,2.7513,2.7669,2.7963,2.8203,2.8262,2.8301,2.8301,2.8301,2.9112,3.0328,3.1876,3.3155,3.4434,3.6001,3.6405,3.6405,3.6405,3.6405,3.6405,3.6405,3.6405,3.6405,3.6405,3.648,3.6556,3.6556,3.6631,3.6857,3.7262,3.7337,3.7876,3.9372,3.9685,3.9733,3.952,4.0529,4.0715,3.9542,4.0683,4.1955,4.3237,4.3572,4.4355,4.5633,4.5424,4.5304,4.5304,4.5304,4.5364,4.5484,4.5484,4.5843,1.8907,2.216,2.5768,0.0,2.9161,2.9365,0.0,0.0,2.9052,0.0,0.0,0.0,0.0,0.0,0.0,0.0,0.0,0.0,0.0,0.0,0.0,0.0,0.0,0.0,0.0,0.0,0.0,0.0,0.0,0.0,2.4414,2.4473,2.4668,2.5106,2.5165,2.5352,2.5693,2.5693,2.5693,2.5693,2.5693,2.5693,2.5693,2.5693,2.5693,2.5693,2.5693,2.5693,2.5693,2.5693,2.5693,2.5693,2.5693,2.5693,2.5693,2.5693,2.5732,2.583,2.625,2.6465,2.668,2.7474,2.7767,2.7865,2.8184,2.8301,2.8301,2.8301,2.8441,2.9144,3.1622,3.2431,3.3231,3.581,3.6405,3.6405,3.6405,3.6405,3.6405,3.6405,3.6405,3.6405,3.6405,3.6807,3.7086,3.7086,3.7487,3.7814,3.7889,3.7889,3.7964,3.8236,3.9184,3.9377,3.8334,3.9351,3.9494,3.8334,3.9916,4.145,4.2759,4.43,4.574,4.6997,4.5873,4.5304,4.5304,4.5304,4.5603,4.6202,4.6202,4.6531,2.0668,2.317,2.5762,0.0,2.9088,2.9263,2.9071,0.0,0.0,0.0,0.0,0.0,0.0,0.0,0.0,0.0,0.0,0.0,0.0,0.0,0.0,0.0,0.0,0.0,0.0,0.0,0.0,0.0,0.0,2.3666,2.3666,2.3926,2.416,2.4355,2.459,2.4922,2.5352,2.5371,2.5488,2.5693,2.5693,2.5693,2.5693,2.5693,2.5693,2.5693,2.5693,2.5693,2.5693,2.5693,2.5693,2.5693,2.5693,2.5693,2.5693,2.5693,2.5898,2.6133,2.6328,2.6699,2.7168,2.7591,2.7832,2.8047,2.8242,2.8301,2.8301,2.8301,2.8301,2.89,3.1571,3.228,3.2982,3.5763,3.6405,3.6405,3.6405,3.6405,3.6405,3.6405,3.6656,3.6883,3.6883,3.7287,3.7638,3.7638,3.7839,3.8115,3.8442,3.8492,3.8617,3.8919,3.9422,3.9522,3.8994,3.9422,3.9522,3.8994,3.9702,4.0754,4.2022,4.3554,4.4932,4.6211,4.6337,4.6411,4.6411,4.6411,4.6591,4.686,4.686,4.704,2.1468,0.0,2.4575,2.7208,2.8161,2.8699,0.0,0.0,0.0,0.0,0.0,0.0,0.0,0.0,0.0,0.0,0.0,0.0,0.0,0.0,0.0,0.0,0.0,0.0,0.0,0.0,0.0,0.0,0.0,2.3101,2.3101,2.3437,2.3672,2.3789,2.4102,2.4453,2.4902,2.5067,2.5293,2.5693,2.5693,2.5693,2.5693,2.5693,2.5693,2.5693,2.5693,2.5693,2.5693,2.5693,2.5693,2.5693,2.5693,2.5693,2.5693,2.5693,2.6016,2.6406,2.6504,2.7031,2.7728,2.7845,2.8047,2.8301,2.8301,2.8301,2.8301,2.8301,2.8301,2.89,3.1571,3.228,3.2982,3.5763,3.6405,3.6405,3.6405,3.6505,3.6606,3.6606,3.701,3.7387,3.7387,3.7864,3.8216,3.8216,3.8341,3.8592,3.9019,3.9069,3.9245,3.9647,3.9697,3.9697,3.9697,3.9697,3.9697,3.9697,3.9697,4.0262,4.1541,4.2834,4.4116,4.5389,4.6638,4.7309,4.7309,4.7309,4.7309,4.7309,4.7309,4.7309,1.9496,2.0783,0.0,2.4449,2.6214,0.0,0.0,0.0,0.0,0.0,0.0,0.0,0.0,0.0,0.0,0.0,0.0,0.0,0.0,0.0,0.0,0.0,0.0,0.0,0.0,0.0,0.0,0.0,0.0,2.3101,2.3101,2.312,2.3315,2.3769,2.3809,2.4023,2.4453,2.4863,2.5293,2.5693,2.5693,2.5693,2.5693,2.5693,2.5693,2.5693,2.5693,2.5693,2.5693,2.5693,2.5693,2.5693,2.5693,2.5693,2.5693,2.5693,2.6016,2.6445,2.6836,2.7285,2.7787,2.8125,2.8281,2.8301,2.8301,2.8301,2.8301,2.8301,2.8301,2.89,3.1571,3.228,3.2982,3.5763,3.6405,3.6405,3.6405,3.6832,3.7136,3.7136,3.7588,3.7965,3.7965,3.8442,3.8818,3.8818,3.927,3.9622,3.9647,3.9647,3.9672,3.9697,3.9697,3.9697,3.9697,3.9697,3.9697,3.9697,3.9697,4.0262,4.1541,4.2834,4.4116,4.5389,4.6638,4.7309,4.7309,4.7309,4.7309,4.7309,4.7309,4.7309,2.0062,0.0,0.0,2.3658,2.4963,2.5988,0.0,0.0,0.0,0.0,0.0,0.0,0.0,0.0,0.0,0.0,0.0,0.0,0.0,0.0,0.0,0.0,0.0,0.0,0.0,0.0,0.0,0.0,0.0,0.0,2.3101,2.3101,2.3159,2.3379,2.3379,2.3574,2.4004,2.4754,2.5184,2.5312,2.5605,2.5693,2.5693,2.5693,2.5693,2.5693,2.5693,2.5693,2.5693,2.5693,2.5693,2.5693,2.5693,2.5693,2.5693,2.5693,2.6142,2.6816,2.6973,2.748,2.8086,2.8242,2.8301,2.8301,2.8301,2.8301,2.8301,2.8301,2.8301,2.89,3.1571,3.228,3.3074,3.6183,3.7161,3.7412,3.7412,3.7563,3.7713,3.7713,3.8165,3.8567,3.8567,3.9019,3.9396,3.9396,3.9572,3.9697,3.9697,3.9697,3.9697,3.9697,4.0023,4.0224,4.0224,4.0551,4.0752,4.0752,4.0752,4.0938,4.1385,4.2598,4.3529,4.3976,4.5684,4.6829,4.7309,4.7309,4.7309,4.7309,4.7309,4.7309,1.9908,0.0,0.0,0.0,0.0,2.4227,0.0,0.0,0.0,0.0,0.0,0.0,0.0,0.0,0.0,0.0,0.0,0.0,0.0,0.0,0.0,0.0,0.0,0.0,0.0,0.0,0.0,0.0,0.0,0.0,2.3101,2.3101,2.3101,2.3101,2.3101,2.334,2.3789,2.4355,2.4707,2.4863,2.5293,2.5508,2.5527,2.5615,2.5693,2.5693,2.5693,2.5693,2.5693,2.5693,2.5693,2.5693,2.5693,2.5693,2.5713,2.5898,2.6406,2.7031,2.7187,2.7695,2.8301,2.8301,2.8301,2.8301,2.8301,2.8301,2.8301,2.8301,2.8301,2.89,3.1571,3.3119,3.4544,3.6922,3.7889,3.8291,3.8291,3.8291,3.8291,3.8291,3.8768,3.9145,3.9145,3.9446,3.9697,3.9697,3.9697,3.9697,3.9697,3.9848,3.9973,3.9973,4.0475,4.0802,4.0802,4.1075,4.1275,4.1275,4.1275,4.1275,4.1275,4.2527,4.3229,4.3229,4.5399,4.6778,4.7288,4.7271,4.7309,4.7309,4.7309,4.7429,0.0,0.0,0.0,0.0,0.0,0.0,0.0,0.0,0.0,0.0,0.0,0.0,0.0,0.0,0.0,0.0,0.0,0.0,0.0,0.0,0.0,0.0,0.0,0.0,0.0,0.0,0.0,0.0,0.0,2.3101,2.3101,2.3101,2.3101,2.3101,2.3101,2.334,2.3769,2.3789,2.4004,2.4414,2.4863,2.5106,2.5125,2.5527,2.5693,2.5693,2.5693,2.5693,2.5693,2.5693,2.5693,2.5693,2.5693,2.5693,2.5752,2.623,2.666,2.709,2.7571,2.793,2.8301,2.8301,2.8301,2.8301,2.8301,2.8301,2.8301,2.8301,2.8301,2.89,3.1644,3.4766,3.7362,3.7889,3.8467,3.8944,3.8944,3.8944,3.8944,3.8944,3.932,3.9697,3.9697,3.9697,3.9697,3.9697,3.9697,3.9697,3.9722,4.0199,4.0526,4.0551,4.0974,4.13,4.13,4.1326,4.1326,4.1326,4.1326,4.1326,4.1326,4.2526,4.3178,4.3178,4.5769,4.71,4.71,4.7228,4.7326,4.7369,4.7369,4.7698,1.8893,0.0,0.0,0.0,0.0,0.0,0.0,0.0,0.0,0.0,0.0,0.0,0.0,0.0,0.0,0.0,0.0,0.0,0.0,0.0,0.0,0.0,0.0,0.0,0.0,0.0,0.0,0.0,2.3101,2.3101,2.3101,2.3101,2.3101,2.3101,2.3101,2.3159,2.3276,2.3633,2.3848,2.3965,2.4754,2.5106,2.5125,2.5527,2.5693,2.5693,2.5693,2.5693,2.5693,2.5693,2.5693,2.5693,2.5693,2.5693,2.5752,2.623,2.666,2.709,2.7571,2.793,2.8301,2.8301,2.8301,2.8301,2.8301,2.8301,2.8301,2.8301,2.8301,2.9033,3.2134,3.5699,3.8492,3.8592,3.9069,3.9471,3.9471,3.9471,3.9471,3.9471,3.9597,3.9697,3.9697,3.9697,3.9697,3.9697,3.9697,3.9848,4.0249,4.0425,4.0676,4.1025,4.1605,4.1932,4.1932,4.2308,4.2534,4.2534,4.2534,4.2534,4.2534,4.2895,4.3034,4.3034,4.4308,4.4948,4.4948,4.65,4.7724,4.876,4.876,4.888,1.944,0.0,0.0,0.0,0.0,0.0,0.0,2.2231,0.0,0.0,0.0,0.0,0.0,0.0,0.0,0.0,0.0,0.0,0.0,0.0,0.0,0.0,0.0,0.0,0.0,0.0,0.0,2.3101,2.3101,2.3101,2.3101,2.3101,2.3101,2.3101,2.3101,2.3101,2.3101,2.3354,2.3516,2.3535,2.4199,2.4675,2.4805,2.5254,2.5566,2.5693,2.5693,2.5693,2.5693,2.5693,2.5693,2.5693,2.5693,2.581,2.6055,2.6484,2.6914,2.7344,2.7773,2.8086,2.8301,2.8301,2.8301,2.8301,2.8301,2.8301,2.8301,2.8301,2.9306,3.0832,3.299,3.62,3.8969,3.917,3.9471,3.9697,3.9697,3.9697,3.9697,3.9697,3.9697,3.9697,3.9697,3.9697,3.9772,3.9998,4.0049,4.0249,4.0724,4.1053,4.1329,4.163,4.2158,4.2564,4.2564,4.2785,4.2986,4.2986,4.2986,4.2986,4.2986,4.2986,4.2986,4.2986,4.3953,4.4494,4.4494,4.5713,4.7024,4.842,4.9296,4.9673,2.0258,2.0866,0.0,0.0,0.0,0.0,2.3043,2.251,0.0,0.0,0.0,0.0,0.0,0.0,0.0,0.0,0.0,0.0,0.0,0.0,0.0,0.0,0.0,0.0,0.0,2.3299,2.3256,2.3101,2.3101,2.3101,2.3101,2.3101,2.3101,2.3101,2.3101,2.3101,2.3101,2.3101,2.3101,2.3101,2.3574,2.4004,2.4434,2.4863,2.5312,2.5693,2.5693,2.5693,2.5693,2.5693,2.5693,2.5693,2.5693,2.5996,2.6445,2.6855,2.7285,2.7787,2.8144,2.8301,2.8301,2.8301,2.8301,2.8301,2.8301,2.8301,2.8301,2.834,3.0642,3.3168,3.39,3.6383,3.8917,3.9572,3.9697,3.9697,3.9697,3.9697,3.9697,3.9697,3.9697,3.9697,3.9697,3.9697,3.9873,4.0425,4.0526,4.0752,4.13,4.1856,4.2238,4.2288,4.274,4.2986,4.2986,4.2986,4.2986,4.2986,4.2986,4.2986,4.2986,4.2986,4.2986,4.2986,4.4155,4.4779,4.4779,4.5105,4.5888,4.7013,4.9122,5.01,2.0649,2.1366,2.224,2.1798,0.0,0.0,0.0,2.1671,0.0,0.0,0.0,0.0,0.0,0.0,0.0,0.0,0.0,0.0,0.0,0.0,0.0,0.0,0.0,0.0,0.0,2.4447,2.4082,2.3169,2.3101,2.3101,2.3101,2.3101,2.3101,2.3101,2.3101,2.3101,2.3101,2.3101,2.3101,2.3101,2.3574,2.4004,2.4434,2.4863,2.5312,2.5693,2.5693,2.5693,2.5693,2.5693,2.5693,2.5693,2.5693,2.5996,2.6445,2.6855,2.7285,2.7787,2.8144,2.8301,2.8301,2.8301,2.8301,2.8301,2.8301,2.8301,2.8359,2.8711,3.037,3.248,3.4066,3.6114,3.8121,3.9389,3.9697,3.9697,3.9697,3.9697,3.9697,3.9697,3.9697,3.9697,3.9697,3.9697,3.9873,4.0425,4.0526,4.0877,4.1856,4.2137,4.2389,4.2816,4.2911,4.2986,4.2986,4.2986,4.2986,4.2986,4.2986,4.2986,4.2986,4.2986,4.2986,4.2986,4.324,4.3381,4.3381,4.563,4.6302,4.547,4.8162,4.9378,2.1485,2.2009,2.2836,2.2456,0.0,0.0,0.0,0.0,2.2067,0.0,0.0,0.0,0.0,0.0,0.0,0.0,0.0,0.0,0.0,0.0,0.0,0.0,0.0,0.0,0.0,2.5126,2.4339,2.3188,2.3101,2.3101,2.3101,2.3101,2.3101,2.3101,2.3101,2.3101,2.3101,2.3101,2.3101,2.3101,2.3359,2.3789,2.4414,2.4648,2.5098,2.5693,2.5693,2.5693,2.5693,2.5693,2.5693,2.5693,2.5693,2.6133,2.6719,2.6934,2.7422,2.8008,2.8223,2.8301,2.8301,2.8301,2.8301,2.8301,2.8301,2.8301,2.8379,2.8809,3.0295,3.2231,3.4092,3.604,3.7849,3.9362,3.9697,3.9697,3.9697,3.9697,3.9697,3.9697,3.9697,3.9697,3.9697,3.9923,4.03,4.0852,4.1153,4.163,4.2514,4.2615,4.2715,4.2936,4.2986,4.2986,4.2986,4.2986,4.2986,4.2986,4.2986,4.2986,4.2986,4.2986,4.2986,4.2986,4.2986,4.2986,4.2986,4.4372,4.5395,4.6083,4.7503,4.8886,0.0,0.0,0.0,0.0,0.0,2.3457,0.0,0.0,0.0,2.3677,0.0,0.0,0.0,0.0,0.0,0.0,0.0,0.0,0.0,0.0,0.0,0.0,0.0,0.0,0.0,2.5406,2.4304,2.3497,2.3106,2.3001,2.3081,2.3101,2.3101,2.3101,2.3101,2.3101,2.3101,2.3101,2.3101,2.3101,2.3101,2.3549,2.4414,2.4414,2.4902,2.5693,2.5693,2.5693,2.5693,2.5693,2.5693,2.5693,2.5693,2.62,2.7012,2.7012,2.7559,2.8301,2.8301,2.8301,2.8301,2.8301,2.8301,2.8301,2.8301,2.8301,2.8398,2.8906,3.0138,3.1873,3.4149,3.5895,3.753,3.931,3.9697,3.9697,3.9697,3.9697,3.9697,3.9697,3.9772,3.9823,3.9722,4.0149,4.0701,4.12,4.1806,4.2414,4.2911,4.2986,4.2986,4.2986,4.2986,4.2986,4.2986,4.2986,4.2986,4.2986,4.2986,4.2986,4.2986,4.2986,4.2986,4.2986,4.2986,4.2986,4.2986,4.2986,4.4126,4.6317,4.6578,4.7859,0.0,0.0,0.0,0.0,2.5384,0.0,0.0,0.0,2.4539,2.2441,0.0,0.0,0.0,0.0,0.0,0.0,0.0,0.0,0.0,0.0,0.0,0.0,0.0,0.0,0.0,0.0,2.4201,2.4576,2.3227,2.2614,2.3066,2.3101,2.3101,2.3101,2.3101,2.3101,2.3101,2.3101,2.3101,2.3101,2.3101,2.3549,2.4414,2.4414,2.4902,2.5693,2.5693,2.5693,2.5693,2.5693,2.5693,2.5693,2.5693,2.62,2.7012,2.7012,2.7559,2.8301,2.8301,2.8301,2.8301,2.8301,2.8301,2.8301,2.8301,2.8301,2.8457,2.9277,2.9698,3.0676,3.4318,3.5353,3.6271,3.9025,3.9697,3.9697,3.9697,3.9697,3.9697,3.9697,4.0099,4.0275,3.9772,4.0149,4.0701,4.12,4.1806,4.2414,4.2911,4.2986,4.2986,4.2986,4.2986,4.2986,4.2986,4.2986,4.2986,4.2986,4.2986,4.2986,4.2986,4.2986,4.2986,4.2986,4.2986,4.2986,4.2986,4.2986,4.3129,4.3492,4.4671,4.5395,0.0,0.0,0.0,0.0,0.0,0.0,2.323,0.0,2.3813,0.0,0.0,0.0,0.0,0.0,0.0,0.0,0.0,0.0,0.0,0.0,0.0,0.0,0.0,0.0,0.0,0.0,0.0,0.0,0.0,2.2413,2.2715,2.2964,2.3101,2.3101,2.3101,2.3101,2.3101,2.3101,2.3101,2.3101,2.3101,2.3549,2.4414,2.4414,2.4902,2.5693,2.5693,2.5693,2.5693,2.5693,2.5693,2.5713,2.6016,2.6484,2.7051,2.7305,2.7773,2.8301,2.8301,2.8301,2.8301,2.8301,2.8301,2.8301,2.8301,2.8457,2.8789,2.9394,3.0398,3.1871,3.4615,3.5945,3.7079,3.9206,3.9697,3.9697,3.9697,3.9697,3.9798,4.0099,4.035,4.0551,4.0626,4.1103,4.1555,4.1781,4.2283,4.2766,4.2936,4.2986,4.2986,4.2986,4.2986,4.2986,4.2986,4.2986,4.2986,4.2986,4.2986,4.2986,4.2986,4.2986,4.2986,4.2986,4.2986,4.2986,4.2986,4.2986,4.2986,4.3042,4.3602,4.4671,2.7444,0.0,0.0,0.0,0.0,0.0,0.0,0.0,0.0,0.0,0.0,0.0,0.0,0.0,0.0,0.0,0.0,0.0,0.0,0.0,0.0,0.0,0.0,0.0,0.0,0.0,0.0,0.0,0.0,0.0,2.2886,2.3179,2.3268,2.3101,2.3101,2.3101,2.3101,2.3101,2.3101,2.3101,2.3218,2.3666,2.4414,2.4531,2.5019,2.5693,2.5693,2.5693,2.5693,2.5693,2.5693,2.5752,2.6348,2.6738,2.707,2.75,2.793,2.8301,2.8301,2.8301,2.8301,2.8301,2.8301,2.8301,2.8301,2.8594,2.9004,2.9453,3.0944,3.2857,3.477,3.6379,3.7849,3.9362,3.9697,3.9697,3.9697,3.9823,4.0049,4.045,4.0752,4.1103,4.1505,4.1882,4.2213,4.2213,4.269,4.2986,4.2986,4.2986,4.2986,4.2986,4.2986,4.2986,4.2986,4.2986,4.2986,4.2986,4.2986,4.2986,4.2986,4.2986,4.2986,4.2986,4.2986,4.2986,4.2986,4.2986,4.2986,4.2986,4.2986,4.4071,0.0,0.0,0.0,2.4983,0.0,0.0,0.0,0.0,2.6303,0.0,0.0,0.0,0.0,0.0,0.0,0.0,0.0,0.0,0.0,0.0,0.0,0.0,0.0,0.0,0.0,0.0,0.0,0.0,0.0,0.0,2.3866,2.395,2.3716,2.3125,2.3101,2.3101,2.3101,2.3101,2.3101,2.3101,2.3574,2.4004,2.4434,2.4863,2.5293,2.5693,2.5693,2.5693,2.5693,2.5693,2.5693,2.5771,2.666,2.7012,2.707,2.75,2.793,2.8301,2.8301,2.8301,2.8301,2.8301,2.8301,2.8301,2.8301,2.8594,2.9004,2.9453,3.0944,3.2857,3.477,3.6379,3.7849,3.9362,3.9697,3.9697,3.9697,4.0124,4.0501,4.0526,4.1379,4.2162,4.2187,4.2213,4.2213,4.2213,4.269,4.2986,4.2986,4.2986,4.2986,4.2986,4.2986,4.2986,4.2986,4.2986,4.2986,4.2986,4.2986,4.2986,4.2986,4.2986,4.2986,4.2986,4.2986,4.2986,4.2986,4.2986,4.2986,4.2986,4.2986,4.3017,0.0,0.0,2.9202,2.6766,0.0,0.0,0.0,0.0,0.0,0.0,0.0,0.0,0.0,0.0,0.0,0.0,0.0,0.0,0.0,0.0,0.0,0.0,0.0,0.0,0.0,0.0,0.0,0.0,2.3119,0.0,0.0,2.3678,2.3595,2.2715,2.2945,2.3101,2.3101,2.3101,2.3101,2.3101,2.3574,2.4004,2.4434,2.4863,2.5312,2.5693,2.5693,2.5693,2.5693,2.5693,2.5849,2.623,2.6797,2.7187,2.75,2.793,2.8164,2.8301,2.8301,2.8301,2.8301,2.8301,2.8476,2.8711,2.8711,2.9199,3.001,3.1136,3.2857,3.4681,3.6333,3.7873,3.9077,3.9569,3.9697,3.9798,4.0149,4.0375,4.0727,4.1455,4.1961,4.2313,4.269,4.2766,4.2766,4.2766,4.2861,4.2986,4.2986,4.2986,4.2986,4.2986,4.2986,4.2986,4.2986,4.2986,4.2986,4.2986,4.2986,4.2986,4.2986,4.2986,4.2986,4.2986,4.2986,4.2986,4.2986,4.2986,4.2986,4.3042,4.3907,4.3852,3.0407,3.0357,0.0,2.8298,2.7412,0.0,2.5454,0.0,0.0,0.0,0.0,0.0,0.0,0.0,0.0,0.0,0.0,0.0,0.0,0.0,0.0,0.0,0.0,0.0,0.0,0.0,2.2498,2.3013,2.2903,0.0,0.0,0.0,2.4173,2.2542,2.3279,2.3517,2.3101,2.3101,2.3101,2.3101,2.373,2.416,2.4434,2.5039,2.5469,2.5693,2.5693,2.5693,2.5693,2.5693,2.5996,2.6426,2.6855,2.7285,2.7767,2.8144,2.8301,2.8301,2.8301,2.8301,2.832,2.8476,2.8691,2.8945,2.9101,2.9648,3.0423,3.1345,3.3424,3.5508,3.6487,3.819,3.9697,3.9697,3.9848,4.0074,4.045,4.0827,4.1304,4.2062,4.2363,4.2615,4.2911,4.2986,4.2986,4.2986,4.2986,4.2986,4.2986,4.2986,4.2986,4.2986,4.2986,4.2986,4.2986,4.2986,4.2986,4.2986,4.2986,4.2986,4.2986,4.2986,4.2986,4.2986,4.2986,4.2986,4.2986,4.2986,4.2986,4.3042,4.3907,4.3797]}]]